Wetterdaten: Montag, 10.09.2018
Datum Zeit Temp. A. Pool Temp. Temp. 5cm Feuchte A. Luftdruck Regen Wind Richtung Richtung Sonnenschein ET UV Solar Taupunkt Windchill Windben Empfang
10.09.2018 00:00 13,9 C 21,1 C 12,2 C 87 % 1021,4 hPa 0,0 l/m 1,0 km/h (0 Bft) S 190 0 min 0,000 mm 0,0 UV-I 0 W/m 11,8 C 13,9 C 4,8 km/h (1 Bft) 98,11 %
10.09.2018 00:02 14,0 C 21,1 C 12,2 C 88 % 1021,4 hPa 0,0 l/m 0,0 km/h (0 Bft) S-SW 193 0 min 0,000 mm 0,0 UV-I 0 W/m 12,0 C 14,0 C 1,6 km/h (1 Bft) 95,65 %
10.09.2018 00:04 14,1 C 21,1 C 12,2 C 88 % 1021,4 hPa 0,0 l/m 0,9 km/h (0 Bft) S-SW 200 0 min 0,000 mm 0,0 UV-I 0 W/m 12,1 C 14,1 C 4,8 km/h (1 Bft) 97,87 %
10.09.2018 00:06 14,2 C 21,1 C 12,8 C 88 % 1021,3 hPa 0,0 l/m 2,2 km/h (1 Bft) S 188 0 min 0,000 mm 0,0 UV-I 0 W/m 12,2 C 14,2 C 6,4 km/h (2 Bft) 97,37 %
10.09.2018 00:08 14,2 C 21,1 C 12,8 C 88 % 1021,3 hPa 0,0 l/m 4,1 km/h (1 Bft) S-SW 196 0 min 0,000 mm 0,0 UV-I 0 W/m 12,2 C 14,2 C 8,0 km/h (2 Bft) 97,87 %
10.09.2018 00:10 14,3 C 21,1 C 12,8 C 88 % 1021,3 hPa 0,0 l/m 2,2 km/h (1 Bft) S 190 0 min 0,000 mm 0,0 UV-I 0 W/m 12,3 C 14,3 C 4,8 km/h (1 Bft) 97,87 %
10.09.2018 00:12 14,4 C 21,1 C 12,8 C 87 % 1021,3 hPa 0,0 l/m 2,0 km/h (1 Bft) S 188 0 min 0,000 mm 0,0 UV-I 0 W/m 12,3 C 14,4 C 6,4 km/h (2 Bft) 95,74 %
10.09.2018 00:14 14,4 C 21,1 C 13,3 C 87 % 1021,3 hPa 0,0 l/m 1,9 km/h (1 Bft) S 184 0 min 0,000 mm 0,0 UV-I 0 W/m 12,3 C 14,4 C 6,4 km/h (2 Bft) 93,62 %
10.09.2018 00:16 14,4 C 21,1 C 13,3 C 87 % 1021,3 hPa 0,0 l/m 0,6 km/h (0 Bft) S-SW 192 0 min 0,000 mm 0,0 UV-I 0 W/m 12,3 C 14,4 C 3,2 km/h (1 Bft) 98,00 %
10.09.2018 00:18 14,4 C 21,1 C 13,3 C 87 % 1021,3 hPa 0,0 l/m 0,9 km/h (0 Bft) S-SW 196 0 min 0,000 mm 0,0 UV-I 0 W/m 12,3 C 14,4 C 4,8 km/h (1 Bft) 95,74 %
10.09.2018 00:20 14,3 C 21,1 C 12,8 C 87 % 1021,3 hPa 0,0 l/m 1,2 km/h (1 Bft) S-SW 194 0 min 0,000 mm 0,0 UV-I 0 W/m 12,2 C 14,3 C 4,8 km/h (1 Bft) 92,00 %
10.09.2018 00:22 14,2 C 21,1 C 12,8 C 87 % 1021,3 hPa 0,0 l/m 2,1 km/h (1 Bft) S-SW 200 0 min 0,000 mm 0,0 UV-I 0 W/m 12,1 C 14,2 C 6,4 km/h (2 Bft) 100,00 %
10.09.2018 00:24 14,2 C 21,1 C 12,8 C 87 % 1021,3 hPa 0,0 l/m 0,5 km/h (0 Bft) S-SW 193 0 min 0,000 mm 0,0 UV-I 0 W/m 12,1 C 14,2 C 3,2 km/h (1 Bft) 95,74 %
10.09.2018 00:26 14,2 C 21,1 C 12,8 C 87 % 1021,3 hPa 0,0 l/m 0,3 km/h (0 Bft) S-SW 206 0 min 0,000 mm 0,0 UV-I 0 W/m 12,1 C 14,2 C 3,2 km/h (1 Bft) 97,92 %
10.09.2018 00:28 14,1 C 21,1 C 12,8 C 87 % 1021,3 hPa 0,0 l/m 0,0 km/h (0 Bft) S-SW 211 0 min 0,000 mm 0,0 UV-I 0 W/m 12,0 C 14,1 C 0,0 km/h (0 Bft) 97,87 %
10.09.2018 00:30 14,0 C 21,1 C 12,8 C 87 % 1021,3 hPa 0,0 l/m 0,2 km/h (0 Bft) S-SW 207 0 min 0,000 mm 0,0 UV-I 0 W/m 11,9 C 14,0 C 3,2 km/h (1 Bft) 98,00 %
10.09.2018 00:32 13,9 C 21,1 C 12,8 C 88 % 1021,3 hPa 0,0 l/m 0,5 km/h (0 Bft) S-SW 198 0 min 0,000 mm 0,0 UV-I 0 W/m 11,9 C 13,9 C 3,2 km/h (1 Bft) 96,00 %
10.09.2018 00:34 13,9 C 21,1 C 12,8 C 88 % 1021,4 hPa 0,0 l/m 1,2 km/h (1 Bft) SW 214 0 min 0,000 mm 0,0 UV-I 0 W/m 11,9 C 13,9 C 4,8 km/h (1 Bft) 98,00 %
10.09.2018 00:36 13,9 C 21,1 C 12,8 C 88 % 1021,4 hPa 0,0 l/m 0,8 km/h (0 Bft) S-SW 208 0 min 0,000 mm 0,0 UV-I 0 W/m 11,9 C 13,9 C 4,8 km/h (1 Bft) 93,62 %
10.09.2018 00:38 13,9 C 21,1 C 12,8 C 88 % 1021,3 hPa 0,0 l/m 0,2 km/h (0 Bft) S-SW 198 0 min 0,000 mm 0,0 UV-I 0 W/m 11,9 C 13,9 C 1,6 km/h (1 Bft) 97,87 %
10.09.2018 00:40 14,0 C 21,1 C 12,8 C 88 % 1021,3 hPa 0,0 l/m 0,6 km/h (0 Bft) S 191 0 min 0,000 mm 0,0 UV-I 0 W/m 12,0 C 14,0 C 3,2 km/h (1 Bft) 97,14 %
10.09.2018 00:42 14,1 C 21,1 C 12,8 C 88 % 1021,3 hPa 0,0 l/m 1,2 km/h (1 Bft) S-SW 195 0 min 0,000 mm 0,0 UV-I 0 W/m 12,1 C 14,1 C 4,8 km/h (1 Bft) 96,00 %
10.09.2018 00:44 14,1 C 21,1 C 12,8 C 87 % 1021,2 hPa 0,0 l/m 1,9 km/h (1 Bft) S 191 0 min 0,000 mm 0,0 UV-I 0 W/m 12,0 C 14,1 C 6,4 km/h (2 Bft) 95,74 %
10.09.2018 00:46 14,2 C 21,1 C 12,8 C 87 % 1021,2 hPa 0,0 l/m 1,2 km/h (1 Bft) S-SW 204 0 min 0,000 mm 0,0 UV-I 0 W/m 12,1 C 14,2 C 4,8 km/h (1 Bft) 93,62 %
10.09.2018 00:48 14,2 C 21,1 C 12,8 C 87 % 1021,2 hPa 0,0 l/m 0,0 km/h (0 Bft) S-SW 203 0 min 0,000 mm 0,0 UV-I 0 W/m 12,1 C 14,2 C 0,0 km/h (0 Bft) 97,87 %
10.09.2018 00:50 14,2 C 21,1 C 12,2 C 87 % 1021,2 hPa 0,0 l/m 0,0 km/h (0 Bft) S-SW 205 0 min 0,000 mm 0,0 UV-I 0 W/m 12,1 C 14,2 C 1,6 km/h (1 Bft) 96,00 %
10.09.2018 00:52 14,3 C 21,1 C 12,2 C 87 % 1021,2 hPa 0,0 l/m 0,3 km/h (0 Bft) S-SW 205 0 min 0,000 mm 0,0 UV-I 0 W/m 12,2 C 14,3 C 3,2 km/h (1 Bft) 95,74 %
10.09.2018 00:54 14,2 C 21,1 C 12,2 C 87 % 1021,2 hPa 0,0 l/m 0,0 km/h (0 Bft) S-SW 206 0 min 0,000 mm 0,0 UV-I 0 W/m 12,1 C 14,2 C 0,0 km/h (0 Bft) 95,74 %
10.09.2018 00:56 14,2 C 21,1 C 11,7 C 87 % 1021,2 hPa 0,0 l/m 0,0 km/h (0 Bft) S-SW 205 0 min 0,000 mm 0,0 UV-I 0 W/m 12,1 C 14,2 C 0,0 km/h (0 Bft) 93,62 %
10.09.2018 00:58 14,2 C 21,1 C 11,7 C 87 % 1021,2 hPa 0,0 l/m 0,0 km/h (0 Bft) S-SW 205 0 min 0,000 mm 0,0 UV-I 0 W/m 12,1 C 14,2 C 0,0 km/h (0 Bft) 95,74 %
10.09.2018 01:00 14,2 C 21,1 C 11,7 C 87 % 1021,3 hPa 0,0 l/m 0,0 km/h (0 Bft) S-SW 205 0 min 0,000 mm 0,0 UV-I 0 W/m 12,1 C 14,2 C 0,0 km/h (0 Bft) 95,74 %
10.09.2018 01:01 14,1 C 21,1 C 11,1 C 87 % 1021,3 hPa 0,0 l/m 0,0 km/h (0 Bft) S-SW 205 0 min 0,000 mm 0,0 UV-I 0 W/m 12,0 C 14,1 C 0,0 km/h (0 Bft) 95,74 %
10.09.2018 01:04 14,0 C 21,1 C 11,1 C 87 % 1021,3 hPa 0,0 l/m 0,0 km/h (0 Bft) S-SW 205 0 min 0,000 mm 0,0 UV-I 0 W/m 11,9 C 14,0 C 0,0 km/h (0 Bft) 94,00 %
10.09.2018 01:06 13,8 C 21,1 C 11,1 C 87 % 1021,3 hPa 0,0 l/m 0,0 km/h (0 Bft) S-SW 208 0 min 0,000 mm 0,0 UV-I 0 W/m 11,7 C 13,8 C 0,0 km/h (0 Bft) 95,74 %
10.09.2018 01:08 13,8 C 21,1 C 11,1 C 87 % 1021,2 hPa 0,0 l/m 0,0 km/h (0 Bft) S-SW 208 0 min 0,000 mm 0,0 UV-I 0 W/m 11,7 C 13,8 C 0,0 km/h (0 Bft) 95,74 %
10.09.2018 01:10 13,7 C 21,1 C 11,1 C 88 % 1021,2 hPa 0,0 l/m 0,0 km/h (0 Bft) S-SW 208 0 min 0,000 mm 0,0 UV-I 0 W/m 11,7 C 13,7 C 0,0 km/h (0 Bft) 97,92 %
10.09.2018 01:12 13,7 C 21,1 C 11,1 C 88 % 1021,2 hPa 0,0 l/m 0,0 km/h (0 Bft) S-SW 208 0 min 0,000 mm 0,0 UV-I 0 W/m 11,7 C 13,7 C 0,0 km/h (0 Bft) 97,87 %
10.09.2018 01:14 13,6 C 21,1 C 11,1 C 88 % 1021,2 hPa 0,0 l/m 0,0 km/h (0 Bft) S-SW 209 0 min 0,000 mm 0,0 UV-I 0 W/m 11,6 C 13,6 C 0,0 km/h (0 Bft) 97,14 %
10.09.2018 01:16 13,6 C 21,1 C 11,1 C 88 % 1021,2 hPa 0,0 l/m 0,0 km/h (0 Bft) S-SW 209 0 min 0,000 mm 0,0 UV-I 0 W/m 11,6 C 13,6 C 0,0 km/h (0 Bft) 97,87 %
10.09.2018 01:18 13,5 C 21,1 C 11,1 C 88 % 1021,2 hPa 0,0 l/m 0,0 km/h (0 Bft) S-SW 209 0 min 0,000 mm 0,0 UV-I 0 W/m 11,6 C 13,5 C 0,0 km/h (0 Bft) 97,87 %
10.09.2018 01:20 13,4 C 21,1 C 11,7 C 89 % 1021,3 hPa 0,0 l/m 0,0 km/h (0 Bft) S-SW 209 0 min 0,000 mm 0,0 UV-I 0 W/m 11,6 C 13,4 C 0,0 km/h (0 Bft) 97,87 %
10.09.2018 01:22 13,3 C 21,1 C 11,7 C 88 % 1021,2 hPa 0,0 l/m 0,0 km/h (0 Bft) S-SW 209 0 min 0,000 mm 0,0 UV-I 0 W/m 11,4 C 13,3 C 0,0 km/h (0 Bft) 95,74 %
10.09.2018 01:24 13,1 C 21,1 C 11,1 C 88 % 1021,3 hPa 0,0 l/m 0,0 km/h (0 Bft) S-SW 209 0 min 0,000 mm 0,0 UV-I 0 W/m 11,2 C 13,1 C 0,0 km/h (0 Bft) 97,87 %
10.09.2018 01:26 12,8 C 21,1 C 11,1 C 89 % 1021,3 hPa 0,0 l/m 0,0 km/h (0 Bft) W 264 0 min 0,000 mm 0,0 UV-I 0 W/m 11,0 C 12,8 C 0,0 km/h (0 Bft) 93,62 %
10.09.2018 01:28 12,6 C 21,1 C 11,1 C 90 % 1021,4 hPa 0,0 l/m 0,0 km/h (0 Bft) W 264 0 min 0,000 mm 0,0 UV-I 0 W/m 11,0 C 12,6 C 0,0 km/h (0 Bft) 97,87 %
10.09.2018 01:30 12,5 C 21,1 C 10,6 C 90 % 1021,5 hPa 0,0 l/m 0,0 km/h (0 Bft) W-NW 289 0 min 0,000 mm 0,0 UV-I 0 W/m 10,9 C 12,5 C 0,0 km/h (0 Bft) 97,87 %
10.09.2018 01:32 12,6 C 21,1 C 10,6 C 91 % 1021,5 hPa 0,0 l/m 0,0 km/h (0 Bft) W-NW 294 0 min 0,000 mm 0,0 UV-I 0 W/m 11,2 C 12,6 C 0,0 km/h (0 Bft) 97,87 %
10.09.2018 01:34 12,8 C 21,1 C 10,6 C 92 % 1021,4 hPa 0,0 l/m 0,0 km/h (0 Bft) W-NW 295 0 min 0,000 mm 0,0 UV-I 0 W/m 11,5 C 12,8 C 0,0 km/h (0 Bft) 97,87 %
10.09.2018 01:36 12,9 C 21,1 C 10,6 C 91 % 1021,4 hPa 0,0 l/m 0,0 km/h (0 Bft) W-NW 295 0 min 0,000 mm 0,0 UV-I 0 W/m 11,5 C 12,9 C 0,0 km/h (0 Bft) 100,00 %
10.09.2018 01:38 13,0 C 21,1 C 10,6 C 91 % 1021,3 hPa 0,0 l/m 0,0 km/h (0 Bft) W-NW 295 0 min 0,000 mm 0,0 UV-I 0 W/m 11,6 C 13,0 C 0,0 km/h (0 Bft) 100,00 %
10.09.2018 01:40 13,0 C 21,1 C 10,6 C 90 % 1021,4 hPa 0,0 l/m 0,0 km/h (0 Bft) W-NW 295 0 min 0,000 mm 0,0 UV-I 0 W/m 11,4 C 13,0 C 0,0 km/h (0 Bft) 100,00 %
10.09.2018 01:42 12,9 C 21,1 C 10,6 C 89 % 1021,4 hPa 0,0 l/m 0,0 km/h (0 Bft) W-NW 294 0 min 0,000 mm 0,0 UV-I 0 W/m 11,1 C 12,9 C 0,0 km/h (0 Bft) 100,00 %
10.09.2018 01:44 12,6 C 21,1 C 10,6 C 89 % 1021,4 hPa 0,0 l/m 0,0 km/h (0 Bft) W-NW 294 0 min 0,000 mm 0,0 UV-I 0 W/m 10,8 C 12,6 C 0,0 km/h (0 Bft) 100,00 %
10.09.2018 01:46 12,4 C 21,1 C 10,6 C 90 % 1021,4 hPa 0,0 l/m 0,0 km/h (0 Bft) W-NW 294 0 min 0,000 mm 0,0 UV-I 0 W/m 10,8 C 12,4 C 0,0 km/h (0 Bft) 100,00 %
10.09.2018 01:48 12,5 C 21,1 C 10,0 C 91 % 1021,4 hPa 0,0 l/m 0,0 km/h (0 Bft) W-NW 294 0 min 0,000 mm 0,0 UV-I 0 W/m 11,1 C 12,5 C 0,0 km/h (0 Bft) 97,87 %
10.09.2018 01:50 12,6 C 21,1 C 10,6 C 91 % 1021,4 hPa 0,0 l/m 0,0 km/h (0 Bft) W-NW 294 0 min 0,000 mm 0,0 UV-I 0 W/m 11,2 C 12,6 C 0,0 km/h (0 Bft) 100,00 %
10.09.2018 01:52 12,5 C 21,1 C 10,6 C 90 % 1021,4 hPa 0,0 l/m 0,0 km/h (0 Bft) W-NW 294 0 min 0,000 mm 0,0 UV-I 0 W/m 10,9 C 12,5 C 0,0 km/h (0 Bft) 100,00 %
10.09.2018 01:54 12,3 C 21,1 C 10,6 C 90 % 1021,5 hPa 0,0 l/m 0,0 km/h (0 Bft) W-NW 294 0 min 0,000 mm 0,0 UV-I 0 W/m 10,7 C 12,3 C 0,0 km/h (0 Bft) 97,87 %
10.09.2018 01:56 12,3 C 21,1 C 10,6 C 91 % 1021,5 hPa 0,0 l/m 0,0 km/h (0 Bft) SW 225 0 min 0,000 mm 0,0 UV-I 0 W/m 10,9 C 12,3 C 0,0 km/h (0 Bft) 97,87 %
10.09.2018 01:58 12,4 C 21,1 C 10,6 C 91 % 1021,5 hPa 0,0 l/m 0,2 km/h (0 Bft) SW 225 0 min 0,000 mm 0,0 UV-I 0 W/m 11,0 C 12,4 C 3,2 km/h (1 Bft) 100,00 %
10.09.2018 02:00 12,4 C 21,1 C 11,1 C 91 % 1021,5 hPa 0,0 l/m 5,0 km/h (1 Bft) SW 218 0 min 0,000 mm 0,0 UV-I 0 W/m 11,0 C 12,4 C 9,7 km/h (2 Bft) 96,23 %
10.09.2018 02:02 12,4 C 21,1 C 11,1 C 91 % 1021,5 hPa 0,0 l/m 4,6 km/h (1 Bft) SW 229 0 min 0,000 mm 0,0 UV-I 0 W/m 11,0 C 12,4 C 8,0 km/h (2 Bft) 97,87 %
10.09.2018 02:04 12,4 C 21,1 C 11,1 C 91 % 1021,5 hPa 0,0 l/m 1,7 km/h (1 Bft) SW 236 0 min 0,000 mm 0,0 UV-I 0 W/m 11,0 C 12,4 C 6,4 km/h (2 Bft) 95,74 %
10.09.2018 02:06 12,4 C 21,1 C 11,1 C 91 % 1021,5 hPa 0,0 l/m 0,6 km/h (0 Bft) SW 218 0 min 0,000 mm 0,0 UV-I 0 W/m 11,0 C 12,4 C 4,8 km/h (1 Bft) 93,62 %
10.09.2018 02:08 12,6 C 21,1 C 11,1 C 92 % 1021,4 hPa 0,0 l/m 3,4 km/h (1 Bft) SW 232 0 min 0,000 mm 0,0 UV-I 0 W/m 11,3 C 12,6 C 8,0 km/h (2 Bft) 95,74 %
10.09.2018 02:10 12,8 C 21,1 C 11,7 C 92 % 1021,4 hPa 0,0 l/m 3,7 km/h (1 Bft) SW 216 0 min 0,000 mm 0,0 UV-I 0 W/m 11,5 C 12,8 C 9,7 km/h (2 Bft) 95,74 %
10.09.2018 02:12 12,8 C 21,1 C 11,7 C 91 % 1021,4 hPa 0,0 l/m 1,1 km/h (1 Bft) S-SW 203 0 min 0,000 mm 0,0 UV-I 0 W/m 11,4 C 12,8 C 4,8 km/h (1 Bft) 97,87 %
10.09.2018 02:14 12,8 C 21,1 C 11,7 C 91 % 1021,4 hPa 0,0 l/m 0,0 km/h (0 Bft) S-SW 196 0 min 0,000 mm 0,0 UV-I 0 W/m 11,4 C 12,8 C 0,0 km/h (0 Bft) 95,74 %
10.09.2018 02:16 12,8 C 21,1 C 11,7 C 91 % 1021,4 hPa 0,0 l/m 0,0 km/h (0 Bft) S-SW 196 0 min 0,000 mm 0,0 UV-I 0 W/m 11,4 C 12,8 C 0,0 km/h (0 Bft) 94,74 %
10.09.2018 02:18 12,8 C 21,1 C 11,1 C 91 % 1021,4 hPa 0,0 l/m 0,3 km/h (0 Bft) S-SW 195 0 min 0,000 mm 0,0 UV-I 0 W/m 11,4 C 12,8 C 1,6 km/h (1 Bft) 95,83 %
10.09.2018 02:20 12,8 C 21,1 C 11,1 C 90 % 1021,3 hPa 0,0 l/m 0,0 km/h (0 Bft) S-SW 195 0 min 0,000 mm 0,0 UV-I 0 W/m 11,2 C 12,8 C 0,0 km/h (0 Bft) 95,74 %
10.09.2018 02:22 12,8 C 21,1 C 11,1 C 90 % 1021,4 hPa 0,0 l/m 0,0 km/h (0 Bft) S-SW 195 0 min 0,000 mm 0,0 UV-I 0 W/m 11,2 C 12,8 C 0,0 km/h (0 Bft) 95,74 %
10.09.2018 02:24 12,7 C 21,1 C 11,1 C 90 % 1021,4 hPa 0,0 l/m 0,0 km/h (0 Bft) S-SW 195 0 min 0,000 mm 0,0 UV-I 0 W/m 11,1 C 12,7 C 0,0 km/h (0 Bft) 95,74 %
10.09.2018 02:26 12,6 C 21,1 C 11,1 C 90 % 1021,4 hPa 0,0 l/m 0,0 km/h (0 Bft) S-SW 195 0 min 0,000 mm 0,0 UV-I 0 W/m 11,0 C 12,6 C 0,0 km/h (0 Bft) 97,87 %
10.09.2018 02:28 12,3 C 21,1 C 11,1 C 90 % 1021,4 hPa 0,0 l/m 0,0 km/h (0 Bft) S-SW 195 0 min 0,000 mm 0,0 UV-I 0 W/m 10,7 C 12,3 C 0,0 km/h (0 Bft) 93,62 %
10.09.2018 02:30 12,4 C 21,1 C 11,1 C 91 % 1021,4 hPa 0,0 l/m 0,8 km/h (0 Bft) S-SW 195 0 min 0,000 mm 0,0 UV-I 0 W/m 11,0 C 12,4 C 4,8 km/h (1 Bft) 97,87 %
10.09.2018 02:32 12,6 C 21,1 C 11,1 C 91 % 1021,5 hPa 0,0 l/m 1,2 km/h (1 Bft) S-SW 205 0 min 0,000 mm 0,0 UV-I 0 W/m 11,2 C 12,6 C 4,8 km/h (1 Bft) 97,87 %
10.09.2018 02:34 12,7 C 21,1 C 11,1 C 91 % 1021,4 hPa 0,0 l/m 1,8 km/h (1 Bft) S-SW 196 0 min 0,000 mm 0,0 UV-I 0 W/m 11,3 C 12,7 C 6,4 km/h (2 Bft) 98,00 %
10.09.2018 02:36 12,8 C 21,1 C 11,7 C 91 % 1021,5 hPa 0,0 l/m 1,6 km/h (1 Bft) S 190 0 min 0,000 mm 0,0 UV-I 0 W/m 11,4 C 12,8 C 6,4 km/h (2 Bft) 98,00 %
10.09.2018 02:38 12,8 C 21,1 C 11,7 C 91 % 1021,5 hPa 0,0 l/m 2,5 km/h (1 Bft) S 188 0 min 0,000 mm 0,0 UV-I 0 W/m 11,4 C 12,8 C 4,8 km/h (1 Bft) 97,87 %
10.09.2018 02:40 12,9 C 21,1 C 11,7 C 90 % 1021,4 hPa 0,0 l/m 1,4 km/h (1 Bft) S 188 0 min 0,000 mm 0,0 UV-I 0 W/m 11,3 C 12,9 C 4,8 km/h (1 Bft) 100,00 %
10.09.2018 02:42 12,9 C 21,1 C 11,7 C 90 % 1021,4 hPa 0,0 l/m 0,9 km/h (0 Bft) S 189 0 min 0,000 mm 0,0 UV-I 0 W/m 11,3 C 12,9 C 3,2 km/h (1 Bft) 100,00 %
10.09.2018 02:44 12,8 C 21,1 C 11,7 C 90 % 1021,5 hPa 0,0 l/m 0,4 km/h (0 Bft) S-SW 192 0 min 0,000 mm 0,0 UV-I 0 W/m 11,2 C 12,8 C 3,2 km/h (1 Bft) 100,00 %
10.09.2018 02:46 12,8 C 21,1 C 11,7 C 90 % 1021,5 hPa 0,0 l/m 0,9 km/h (0 Bft) S-SW 199 0 min 0,000 mm 0,0 UV-I 0 W/m 11,2 C 12,8 C 4,8 km/h (1 Bft) 97,37 %
10.09.2018 02:48 12,9 C 21,1 C 11,7 C 90 % 1021,5 hPa 0,0 l/m 0,3 km/h (0 Bft) S-SW 195 0 min 0,000 mm 0,0 UV-I 0 W/m 11,3 C 12,9 C 3,2 km/h (1 Bft) 97,87 %
10.09.2018 02:50 12,9 C 21,1 C 11,7 C 90 % 1021,5 hPa 0,0 l/m 0,0 km/h (0 Bft) S-SW 201 0 min 0,000 mm 0,0 UV-I 0 W/m 11,3 C 12,9 C 0,0 km/h (0 Bft) 100,00 %
10.09.2018 02:52 12,9 C 21,1 C 11,7 C 90 % 1021,5 hPa 0,0 l/m 0,0 km/h (0 Bft) S-SW 205 0 min 0,000 mm 0,0 UV-I 0 W/m 11,3 C 12,9 C 0,0 km/h (0 Bft) 100,00 %
10.09.2018 02:54 12,8 C 21,1 C 11,1 C 90 % 1021,5 hPa 0,0 l/m 0,0 km/h (0 Bft) S-SW 205 0 min 0,000 mm 0,0 UV-I 0 W/m 11,2 C 12,8 C 0,0 km/h (0 Bft) 100,00 %
10.09.2018 02:56 12,7 C 21,1 C 11,1 C 90 % 1021,5 hPa 0,0 l/m 0,0 km/h (0 Bft) S-SW 206 0 min 0,000 mm 0,0 UV-I 0 W/m 11,1 C 12,7 C 0,0 km/h (0 Bft) 100,00 %
10.09.2018 02:58 12,6 C 21,1 C 11,1 C 90 % 1021,5 hPa 0,0 l/m 0,0 km/h (0 Bft) S-SW 213 0 min 0,000 mm 0,0 UV-I 0 W/m 11,0 C 12,6 C 0,0 km/h (0 Bft) 97,87 %
10.09.2018 03:00 12,3 C 21,1 C 10,6 C 90 % 1021,5 hPa 0,0 l/m 0,0 km/h (0 Bft) SW 219 0 min 0,000 mm 0,0 UV-I 0 W/m 10,7 C 12,3 C 0,0 km/h (0 Bft) 100,00 %
10.09.2018 03:02 12,1 C 21,1 C 10,6 C 90 % 1021,5 hPa 0,0 l/m 0,0 km/h (0 Bft) SW 219 0 min 0,000 mm 0,0 UV-I 0 W/m 10,5 C 12,1 C 0,0 km/h (0 Bft) 97,92 %
10.09.2018 03:04 12,0 C 21,1 C 10,6 C 91 % 1021,5 hPa 0,0 l/m 1,3 km/h (1 Bft) SW 214 0 min 0,000 mm 0,0 UV-I 0 W/m 10,6 C 12,0 C 4,8 km/h (1 Bft) 100,00 %
10.09.2018 03:06 11,9 C 21,1 C 10,6 C 92 % 1021,5 hPa 0,0 l/m 0,0 km/h (0 Bft) SW 221 0 min 0,000 mm 0,0 UV-I 0 W/m 10,6 C 11,9 C 1,6 km/h (1 Bft) 100,00 %
10.09.2018 03:08 11,9 C 21,1 C 10,6 C 92 % 1021,5 hPa 0,0 l/m 2,8 km/h (1 Bft) SW 220 0 min 0,000 mm 0,0 UV-I 0 W/m 10,6 C 11,9 C 4,8 km/h (1 Bft) 97,87 %
10.09.2018 03:10 11,9 C 21,1 C 10,6 C 92 % 1021,5 hPa 0,0 l/m 4,3 km/h (1 Bft) S-SW 198 0 min 0,000 mm 0,0 UV-I 0 W/m 10,6 C 11,9 C 6,4 km/h (2 Bft) 97,87 %
10.09.2018 03:12 11,9 C 21,1 C 10,6 C 92 % 1021,5 hPa 0,0 l/m 2,5 km/h (1 Bft) S-SW 207 0 min 0,000 mm 0,0 UV-I 0 W/m 10,6 C 11,9 C 4,8 km/h (1 Bft) 97,87 %
10.09.2018 03:14 12,1 C 21,1 C 11,1 C 92 % 1021,5 hPa 0,0 l/m 2,5 km/h (1 Bft) SW 219 0 min 0,000 mm 0,0 UV-I 0 W/m 10,8 C 12,1 C 8,0 km/h (2 Bft) 97,87 %
10.09.2018 03:16 12,2 C 21,1 C 11,1 C 92 % 1021,5 hPa 0,0 l/m 2,8 km/h (1 Bft) SW 215 0 min 0,000 mm 0,0 UV-I 0 W/m 10,9 C 12,2 C 6,4 km/h (2 Bft) 100,00 %
10.09.2018 03:18 12,3 C 21,1 C 11,1 C 92 % 1021,5 hPa 0,0 l/m 3,3 km/h (1 Bft) S-SW 209 0 min 0,000 mm 0,0 UV-I 0 W/m 11,0 C 12,3 C 4,8 km/h (1 Bft) 97,87 %
10.09.2018 03:20 12,3 C 21,1 C 11,1 C 92 % 1021,4 hPa 0,0 l/m 1,8 km/h (1 Bft) S-SW 205 0 min 0,000 mm 0,0 UV-I 0 W/m 11,0 C 12,3 C 4,8 km/h (1 Bft) 100,00 %
10.09.2018 03:22 12,4 C 21,1 C 11,1 C 92 % 1021,4 hPa 0,0 l/m 0,1 km/h (0 Bft) S-SW 204 0 min 0,000 mm 0,0 UV-I 0 W/m 11,1 C 12,4 C 3,2 km/h (1 Bft) 95,74 %
10.09.2018 03:24 12,4 C 21,1 C 11,1 C 91 % 1021,4 hPa 0,0 l/m 0,0 km/h (0 Bft) S-SW 204 0 min 0,000 mm 0,0 UV-I 0 W/m 11,0 C 12,4 C 0,0 km/h (0 Bft) 97,87 %
10.09.2018 03:26 12,4 C 21,1 C 10,6 C 91 % 1021,4 hPa 0,0 l/m 0,0 km/h (0 Bft) S-SW 204 0 min 0,000 mm 0,0 UV-I 0 W/m 11,0 C 12,4 C 0,0 km/h (0 Bft) 93,62 %
10.09.2018 03:28 12,4 C 21,1 C 10,6 C 91 % 1021,5 hPa 0,0 l/m 0,0 km/h (0 Bft) S-SW 204 0 min 0,000 mm 0,0 UV-I 0 W/m 11,0 C 12,4 C 0,0 km/h (0 Bft) 95,74 %
10.09.2018 03:30 12,4 C 21,1 C 10,0 C 91 % 1021,5 hPa 0,0 l/m 0,0 km/h (0 Bft) S-SW 204 0 min 0,000 mm 0,0 UV-I 0 W/m 11,0 C 12,4 C 0,0 km/h (0 Bft) 97,87 %
10.09.2018 03:32 12,4 C 21,1 C 10,0 C 91 % 1021,5 hPa 0,0 l/m 0,0 km/h (0 Bft) S-SW 204 0 min 0,000 mm 0,0 UV-I 0 W/m 11,0 C 12,4 C 0,0 km/h (0 Bft) 97,87 %
10.09.2018 03:34 12,4 C 21,1 C 9,4 C 91 % 1021,4 hPa 0,0 l/m 0,0 km/h (0 Bft) S-SW 204 0 min 0,000 mm 0,0 UV-I 0 W/m 11,0 C 12,4 C 0,0 km/h (0 Bft) 95,74 %
10.09.2018 03:36 12,4 C 21,1 C 9,4 C 91 % 1021,4 hPa 0,0 l/m 0,0 km/h (0 Bft) S-SW 204 0 min 0,000 mm 0,0 UV-I 0 W/m 11,0 C 12,4 C 0,0 km/h (0 Bft) 95,83 %
10.09.2018 03:38 12,4 C 21,1 C 10,0 C 91 % 1021,4 hPa 0,0 l/m 0,0 km/h (0 Bft) S-SW 204 0 min 0,000 mm 0,0 UV-I 0 W/m 11,0 C 12,4 C 0,0 km/h (0 Bft) 95,74 %
10.09.2018 03:40 12,3 C 21,1 C 10,0 C 91 % 1021,4 hPa 0,0 l/m 0,0 km/h (0 Bft) S-SW 204 0 min 0,000 mm 0,0 UV-I 0 W/m 10,9 C 12,3 C 0,0 km/h (0 Bft) 98,00 %
10.09.2018 03:42 12,2 C 21,1 C 10,0 C 91 % 1021,4 hPa 0,0 l/m 0,0 km/h (0 Bft) S-SW 204 0 min 0,000 mm 0,0 UV-I 0 W/m 10,8 C 12,2 C 0,0 km/h (0 Bft) 97,87 %
10.09.2018 03:44 12,1 C 21,1 C 9,4 C 91 % 1021,4 hPa 0,0 l/m 0,0 km/h (0 Bft) S-SW 204 0 min 0,000 mm 0,0 UV-I 0 W/m 10,7 C 12,1 C 0,0 km/h (0 Bft) 97,87 %
10.09.2018 03:46 12,0 C 21,1 C 9,4 C 91 % 1021,4 hPa 0,0 l/m 0,0 km/h (0 Bft) S-SW 204 0 min 0,000 mm 0,0 UV-I 0 W/m 10,6 C 12,0 C 0,0 km/h (0 Bft) 97,87 %
10.09.2018 03:48 11,9 C 20,6 C 9,4 C 91 % 1021,4 hPa 0,0 l/m 0,0 km/h (0 Bft) S-SW 204 0 min 0,000 mm 0,0 UV-I 0 W/m 10,5 C 11,9 C 0,0 km/h (0 Bft) 94,00 %
10.09.2018 03:50 11,9 C 20,6 C 8,9 C 92 % 1021,4 hPa 0,0 l/m 0,0 km/h (0 Bft) S-SW 204 0 min 0,000 mm 0,0 UV-I 0 W/m 10,6 C 11,9 C 0,0 km/h (0 Bft) 95,74 %
10.09.2018 03:52 11,9 C 20,6 C 8,9 C 92 % 1021,4 hPa 0,0 l/m 0,0 km/h (0 Bft) S-SW 204 0 min 0,000 mm 0,0 UV-I 0 W/m 10,6 C 11,9 C 0,0 km/h (0 Bft) 97,87 %
10.09.2018 03:54 12,0 C 20,6 C 8,9 C 92 % 1021,4 hPa 0,0 l/m 0,0 km/h (0 Bft) S-SW 204 0 min 0,000 mm 0,0 UV-I 0 W/m 10,7 C 12,0 C 0,0 km/h (0 Bft) 97,37 %
10.09.2018 03:56 11,9 C 20,6 C 9,4 C 92 % 1021,4 hPa 0,0 l/m 0,0 km/h (0 Bft) S-SW 204 0 min 0,000 mm 0,0 UV-I 0 W/m 10,6 C 11,9 C 0,0 km/h (0 Bft) 95,74 %
10.09.2018 03:58 11,8 C 20,6 C 9,4 C 91 % 1021,3 hPa 0,0 l/m 0,0 km/h (0 Bft) S-SW 204 0 min 0,000 mm 0,0 UV-I 0 W/m 10,4 C 11,8 C 0,0 km/h (0 Bft) 97,87 %
10.09.2018 04:00 11,7 C 21,1 C 9,4 C 91 % 1021,3 hPa 0,0 l/m 0,0 km/h (0 Bft) S-SW 204 0 min 0,000 mm 0,0 UV-I 0 W/m 10,3 C 11,7 C 0,0 km/h (0 Bft) 97,87 %
10.09.2018 04:02 11,6 C 20,6 C 9,4 C 92 % 1021,4 hPa 0,0 l/m 0,0 km/h (0 Bft) S-SW 204 0 min 0,000 mm 0,0 UV-I 0 W/m 10,3 C 11,6 C 0,0 km/h (0 Bft) 93,33 %
10.09.2018 04:04 11,6 C 20,6 C 9,4 C 92 % 1021,3 hPa 0,0 l/m 0,0 km/h (0 Bft) S-SW 204 0 min 0,000 mm 0,0 UV-I 0 W/m 10,3 C 11,6 C 0,0 km/h (0 Bft) 95,74 %
10.09.2018 04:06 11,6 C 20,6 C 9,4 C 92 % 1021,3 hPa 0,0 l/m 0,0 km/h (0 Bft) S-SW 204 0 min 0,000 mm 0,0 UV-I 0 W/m 10,3 C 11,6 C 0,0 km/h (0 Bft) 97,87 %
10.09.2018 04:08 11,8 C 20,6 C 9,4 C 93 % 1021,3 hPa 0,0 l/m 0,0 km/h (0 Bft) S-SW 204 0 min 0,000 mm 0,0 UV-I 0 W/m 10,7 C 11,8 C 0,0 km/h (0 Bft) 91,49 %
10.09.2018 04:10 11,8 C 20,6 C 9,4 C 93 % 1021,3 hPa 0,0 l/m 0,0 km/h (0 Bft) S-SW 204 0 min 0,000 mm 0,0 UV-I 0 W/m 10,7 C 11,8 C 0,0 km/h (0 Bft) 95,74 %
10.09.2018 04:12 11,8 C 20,6 C 9,4 C 92 % 1021,2 hPa 0,0 l/m 0,0 km/h (0 Bft) S-SW 204 0 min 0,000 mm 0,0 UV-I 0 W/m 10,5 C 11,8 C 0,0 km/h (0 Bft) 95,74 %
10.09.2018 04:14 11,7 C 20,6 C 10,0 C 92 % 1021,3 hPa 0,0 l/m 0,0 km/h (0 Bft) S-SW 204 0 min 0,000 mm 0,0 UV-I 0 W/m 10,4 C 11,7 C 0,0 km/h (0 Bft) 91,49 %
10.09.2018 04:16 11,4 C 20,6 C 10,0 C 92 % 1021,2 hPa 0,0 l/m 0,0 km/h (0 Bft) S-SW 204 0 min 0,000 mm 0,0 UV-I 0 W/m 10,1 C 11,4 C 0,0 km/h (0 Bft) 96,00 %
10.09.2018 04:18 11,4 C 20,6 C 10,0 C 92 % 1021,2 hPa 0,0 l/m 0,1 km/h (0 Bft) S-SW 197 0 min 0,000 mm 0,0 UV-I 0 W/m 10,1 C 11,4 C 1,6 km/h (1 Bft) 93,75 %
10.09.2018 04:20 11,4 C 20,6 C 10,0 C 92 % 1021,2 hPa 0,0 l/m 1,2 km/h (1 Bft) S-SW 194 0 min 0,000 mm 0,0 UV-I 0 W/m 10,1 C 11,4 C 4,8 km/h (1 Bft) 95,74 %
10.09.2018 04:22 11,4 C 20,6 C 10,0 C 92 % 1021,2 hPa 0,0 l/m 2,4 km/h (1 Bft) S-SW 205 0 min 0,000 mm 0,0 UV-I 0 W/m 10,1 C 11,4 C 6,4 km/h (2 Bft) 93,62 %
10.09.2018 04:24 11,5 C 20,6 C 10,0 C 93 % 1021,1 hPa 0,0 l/m 0,0 km/h (0 Bft) S-SW 205 0 min 0,000 mm 0,0 UV-I 0 W/m 10,4 C 11,5 C 0,0 km/h (0 Bft) 91,49 %
10.09.2018 04:26 11,7 C 20,6 C 10,0 C 93 % 1021,1 hPa 0,0 l/m 0,0 km/h (0 Bft) S-SW 205 0 min 0,000 mm 0,0 UV-I 0 W/m 10,6 C 11,7 C 0,0 km/h (0 Bft) 95,74 %
10.09.2018 04:28 11,7 C 20,6 C 9,4 C 93 % 1021,2 hPa 0,0 l/m 0,0 km/h (0 Bft) S-SW 196 0 min 0,000 mm 0,0 UV-I 0 W/m 10,6 C 11,7 C 0,0 km/h (0 Bft) 95,74 %
10.09.2018 04:30 11,8 C 20,6 C 9,4 C 93 % 1021,2 hPa 0,0 l/m 0,0 km/h (0 Bft) S-SW 196 0 min 0,000 mm 0,0 UV-I 0 W/m 10,7 C 11,8 C 0,0 km/h (0 Bft) 94,00 %
10.09.2018 04:32 11,7 C 20,6 C 9,4 C 92 % 1021,2 hPa 0,0 l/m 0,0 km/h (0 Bft) S-SW 196 0 min 0,000 mm 0,0 UV-I 0 W/m 10,4 C 11,7 C 0,0 km/h (0 Bft) 93,62 %
10.09.2018 04:34 11,3 C 20,6 C 9,4 C 91 % 1021,2 hPa 0,0 l/m 0,0 km/h (0 Bft) S-SW 196 0 min 0,000 mm 0,0 UV-I 0 W/m 9,9 C 11,3 C 0,0 km/h (0 Bft) 95,74 %
10.09.2018 04:36 11,0 C 20,6 C 9,4 C 91 % 1021,3 hPa 0,0 l/m 0,0 km/h (0 Bft) N-NO 28 0 min 0,000 mm 0,0 UV-I 0 W/m 9,6 C 11,0 C 0,0 km/h (0 Bft) 95,74 %
10.09.2018 04:38 10,8 C 20,6 C 9,4 C 92 % 1021,2 hPa 0,0 l/m 0,0 km/h (0 Bft) N-NO 28 0 min 0,000 mm 0,0 UV-I 0 W/m 9,6 C 10,8 C 0,0 km/h (0 Bft) 91,49 %
10.09.2018 04:40 10,8 C 20,6 C 9,4 C 93 % 1021,2 hPa 0,0 l/m 0,0 km/h (0 Bft) O-NO 67 0 min 0,000 mm 0,0 UV-I 0 W/m 9,7 C 10,8 C 0,0 km/h (0 Bft) 91,49 %
10.09.2018 04:42 10,7 C 20,6 C 9,4 C 93 % 1021,3 hPa 0,0 l/m 0,0 km/h (0 Bft) O-NO 67 0 min 0,000 mm 0,0 UV-I 0 W/m 9,6 C 10,7 C 0,0 km/h (0 Bft) 94,29 %
10.09.2018 04:44 10,6 C 20,6 C 9,4 C 93 % 1021,3 hPa 0,0 l/m 0,0 km/h (0 Bft) O-NO 67 0 min 0,000 mm 0,0 UV-I 0 W/m 9,5 C 10,6 C 0,0 km/h (0 Bft) 91,49 %
10.09.2018 04:46 10,7 C 20,6 C 9,4 C 94 % 1021,3 hPa 0,0 l/m 0,0 km/h (0 Bft) O-NO 68 0 min 0,000 mm 0,0 UV-I 0 W/m 9,8 C 10,7 C 0,0 km/h (0 Bft) 93,62 %
10.09.2018 04:48 10,9 C 20,6 C 9,4 C 94 % 1021,3 hPa 0,0 l/m 0,0 km/h (0 Bft) O-NO 68 0 min 0,000 mm 0,0 UV-I 0 W/m 10,0 C 10,9 C 0,0 km/h (0 Bft) 95,74 %
10.09.2018 04:50 11,0 C 20,6 C 9,4 C 95 % 1021,3 hPa 0,0 l/m 0,0 km/h (0 Bft) O-NO 68 0 min 0,000 mm 0,0 UV-I 0 W/m 10,2 C 11,0 C 0,0 km/h (0 Bft) 96,00 %
10.09.2018 04:52 10,9 C 20,6 C 9,4 C 94 % 1021,2 hPa 0,0 l/m 0,0 km/h (0 Bft) O-NO 68 0 min 0,000 mm 0,0 UV-I 0 W/m 10,0 C 10,9 C 0,0 km/h (0 Bft) 95,83 %
10.09.2018 04:54 10,9 C 20,6 C 9,4 C 94 % 1021,2 hPa 0,0 l/m 0,0 km/h (0 Bft) O-NO 68 0 min 0,000 mm 0,0 UV-I 0 W/m 10,0 C 10,9 C 0,0 km/h (0 Bft) 96,00 %
10.09.2018 04:56 10,9 C 20,6 C 9,4 C 94 % 1021,2 hPa 0,0 l/m 0,0 km/h (0 Bft) O-NO 68 0 min 0,000 mm 0,0 UV-I 0 W/m 10,0 C 10,9 C 0,0 km/h (0 Bft) 95,74 %
10.09.2018 04:58 10,9 C 20,6 C 8,9 C 94 % 1021,2 hPa 0,0 l/m 0,0 km/h (0 Bft) O-NO 68 0 min 0,000 mm 0,0 UV-I 0 W/m 10,0 C 10,9 C 0,0 km/h (0 Bft) 97,87 %
10.09.2018 05:00 10,7 C 20,6 C 8,9 C 94 % 1021,2 hPa 0,0 l/m 0,0 km/h (0 Bft) O-NO 68 0 min 0,000 mm 0,0 UV-I 0 W/m 9,8 C 10,7 C 0,0 km/h (0 Bft) 97,87 %
10.09.2018 05:02 10,6 C 20,6 C 8,3 C 94 % 1021,2 hPa 0,0 l/m 0,0 km/h (0 Bft) O-NO 68 0 min 0,000 mm 0,0 UV-I 0 W/m 9,7 C 10,6 C 0,0 km/h (0 Bft) 95,74 %
10.09.2018 05:04 10,6 C 20,6 C 8,3 C 94 % 1021,2 hPa 0,0 l/m 0,0 km/h (0 Bft) O-NO 70 0 min 0,000 mm 0,0 UV-I 0 W/m 9,7 C 10,6 C 0,0 km/h (0 Bft) 100,00 %
10.09.2018 05:06 10,6 C 20,6 C 8,3 C 94 % 1021,2 hPa 0,0 l/m 0,0 km/h (0 Bft) O 90 0 min 0,000 mm 0,0 UV-I 0 W/m 9,7 C 10,6 C 0,0 km/h (0 Bft) 100,00 %
10.09.2018 05:08 10,6 C 20,6 C 8,3 C 94 % 1021,2 hPa 0,0 l/m 0,0 km/h (0 Bft) O 92 0 min 0,000 mm 0,0 UV-I 0 W/m 9,7 C 10,6 C 0,0 km/h (0 Bft) 97,14 %
10.09.2018 05:10 10,5 C 20,6 C 8,3 C 94 % 1021,2 hPa 0,0 l/m 0,0 km/h (0 Bft) O 92 0 min 0,000 mm 0,0 UV-I 0 W/m 9,6 C 10,5 C 0,0 km/h (0 Bft) 100,00 %
10.09.2018 05:12 10,6 C 20,6 C 8,3 C 94 % 1021,1 hPa 0,0 l/m 0,0 km/h (0 Bft) O 92 0 min 0,000 mm 0,0 UV-I 0 W/m 9,7 C 10,6 C 0,0 km/h (0 Bft) 100,00 %
10.09.2018 05:14 10,4 C 20,6 C 8,3 C 94 % 1021,1 hPa 0,0 l/m 0,0 km/h (0 Bft) O 92 0 min 0,000 mm 0,0 UV-I 0 W/m 9,5 C 10,4 C 0,0 km/h (0 Bft) 100,00 %
10.09.2018 05:16 10,3 C 20,6 C 8,3 C 94 % 1021,1 hPa 0,0 l/m 0,0 km/h (0 Bft) O 92 0 min 0,000 mm 0,0 UV-I 0 W/m 9,4 C 10,3 C 0,0 km/h (0 Bft) 100,00 %
10.09.2018 05:18 10,3 C 20,6 C 8,3 C 94 % 1021,1 hPa 0,0 l/m 0,0 km/h (0 Bft) O 92 0 min 0,000 mm 0,0 UV-I 0 W/m 9,4 C 10,3 C 0,0 km/h (0 Bft) 100,00 %
10.09.2018 05:20 10,3 C 20,6 C 8,3 C 94 % 1021,1 hPa 0,0 l/m 0,0 km/h (0 Bft) O 92 0 min 0,000 mm 0,0 UV-I 0 W/m 9,4 C 10,3 C 0,0 km/h (0 Bft) 98,00 %
10.09.2018 05:22 10,3 C 20,6 C 7,8 C 95 % 1021,1 hPa 0,0 l/m 0,0 km/h (0 Bft) O 92 0 min 0,000 mm 0,0 UV-I 0 W/m 9,5 C 10,3 C 0,0 km/h (0 Bft) 97,87 %
10.09.2018 05:24 10,3 C 20,6 C 8,3 C 95 % 1021,1 hPa 0,0 l/m 0,0 km/h (0 Bft) O 92 0 min 0,000 mm 0,0 UV-I 0 W/m 9,5 C 10,3 C 0,0 km/h (0 Bft) 97,87 %
10.09.2018 05:26 10,3 C 20,6 C 7,8 C 95 % 1021,2 hPa 0,0 l/m 0,0 km/h (0 Bft) O 92 0 min 0,000 mm 0,0 UV-I 0 W/m 9,5 C 10,3 C 0,0 km/h (0 Bft) 97,87 %
10.09.2018 05:28 10,2 C 20,6 C 7,8 C 94 % 1021,2 hPa 0,0 l/m 0,0 km/h (0 Bft) O 92 0 min 0,000 mm 0,0 UV-I 0 W/m 9,3 C 10,2 C 0,0 km/h (0 Bft) 100,00 %
10.09.2018 05:30 10,2 C 20,6 C 7,8 C 94 % 1021,2 hPa 0,0 l/m 0,0 km/h (0 Bft) O 92 0 min 0,000 mm 0,0 UV-I 0 W/m 9,3 C 10,2 C 0,0 km/h (0 Bft) 100,00 %
10.09.2018 05:32 10,3 C 20,6 C 7,8 C 95 % 1021,2 hPa 0,0 l/m 0,0 km/h (0 Bft) O 92 0 min 0,000 mm 0,0 UV-I 0 W/m 9,5 C 10,3 C 0,0 km/h (0 Bft) 97,92 %
10.09.2018 05:34 10,3 C 20,6 C 7,8 C 95 % 1021,2 hPa 0,0 l/m 0,0 km/h (0 Bft) O 92 0 min 0,000 mm 0,0 UV-I 0 W/m 9,5 C 10,3 C 0,0 km/h (0 Bft) 100,00 %
10.09.2018 05:36 10,3 C 20,6 C 7,8 C 95 % 1021,2 hPa 0,0 l/m 0,0 km/h (0 Bft) O 92 0 min 0,000 mm 0,0 UV-I 0 W/m 9,5 C 10,3 C 0,0 km/h (0 Bft) 95,74 %
10.09.2018 05:38 10,3 C 20,6 C 7,8 C 95 % 1021,2 hPa 0,0 l/m 0,0 km/h (0 Bft) O 92 0 min 0,000 mm 0,0 UV-I 0 W/m 9,5 C 10,3 C 0,0 km/h (0 Bft) 100,00 %
10.09.2018 05:40 10,1 C 20,6 C 7,8 C 94 % 1021,2 hPa 0,0 l/m 0,0 km/h (0 Bft) O 92 0 min 0,000 mm 0,0 UV-I 0 W/m 9,2 C 10,1 C 0,0 km/h (0 Bft) 100,00 %
10.09.2018 05:42 9,8 C 20,6 C 8,3 C 94 % 1021,2 hPa 0,0 l/m 0,0 km/h (0 Bft) O 92 0 min 0,000 mm 0,0 UV-I 0 W/m 8,9 C 9,8 C 0,0 km/h (0 Bft) 100,00 %
10.09.2018 05:44 9,7 C 20,6 C 8,3 C 94 % 1021,2 hPa 0,0 l/m 0,0 km/h (0 Bft) O 92 0 min 0,000 mm 0,0 UV-I 0 W/m 8,8 C 9,7 C 0,0 km/h (0 Bft) 100,00 %
10.09.2018 05:46 9,7 C 20,6 C 8,3 C 95 % 1021,3 hPa 0,0 l/m 0,0 km/h (0 Bft) O 92 0 min 0,000 mm 0,0 UV-I 0 W/m 8,9 C 9,7 C 0,0 km/h (0 Bft) 100,00 %
10.09.2018 05:48 9,6 C 20,6 C 7,8 C 95 % 1021,3 hPa 0,0 l/m 0,0 km/h (0 Bft) O 92 0 min 0,000 mm 0,0 UV-I 0 W/m 8,8 C 9,6 C 0,0 km/h (0 Bft) 100,00 %
10.09.2018 05:50 9,7 C 20,6 C 7,8 C 95 % 1021,3 hPa 0,0 l/m 0,0 km/h (0 Bft) O 92 0 min 0,000 mm 0,0 UV-I 0 W/m 8,9 C 9,7 C 0,0 km/h (0 Bft) 97,14 %
10.09.2018 05:52 9,9 C 20,6 C 7,8 C 95 % 1021,3 hPa 0,0 l/m 0,0 km/h (0 Bft) O 92 0 min 0,000 mm 0,0 UV-I 0 W/m 9,1 C 9,9 C 0,0 km/h (0 Bft) 100,00 %
10.09.2018 05:54 9,9 C 20,6 C 7,8 C 95 % 1021,3 hPa 0,0 l/m 0,0 km/h (0 Bft) O 92 0 min 0,000 mm 0,0 UV-I 0 W/m 9,1 C 9,9 C 0,0 km/h (0 Bft) 100,00 %
10.09.2018 05:56 10,1 C 20,6 C 7,8 C 95 % 1021,4 hPa 0,0 l/m 0,0 km/h (0 Bft) O 92 0 min 0,000 mm 0,0 UV-I 0 W/m 9,3 C 10,1 C 0,0 km/h (0 Bft) 100,00 %
10.09.2018 05:58 10,1 C 20,6 C 7,8 C 95 % 1021,4 hPa 0,0 l/m 0,0 km/h (0 Bft) O 92 0 min 0,000 mm 0,0 UV-I 0 W/m 9,3 C 10,1 C 0,0 km/h (0 Bft) 100,00 %
10.09.2018 06:00 10,1 C 20,6 C 7,2 C 95 % 1021,4 hPa 0,0 l/m 0,0 km/h (0 Bft) O 92 0 min 0,000 mm 0,0 UV-I 0 W/m 9,3 C 10,1 C 0,0 km/h (0 Bft) 100,00 %
10.09.2018 06:02 10,1 C 20,6 C 7,2 C 95 % 1021,4 hPa 0,0 l/m 0,0 km/h (0 Bft) O 92 0 min 0,000 mm 0,0 UV-I 0 W/m 9,3 C 10,1 C 0,0 km/h (0 Bft) 95,74 %
10.09.2018 06:04 10,1 C 20,6 C 7,2 C 95 % 1021,4 hPa 0,0 l/m 0,0 km/h (0 Bft) O 92 0 min 0,000 mm 0,0 UV-I 0 W/m 9,3 C 10,1 C 0,0 km/h (0 Bft) 97,87 %
10.09.2018 06:06 10,1 C 20,6 C 7,8 C 95 % 1021,4 hPa 0,0 l/m 0,0 km/h (0 Bft) O 92 0 min 0,000 mm 0,0 UV-I 0 W/m 9,3 C 10,1 C 0,0 km/h (0 Bft) 95,74 %
10.09.2018 06:08 10,1 C 20,6 C 7,2 C 95 % 1021,5 hPa 0,0 l/m 0,0 km/h (0 Bft) O 92 0 min 0,000 mm 0,0 UV-I 0 W/m 9,3 C 10,1 C 0,0 km/h (0 Bft) 95,74 %
10.09.2018 06:10 10,1 C 20,6 C 7,8 C 95 % 1021,4 hPa 0,0 l/m 0,0 km/h (0 Bft) O 92 0 min 0,000 mm 0,0 UV-I 0 W/m 9,3 C 10,1 C 0,0 km/h (0 Bft) 98,00 %
10.09.2018 06:12 10,1 C 20,6 C 7,2 C 95 % 1021,4 hPa 0,0 l/m 0,0 km/h (0 Bft) O 92 0 min 0,000 mm 0,0 UV-I 0 W/m 9,3 C 10,1 C 0,0 km/h (0 Bft) 97,92 %
10.09.2018 06:14 10,2 C 20,6 C 7,2 C 95 % 1021,5 hPa 0,0 l/m 0,0 km/h (0 Bft) O 92 0 min 0,000 mm 0,0 UV-I 0 W/m 9,4 C 10,2 C 0,0 km/h (0 Bft) 97,87 %
10.09.2018 06:16 10,2 C 20,6 C 7,2 C 95 % 1021,5 hPa 0,0 l/m 0,0 km/h (0 Bft) O 92 0 min 0,000 mm 0,0 UV-I 0 W/m 9,4 C 10,2 C 0,0 km/h (0 Bft) 97,87 %
10.09.2018 06:18 10,3 C 20,6 C 7,2 C 95 % 1021,5 hPa 0,0 l/m 0,0 km/h (0 Bft) O 92 0 min 0,000 mm 0,0 UV-I 0 W/m 9,5 C 10,3 C 0,0 km/h (0 Bft) 97,87 %
10.09.2018 06:20 10,3 C 20,6 C 7,2 C 95 % 1021,4 hPa 0,0 l/m 0,0 km/h (0 Bft) O 92 0 min 0,000 mm 0,0 UV-I 4 W/m 9,5 C 10,3 C 0,0 km/h (0 Bft) 97,87 %
10.09.2018 06:22 10,1 C 20,6 C 7,8 C 94 % 1021,5 hPa 0,0 l/m 0,0 km/h (0 Bft) O 92 0 min 0,000 mm 0,0 UV-I 5 W/m 9,2 C 10,1 C 0,0 km/h (0 Bft) 95,74 %
10.09.2018 06:24 10,0 C 20,6 C 7,8 C 94 % 1021,4 hPa 0,0 l/m 0,0 km/h (0 Bft) O 92 0 min 0,000 mm 0,0 UV-I 5 W/m 9,1 C 10,0 C 0,0 km/h (0 Bft) 93,62 %
10.09.2018 06:26 9,8 C 20,6 C 8,3 C 94 % 1021,4 hPa 0,0 l/m 0,0 km/h (0 Bft) O 92 0 min 0,000 mm 0,0 UV-I 5 W/m 8,9 C 9,8 C 0,0 km/h (0 Bft) 97,87 %
10.09.2018 06:28 9,6 C 20,6 C 8,3 C 94 % 1021,4 hPa 0,0 l/m 0,0 km/h (0 Bft) O 92 0 min 0,000 mm 0,0 UV-I 7 W/m 8,7 C 9,6 C 0,0 km/h (0 Bft) 97,87 %
10.09.2018 06:30 9,6 C 20,6 C 8,3 C 94 % 1021,4 hPa 0,0 l/m 0,0 km/h (0 Bft) O 93 0 min 0,000 mm 0,0 UV-I 7 W/m 8,7 C 9,6 C 0,0 km/h (0 Bft) 97,87 %
10.09.2018 06:32 9,8 C 20,6 C 8,3 C 95 % 1021,4 hPa 0,0 l/m 0,0 km/h (0 Bft) O 93 0 min 0,000 mm 0,0 UV-I 7 W/m 9,0 C 9,8 C 0,0 km/h (0 Bft) 97,87 %
10.09.2018 06:34 9,8 C 20,6 C 8,3 C 95 % 1021,4 hPa 0,0 l/m 0,0 km/h (0 Bft) O 93 0 min 0,000 mm 0,0 UV-I 9 W/m 9,0 C 9,8 C 0,0 km/h (0 Bft) 97,37 %
10.09.2018 06:36 9,9 C 20,6 C 7,8 C 95 % 1021,4 hPa 0,0 l/m 0,0 km/h (0 Bft) O 93 0 min 0,000 mm 0,0 UV-I 9 W/m 9,1 C 9,9 C 0,0 km/h (0 Bft) 96,00 %
10.09.2018 06:38 9,8 C 20,6 C 7,8 C 95 % 1021,5 hPa 0,0 l/m 0,0 km/h (0 Bft) O 93 0 min 0,000 mm 0,0 UV-I 11 W/m 9,0 C 9,8 C 0,0 km/h (0 Bft) 95,74 %
10.09.2018 06:40 9,9 C 20,6 C 7,8 C 95 % 1021,5 hPa 0,0 l/m 0,0 km/h (0 Bft) SO 145 0 min 0,000 mm 0,0 UV-I 12 W/m 9,1 C 9,9 C 0,0 km/h (0 Bft) 97,87 %
10.09.2018 06:42 9,9 C 20,6 C 7,8 C 95 % 1021,6 hPa 0,0 l/m 0,0 km/h (0 Bft) SO 146 0 min 0,000 mm 0,0 UV-I 14 W/m 9,1 C 9,9 C 0,0 km/h (0 Bft) 93,62 %
10.09.2018 06:44 10,0 C 20,6 C 7,8 C 95 % 1021,6 hPa 0,0 l/m 0,0 km/h (0 Bft) SO 146 2 min 0,000 mm 0,0 UV-I 16 W/m 9,2 C 10,0 C 0,0 km/h (0 Bft) 97,87 %
10.09.2018 06:46 10,0 C 20,6 C 8,3 C 95 % 1021,6 hPa 0,0 l/m 0,0 km/h (0 Bft) S-SO 158 2 min 0,000 mm 0,0 UV-I 18 W/m 9,2 C 10,0 C 0,0 km/h (0 Bft) 94,00 %
10.09.2018 06:48 9,9 C 20,6 C 7,8 C 95 % 1021,6 hPa 0,0 l/m 0,0 km/h (0 Bft) S-SO 158 2 min 0,000 mm 0,0 UV-I 20 W/m 9,1 C 9,9 C 0,0 km/h (0 Bft) 98,00 %
10.09.2018 06:50 9,8 C 20,6 C 7,8 C 94 % 1021,7 hPa 0,0 l/m 0,0 km/h (0 Bft) S-SO 158 2 min 0,000 mm 0,0 UV-I 23 W/m 8,9 C 9,8 C 0,0 km/h (0 Bft) 97,87 %
10.09.2018 06:52 9,8 C 20,6 C 7,8 C 94 % 1021,7 hPa 0,0 l/m 0,0 km/h (0 Bft) S-SO 158 2 min 0,000 mm 0,0 UV-I 25 W/m 8,9 C 9,8 C 0,0 km/h (0 Bft) 95,74 %
10.09.2018 06:54 9,8 C 20,6 C 7,8 C 95 % 1021,7 hPa 0,0 l/m 0,0 km/h (0 Bft) S-SO 158 2 min 0,000 mm 0,0 UV-I 26 W/m 9,0 C 9,8 C 0,0 km/h (0 Bft) 95,74 %
10.09.2018 06:56 9,8 C 20,6 C 7,8 C 95 % 1021,7 hPa 0,0 l/m 0,0 km/h (0 Bft) S-SO 158 2 min 0,000 mm 0,0 UV-I 32 W/m 9,0 C 9,8 C 0,0 km/h (0 Bft) 95,83 %
10.09.2018 06:58 9,8 C 20,6 C 7,8 C 95 % 1021,6 hPa 0,0 l/m 0,0 km/h (0 Bft) S-SO 158 2 min 0,000 mm 0,0 UV-I 37 W/m 9,0 C 9,8 C 0,0 km/h (0 Bft) 94,29 %
10.09.2018 07:00 9,9 C 20,6 C 7,8 C 95 % 1021,7 hPa 0,0 l/m 0,0 km/h (0 Bft) S-SO 158 2 min 0,000 mm 0,0 UV-I 42 W/m 9,1 C 9,9 C 0,0 km/h (0 Bft) 97,87 %
10.09.2018 07:02 9,9 C 20,6 C 7,8 C 95 % 1021,7 hPa 0,0 l/m 0,0 km/h (0 Bft) S-SO 158 2 min 0,000 mm 0,0 UV-I 46 W/m 9,1 C 9,9 C 0,0 km/h (0 Bft) 96,00 %
10.09.2018 07:04 10,0 C 20,6 C 7,8 C 95 % 1021,7 hPa 0,0 l/m 0,0 km/h (0 Bft) S-SO 158 2 min 0,000 mm 0,0 UV-I 50 W/m 9,2 C 10,0 C 0,0 km/h (0 Bft) 97,87 %
10.09.2018 07:06 10,0 C 20,6 C 8,3 C 95 % 1021,7 hPa 0,0 l/m 0,0 km/h (0 Bft) S-SO 158 2 min 0,000 mm 0,0 UV-I 54 W/m 9,2 C 10,0 C 0,0 km/h (0 Bft) 97,87 %
10.09.2018 07:08 10,0 C 20,6 C 8,3 C 94 % 1021,7 hPa 0,0 l/m 0,0 km/h (0 Bft) S-SO 158 2 min 0,000 mm 0,0 UV-I 58 W/m 9,1 C 10,0 C 0,0 km/h (0 Bft) 95,74 %
10.09.2018 07:10 9,9 C 20,6 C 8,9 C 94 % 1021,7 hPa 0,0 l/m 0,0 km/h (0 Bft) S-SO 158 2 min 0,000 mm 0,0 UV-I 62 W/m 9,0 C 9,9 C 0,0 km/h (0 Bft) 96,00 %
10.09.2018 07:12 9,9 C 20,6 C 8,9 C 94 % 1021,7 hPa 0,0 l/m 0,0 km/h (0 Bft) S-SO 158 2 min 0,000 mm 0,0 UV-I 63 W/m 9,0 C 9,9 C 0,0 km/h (0 Bft) 97,87 %
10.09.2018 07:14 9,9 C 20,6 C 8,9 C 94 % 1021,7 hPa 0,0 l/m 0,0 km/h (0 Bft) S-SO 158 2 min 0,000 mm 0,0 UV-I 61 W/m 9,0 C 9,9 C 0,0 km/h (0 Bft) 97,87 %
10.09.2018 07:16 9,9 C 20,6 C 8,9 C 94 % 1021,7 hPa 0,0 l/m 0,0 km/h (0 Bft) S-SO 158 2 min 0,000 mm 0,0 UV-I 67 W/m 9,0 C 9,9 C 0,0 km/h (0 Bft) 98,00 %
10.09.2018 07:18 10,1 C 20,6 C 8,9 C 95 % 1021,8 hPa 0,0 l/m 0,0 km/h (0 Bft) S-SO 158 2 min 0,000 mm 0,0 UV-I 78 W/m 9,3 C 10,1 C 0,0 km/h (0 Bft) 97,87 %
10.09.2018 07:20 10,2 C 20,6 C 9,4 C 95 % 1021,8 hPa 0,0 l/m 0,0 km/h (0 Bft) S-SO 158 2 min 0,000 mm 0,0 UV-I 85 W/m 9,4 C 10,2 C 0,0 km/h (0 Bft) 95,74 %
10.09.2018 07:22 10,2 C 20,6 C 9,4 C 95 % 1021,9 hPa 0,0 l/m 0,0 km/h (0 Bft) S-SO 158 2 min 0,000 mm 0,0 UV-I 88 W/m 9,4 C 10,2 C 0,0 km/h (0 Bft) 94,74 %
10.09.2018 07:24 10,3 C 20,6 C 9,4 C 95 % 1021,9 hPa 0,0 l/m 0,0 km/h (0 Bft) S-SO 158 2 min 0,000 mm 0,0 UV-I 93 W/m 9,5 C 10,3 C 0,0 km/h (0 Bft) 95,74 %
10.09.2018 07:26 10,3 C 20,6 C 9,4 C 95 % 1021,9 hPa 0,0 l/m 0,0 km/h (0 Bft) S-SO 158 2 min 0,000 mm 0,0 UV-I 98 W/m 9,5 C 10,3 C 0,0 km/h (0 Bft) 93,22 %
10.09.2018 07:28 10,3 C 20,6 C 9,4 C 95 % 1022,0 hPa 0,0 l/m 0,0 km/h (0 Bft) S-SO 158 2 min 0,000 mm 0,0 UV-I 103 W/m 9,5 C 10,3 C 0,0 km/h (0 Bft) 97,22 %
10.09.2018 07:30 10,4 C 20,6 C 9,4 C 95 % 1022,0 hPa 0,0 l/m 0,0 km/h (0 Bft) S-SO 158 2 min 0,000 mm 0,0 UV-I 107 W/m 9,6 C 10,4 C 0,0 km/h (0 Bft) 89,36 %
10.09.2018 07:32 10,6 C 20,6 C 9,4 C 95 % 1022,0 hPa 0,0 l/m 0,0 km/h (0 Bft) S-SO 158 2 min 0,000 mm 0,0 UV-I 110 W/m 9,8 C 10,6 C 0,0 km/h (0 Bft) 94,00 %
10.09.2018 07:34 10,7 C 20,6 C 9,4 C 95 % 1022,1 hPa 0,0 l/m 0,0 km/h (0 Bft) S-SO 158 2 min 0,000 mm 0,0 UV-I 115 W/m 9,9 C 10,7 C 0,0 km/h (0 Bft) 96,00 %
10.09.2018 07:36 10,8 C 20,6 C 9,4 C 95 % 1022,1 hPa 0,0 l/m 0,0 km/h (0 Bft) S-SO 158 2 min 0,000 mm 0,0 UV-I 120 W/m 10,0 C 10,8 C 0,0 km/h (0 Bft) 95,74 %
10.09.2018 07:38 10,9 C 20,6 C 9,4 C 94 % 1022,1 hPa 0,0 l/m 0,0 km/h (0 Bft) S-SO 158 2 min 0,000 mm 0,0 UV-I 124 W/m 10,0 C 10,9 C 0,0 km/h (0 Bft) 93,62 %
10.09.2018 07:40 11,1 C 20,6 C 9,4 C 95 % 1022,1 hPa 0,0 l/m 0,0 km/h (0 Bft) S-SO 158 2 min 0,000 mm 0,0 UV-I 129 W/m 10,3 C 11,1 C 0,0 km/h (0 Bft) 93,62 %
10.09.2018 07:42 11,3 C 20,6 C 10,0 C 94 % 1022,1 hPa 0,0 l/m 0,0 km/h (0 Bft) S-SO 158 2 min 0,000 mm 0,0 UV-I 134 W/m 10,4 C 11,3 C 0,0 km/h (0 Bft) 100,00 %
10.09.2018 07:44 11,4 C 20,6 C 10,0 C 94 % 1022,2 hPa 0,0 l/m 0,0 km/h (0 Bft) S-SO 158 2 min 0,000 mm 0,0 UV-I 140 W/m 10,5 C 11,4 C 0,0 km/h (0 Bft) 100,00 %
10.09.2018 07:46 11,4 C 20,6 C 10,0 C 94 % 1022,2 hPa 0,0 l/m 0,0 km/h (0 Bft) S-SO 158 2 min 0,000 mm 0,0 UV-I 144 W/m 10,5 C 11,4 C 0,0 km/h (0 Bft) 97,87 %
10.09.2018 07:48 11,5 C 20,6 C 10,6 C 93 % 1022,2 hPa 0,0 l/m 0,0 km/h (0 Bft) S-SO 158 2 min 0,000 mm 0,0 UV-I 149 W/m 10,4 C 11,5 C 0,0 km/h (0 Bft) 97,87 %
10.09.2018 07:50 11,6 C 20,6 C 10,6 C 94 % 1022,2 hPa 0,0 l/m 0,0 km/h (0 Bft) S-SO 158 2 min 0,000 mm 0,0 UV-I 154 W/m 10,7 C 11,6 C 0,0 km/h (0 Bft) 97,56 %
10.09.2018 07:52 11,6 C 20,6 C 10,6 C 93 % 1022,3 hPa 0,0 l/m 0,0 km/h (0 Bft) S-SO 158 2 min 0,000 mm 0,0 UV-I 159 W/m 10,5 C 11,6 C 0,0 km/h (0 Bft) 100,00 %
10.09.2018 07:54 11,7 C 20,6 C 10,6 C 94 % 1022,3 hPa 0,0 l/m 0,0 km/h (0 Bft) S-SO 158 2 min 0,000 mm 0,0 UV-I 164 W/m 10,8 C 11,7 C 0,0 km/h (0 Bft) 100,00 %
10.09.2018 07:56 11,7 C 20,6 C 10,6 C 93 % 1022,3 hPa 0,0 l/m 0,0 km/h (0 Bft) S-SO 158 2 min 0,000 mm 0,0 UV-I 170 W/m 10,6 C 11,7 C 0,0 km/h (0 Bft) 97,87 %
10.09.2018 07:58 11,7 C 20,6 C 11,1 C 93 % 1022,3 hPa 0,0 l/m 0,0 km/h (0 Bft) S-SO 158 2 min 0,000 mm 0,0 UV-I 175 W/m 10,6 C 11,7 C 0,0 km/h (0 Bft) 100,00 %
10.09.2018 08:00 11,9 C 20,6 C 11,1 C 93 % 1022,4 hPa 0,0 l/m 0,0 km/h (0 Bft) S-SO 158 2 min 0,051 mm 0,0 UV-I 181 W/m 10,8 C 11,9 C 0,0 km/h (0 Bft) 100,00 %
10.09.2018 08:02 12,1 C 20,6 C 11,1 C 93 % 1022,4 hPa 0,0 l/m 0,0 km/h (0 Bft) S-SO 158 2 min 0,000 mm 0,0 UV-I 187 W/m 11,0 C 12,1 C 0,0 km/h (0 Bft) 95,83 %
10.09.2018 08:04 12,3 C 20,6 C 11,1 C 93 % 1022,4 hPa 0,0 l/m 0,0 km/h (0 Bft) S-SO 158 2 min 0,000 mm 0,0 UV-I 192 W/m 11,2 C 12,3 C 0,0 km/h (0 Bft) 97,87 %
10.09.2018 08:06 12,6 C 20,6 C 11,1 C 92 % 1022,5 hPa 0,0 l/m 0,0 km/h (0 Bft) S-SO 158 2 min 0,000 mm 0,0 UV-I 200 W/m 11,3 C 12,6 C 0,0 km/h (0 Bft) 97,87 %
10.09.2018 08:08 12,8 C 20,6 C 11,7 C 92 % 1022,5 hPa 0,0 l/m 0,0 km/h (0 Bft) S-SO 155 2 min 0,000 mm 0,0 UV-I 205 W/m 11,5 C 12,8 C 0,0 km/h (0 Bft) 98,00 %
10.09.2018 08:10 12,8 C 20,6 C 11,7 C 91 % 1022,5 hPa 0,0 l/m 0,0 km/h (0 Bft) S 187 2 min 0,000 mm 0,0 UV-I 210 W/m 11,4 C 12,8 C 0,0 km/h (0 Bft) 100,00 %
10.09.2018 08:12 12,8 C 20,6 C 11,7 C 91 % 1022,5 hPa 0,0 l/m 0,0 km/h (0 Bft) S-SW 196 2 min 0,000 mm 0,0 UV-I 215 W/m 11,4 C 12,8 C 0,0 km/h (0 Bft) 100,00 %
10.09.2018 08:14 13,1 C 20,6 C 11,7 C 92 % 1022,5 hPa 0,0 l/m 0,0 km/h (0 Bft) NW 316 2 min 0,000 mm 0,0 UV-I 221 W/m 11,8 C 13,1 C 0,0 km/h (0 Bft) 100,00 %
10.09.2018 08:16 13,3 C 20,6 C 12,2 C 91 % 1022,5 hPa 0,0 l/m 0,0 km/h (0 Bft) N-NW 332 2 min 0,000 mm 0,0 UV-I 226 W/m 11,9 C 13,3 C 0,0 km/h (0 Bft) 97,87 %
10.09.2018 08:18 13,4 C 20,6 C 12,2 C 90 % 1022,5 hPa 0,0 l/m 0,0 km/h (0 Bft) N-NW 332 2 min 0,000 mm 0,0 UV-I 232 W/m 11,8 C 13,4 C 0,0 km/h (0 Bft) 100,00 %
10.09.2018 08:20 13,5 C 20,6 C 12,2 C 90 % 1022,5 hPa 0,0 l/m 0,0 km/h (0 Bft) N-NW 332 2 min 0,000 mm 0,2 UV-I 238 W/m 11,9 C 13,5 C 0,0 km/h (0 Bft) 100,00 %
10.09.2018 08:22 13,6 C 20,6 C 12,2 C 90 % 1022,5 hPa 0,0 l/m 0,0 km/h (0 Bft) N-NW 332 2 min 0,000 mm 0,5 UV-I 243 W/m 12,0 C 13,6 C 0,0 km/h (0 Bft) 100,00 %
10.09.2018 08:24 13,7 C 20,6 C 12,2 C 90 % 1022,5 hPa 0,0 l/m 0,0 km/h (0 Bft) N-NW 332 2 min 0,000 mm 0,5 UV-I 248 W/m 12,1 C 13,7 C 0,0 km/h (0 Bft) 100,00 %
10.09.2018 08:26 13,7 C 20,6 C 12,8 C 90 % 1022,5 hPa 0,0 l/m 0,0 km/h (0 Bft) N-NW 332 2 min 0,000 mm 0,5 UV-I 254 W/m 12,1 C 13,7 C 0,0 km/h (0 Bft) 100,00 %
10.09.2018 08:28 13,8 C 20,6 C 12,8 C 89 % 1022,5 hPa 0,0 l/m 0,0 km/h (0 Bft) N-NW 332 2 min 0,000 mm 0,5 UV-I 260 W/m 12,0 C 13,8 C 0,0 km/h (0 Bft) 97,87 %
10.09.2018 08:30 13,8 C 20,6 C 12,8 C 89 % 1022,5 hPa 0,0 l/m 0,0 km/h (0 Bft) N-NW 332 2 min 0,000 mm 0,5 UV-I 264 W/m 12,0 C 13,8 C 0,0 km/h (0 Bft) 100,00 %
10.09.2018 08:32 13,9 C 20,6 C 12,8 C 88 % 1022,4 hPa 0,0 l/m 0,0 km/h (0 Bft) N-NW 332 2 min 0,000 mm 0,6 UV-I 271 W/m 11,9 C 13,9 C 0,0 km/h (0 Bft) 100,00 %
10.09.2018 08:34 13,9 C 20,6 C 12,8 C 87 % 1022,4 hPa 0,0 l/m 0,0 km/h (0 Bft) N-NW 332 2 min 0,000 mm 0,6 UV-I 277 W/m 11,8 C 13,9 C 0,0 km/h (0 Bft) 98,00 %
10.09.2018 08:36 14,0 C 20,6 C 12,8 C 87 % 1022,4 hPa 0,0 l/m 0,0 km/h (0 Bft) N-NW 332 2 min 0,000 mm 0,6 UV-I 282 W/m 11,9 C 14,0 C 0,0 km/h (0 Bft) 97,87 %
10.09.2018 08:38 14,0 C 20,6 C 13,3 C 87 % 1022,4 hPa 0,0 l/m 0,0 km/h (0 Bft) N-NW 332 2 min 0,000 mm 0,6 UV-I 288 W/m 11,9 C 14,0 C 0,0 km/h (0 Bft) 95,74 %
10.09.2018 08:40 14,1 C 20,6 C 13,3 C 87 % 1022,4 hPa 0,0 l/m 0,0 km/h (0 Bft) N-NW 332 2 min 0,000 mm 0,7 UV-I 294 W/m 12,0 C 14,1 C 0,0 km/h (0 Bft) 96,00 %
10.09.2018 08:42 14,2 C 20,6 C 13,3 C 87 % 1022,5 hPa 0,0 l/m 0,0 km/h (0 Bft) N-NW 332 2 min 0,000 mm 0,7 UV-I 300 W/m 12,1 C 14,2 C 0,0 km/h (0 Bft) 94,44 %
10.09.2018 08:44 14,2 C 20,6 C 13,3 C 86 % 1022,4 hPa 0,0 l/m 0,0 km/h (0 Bft) N-NW 332 2 min 0,000 mm 0,7 UV-I 305 W/m 11,9 C 14,2 C 0,0 km/h (0 Bft) 91,84 %
10.09.2018 08:46 14,3 C 20,6 C 13,9 C 86 % 1022,5 hPa 0,0 l/m 0,0 km/h (0 Bft) N-NW 332 2 min 0,000 mm 0,8 UV-I 311 W/m 12,0 C 14,3 C 0,0 km/h (0 Bft) 96,23 %
10.09.2018 08:48 14,3 C 20,6 C 13,9 C 86 % 1022,5 hPa 0,0 l/m 0,0 km/h (0 Bft) N-NW 332 2 min 0,000 mm 0,8 UV-I 317 W/m 12,0 C 14,3 C 0,0 km/h (0 Bft) 92,00 %
10.09.2018 08:50 14,5 C 20,6 C 13,9 C 87 % 1022,5 hPa 0,0 l/m 0,0 km/h (0 Bft) N-NW 332 2 min 0,000 mm 0,8 UV-I 322 W/m 12,4 C 14,5 C 0,0 km/h (0 Bft) 95,74 %
10.09.2018 08:52 14,6 C 20,6 C 13,9 C 86 % 1022,5 hPa 0,0 l/m 0,0 km/h (0 Bft) N-NW 332 2 min 0,000 mm 0,8 UV-I 328 W/m 12,3 C 14,6 C 0,0 km/h (0 Bft) 95,74 %
10.09.2018 08:54 14,8 C 20,6 C 13,9 C 86 % 1022,5 hPa 0,0 l/m 0,0 km/h (0 Bft) N-NW 331 2 min 0,000 mm 0,8 UV-I 333 W/m 12,5 C 14,8 C 0,0 km/h (0 Bft) 94,59 %
10.09.2018 08:56 14,9 C 20,6 C 14,4 C 86 % 1022,5 hPa 0,0 l/m 0,0 km/h (0 Bft) N-NW 331 2 min 0,000 mm 0,9 UV-I 338 W/m 12,6 C 14,9 C 0,0 km/h (0 Bft) 95,74 %
10.09.2018 08:58 15,1 C 20,6 C 14,4 C 85 % 1022,6 hPa 0,0 l/m 0,0 km/h (0 Bft) N-NW 331 2 min 0,000 mm 0,9 UV-I 344 W/m 12,6 C 15,1 C 0,0 km/h (0 Bft) 93,62 %
10.09.2018 09:00 15,0 C 20,6 C 14,4 C 84 % 1022,6 hPa 0,0 l/m 0,0 km/h (0 Bft) N-NW 331 2 min 0,127 mm 0,9 UV-I 351 W/m 12,3 C 15,0 C 0,0 km/h (0 Bft) 96,00 %
10.09.2018 09:02 14,9 C 20,6 C 15,0 C 85 % 1022,6 hPa 0,0 l/m 0,0 km/h (0 Bft) N-NW 331 2 min 0,000 mm 1,0 UV-I 356 W/m 12,4 C 14,9 C 0,0 km/h (0 Bft) 93,62 %
10.09.2018 09:04 15,1 C 20,6 C 15,0 C 85 % 1022,6 hPa 0,0 l/m 0,0 km/h (0 Bft) N-NW 331 2 min 0,000 mm 1,0 UV-I 360 W/m 12,6 C 15,1 C 0,0 km/h (0 Bft) 97,87 %
10.09.2018 09:06 15,3 C 20,6 C 15,0 C 85 % 1022,7 hPa 0,0 l/m 0,0 km/h (0 Bft) N-NW 331 2 min 0,000 mm 1,0 UV-I 365 W/m 12,8 C 15,3 C 0,0 km/h (0 Bft) 97,87 %
10.09.2018 09:08 15,4 C 20,6 C 15,0 C 85 % 1022,6 hPa 0,0 l/m 0,0 km/h (0 Bft) SW 217 2 min 0,000 mm 1,0 UV-I 370 W/m 12,9 C 15,4 C 0,0 km/h (0 Bft) 97,87 %
10.09.2018 09:10 15,7 C 20,6 C 15,6 C 85 % 1022,6 hPa 0,0 l/m 0,0 km/h (0 Bft) SW 218 2 min 0,000 mm 1,1 UV-I 376 W/m 13,2 C 15,7 C 0,0 km/h (0 Bft) 100,00 %
10.09.2018 09:12 15,9 C 20,6 C 15,6 C 84 % 1022,7 hPa 0,0 l/m 0,0 km/h (0 Bft) W-SW 242 2 min 0,000 mm 1,1 UV-I 380 W/m 13,2 C 15,9 C 1,6 km/h (1 Bft) 97,87 %
10.09.2018 09:14 15,9 C 20,6 C 15,6 C 83 % 1022,7 hPa 0,0 l/m 0,0 km/h (0 Bft) S-SW 202 2 min 0,000 mm 1,1 UV-I 386 W/m 13,0 C 15,9 C 0,0 km/h (0 Bft) 97,87 %
10.09.2018 09:16 16,0 C 20,6 C 16,1 C 84 % 1022,7 hPa 0,0 l/m 0,0 km/h (0 Bft) SW 222 2 min 0,000 mm 1,1 UV-I 389 W/m 13,3 C 16,0 C 0,0 km/h (0 Bft) 100,00 %
10.09.2018 09:18 16,1 C 20,6 C 16,1 C 83 % 1022,7 hPa 0,0 l/m 0,6 km/h (0 Bft) W-SW 239 2 min 0,000 mm 1,2 UV-I 394 W/m 13,2 C 16,1 C 3,2 km/h (1 Bft) 100,00 %
10.09.2018 09:20 16,1 C 20,6 C 16,1 C 83 % 1022,7 hPa 0,0 l/m 0,0 km/h (0 Bft) S-SW 210 2 min 0,000 mm 1,2 UV-I 381 W/m 13,2 C 16,1 C 1,6 km/h (1 Bft) 100,00 %
10.09.2018 09:22 16,1 C 20,6 C 16,7 C 83 % 1022,7 hPa 0,0 l/m 0,0 km/h (0 Bft) W-SW 242 2 min 0,000 mm 1,2 UV-I 388 W/m 13,2 C 16,1 C 0,0 km/h (0 Bft) 98,00 %
10.09.2018 09:24 16,2 C 20,6 C 16,7 C 84 % 1022,7 hPa 0,0 l/m 0,0 km/h (0 Bft) W-SW 239 2 min 0,000 mm 1,2 UV-I 408 W/m 13,5 C 16,2 C 0,0 km/h (0 Bft) 95,74 %
10.09.2018 09:26 16,2 C 20,6 C 17,2 C 83 % 1022,7 hPa 0,0 l/m 0,7 km/h (0 Bft) W-SW 242 2 min 0,000 mm 1,3 UV-I 414 W/m 13,3 C 16,2 C 4,8 km/h (1 Bft) 100,00 %
10.09.2018 09:28 16,3 C 20,6 C 17,2 C 83 % 1022,7 hPa 0,0 l/m 0,5 km/h (0 Bft) S-SW 203 2 min 0,000 mm 1,3 UV-I 418 W/m 13,4 C 16,3 C 3,2 km/h (1 Bft) 100,00 %
10.09.2018 09:30 16,4 C 20,6 C 17,2 C 82 % 1022,7 hPa 0,0 l/m 1,0 km/h (0 Bft) S-SW 193 2 min 0,000 mm 1,3 UV-I 421 W/m 13,3 C 16,4 C 6,4 km/h (2 Bft) 100,00 %
10.09.2018 09:32 16,6 C 20,6 C 18,3 C 82 % 1022,7 hPa 0,0 l/m 0,6 km/h (0 Bft) W-SW 255 2 min 0,000 mm 1,3 UV-I 424 W/m 13,5 C 16,6 C 6,4 km/h (2 Bft) 97,87 %
10.09.2018 09:34 16,7 C 20,6 C 18,9 C 82 % 1022,7 hPa 0,0 l/m 2,0 km/h (1 Bft) S-SW 193 2 min 0,000 mm 1,4 UV-I 429 W/m 13,6 C 16,7 C 8,0 km/h (2 Bft) 100,00 %
10.09.2018 09:36 16,7 C 20,6 C 19,4 C 81 % 1022,7 hPa 0,0 l/m 1,1 km/h (1 Bft) W-SW 241 2 min 0,000 mm 1,4 UV-I 437 W/m 13,4 C 16,7 C 6,4 km/h (2 Bft) 97,87 %
10.09.2018 09:38 16,7 C 20,6 C 20,0 C 81 % 1022,8 hPa 0,0 l/m 3,0 km/h (1 Bft) SW 236 2 min 0,000 mm 1,4 UV-I 441 W/m 13,4 C 16,7 C 6,4 km/h (2 Bft) 100,00 %
10.09.2018 09:40 16,7 C 20,6 C 21,1 C 82 % 1022,8 hPa 0,0 l/m 2,1 km/h (1 Bft) SW 233 2 min 0,000 mm 1,4 UV-I 446 W/m 13,6 C 16,7 C 6,4 km/h (2 Bft) 97,87 %
10.09.2018 09:42 16,9 C 20,6 C 21,7 C 81 % 1022,8 hPa 0,0 l/m 0,5 km/h (0 Bft) S-SW 205 2 min 0,000 mm 1,5 UV-I 444 W/m 13,6 C 16,9 C 3,2 km/h (1 Bft) 100,00 %
10.09.2018 09:44 17,1 C 20,6 C 22,2 C 81 % 1022,8 hPa 0,0 l/m 1,1 km/h (1 Bft) S-SW 212 2 min 0,000 mm 1,5 UV-I 446 W/m 13,8 C 17,1 C 4,8 km/h (1 Bft) 100,00 %
10.09.2018 09:46 17,3 C 20,6 C 22,2 C 80 % 1022,8 hPa 0,0 l/m 0,3 km/h (0 Bft) W-SW 237 2 min 0,000 mm 1,5 UV-I 461 W/m 13,8 C 17,3 C 3,2 km/h (1 Bft) 98,00 %
10.09.2018 09:48 17,3 C 20,6 C 23,3 C 79 % 1022,8 hPa 0,0 l/m 1,1 km/h (1 Bft) SW 215 2 min 0,000 mm 1,6 UV-I 465 W/m 13,6 C 17,3 C 4,8 km/h (1 Bft) 97,87 %
10.09.2018 09:50 17,3 C 20,6 C 23,9 C 79 % 1022,8 hPa 0,0 l/m 2,7 km/h (1 Bft) W 263 2 min 0,000 mm 1,6 UV-I 470 W/m 13,6 C 17,3 C 6,4 km/h (2 Bft) 97,87 %
10.09.2018 09:52 17,4 C 20,6 C 25,0 C 80 % 1022,8 hPa 0,0 l/m 0,7 km/h (0 Bft) SW 223 2 min 0,000 mm 1,6 UV-I 475 W/m 13,9 C 17,4 C 3,2 km/h (1 Bft) 100,00 %
10.09.2018 09:54 17,4 C 20,6 C 25,0 C 79 % 1022,7 hPa 0,0 l/m 0,6 km/h (0 Bft) W-SW 244 2 min 0,000 mm 1,7 UV-I 479 W/m 13,7 C 17,4 C 3,2 km/h (1 Bft) 97,87 %
10.09.2018 09:56 17,6 C 20,6 C 25,6 C 79 % 1022,7 hPa 0,0 l/m 0,0 km/h (0 Bft) W-SW 250 2 min 0,000 mm 1,7 UV-I 479 W/m 13,9 C 17,6 C 0,0 km/h (0 Bft) 97,92 %
10.09.2018 09:58 17,7 C 20,6 C 26,1 C 78 % 1022,7 hPa 0,0 l/m 0,0 km/h (0 Bft) SW 216 2 min 0,000 mm 1,7 UV-I 488 W/m 13,8 C 17,7 C 0,0 km/h (0 Bft) 93,62 %
10.09.2018 10:00 17,8 C 20,6 C 27,2 C 77 % 1022,7 hPa 0,0 l/m 0,0 km/h (0 Bft) SW 215 2 min 0,228 mm 1,8 UV-I 493 W/m 13,7 C 17,8 C 1,6 km/h (1 Bft) 95,74 %
10.09.2018 10:02 17,8 C 20,6 C 28,3 C 78 % 1022,8 hPa 0,0 l/m 0,0 km/h (0 Bft) SW 215 2 min 0,000 mm 1,8 UV-I 497 W/m 13,9 C 17,8 C 0,0 km/h (0 Bft) 95,74 %
10.09.2018 10:04 18,0 C 20,6 C 28,3 C 77 % 1022,8 hPa 0,0 l/m 1,7 km/h (1 Bft) SW 223 2 min 0,000 mm 1,9 UV-I 502 W/m 13,9 C 18,0 C 6,4 km/h (2 Bft) 95,74 %
10.09.2018 10:06 18,0 C 20,6 C 27,8 C 76 % 1022,8 hPa 0,0 l/m 0,0 km/h (0 Bft) SW 230 2 min 0,000 mm 1,9 UV-I 508 W/m 13,7 C 18,0 C 1,6 km/h (1 Bft) 94,00 %
10.09.2018 10:08 18,0 C 20,6 C 28,9 C 77 % 1022,8 hPa 0,0 l/m 0,0 km/h (0 Bft) S 177 2 min 0,000 mm 1,9 UV-I 512 W/m 13,9 C 18,0 C 0,0 km/h (0 Bft) 97,87 %
10.09.2018 10:10 18,2 C 20,6 C 29,4 C 77 % 1022,9 hPa 0,0 l/m 0,3 km/h (0 Bft) S-SW 211 2 min 0,000 mm 1,4 UV-I 516 W/m 14,1 C 18,2 C 3,2 km/h (1 Bft) 93,62 %
10.09.2018 10:12 18,3 C 20,6 C 28,3 C 76 % 1022,9 hPa 0,0 l/m 1,3 km/h (1 Bft) W-SW 248 2 min 0,000 mm 1,1 UV-I 519 W/m 14,0 C 18,3 C 4,8 km/h (1 Bft) 93,62 %
10.09.2018 10:14 18,3 C 20,6 C 28,9 C 76 % 1022,9 hPa 0,0 l/m 0,8 km/h (0 Bft) W-NW 286 2 min 0,000 mm 1,2 UV-I 524 W/m 14,0 C 18,3 C 3,2 km/h (1 Bft) 97,37 %
10.09.2018 10:16 18,3 C 20,6 C 29,4 C 76 % 1022,9 hPa 0,0 l/m 0,0 km/h (0 Bft) W-NW 286 2 min 0,000 mm 1,1 UV-I 527 W/m 14,0 C 18,3 C 0,0 km/h (0 Bft) 94,34 %
10.09.2018 10:18 18,3 C 20,6 C 28,9 C 75 % 1022,9 hPa 0,0 l/m 0,0 km/h (0 Bft) W-SW 250 2 min 0,000 mm 1,1 UV-I 532 W/m 13,8 C 18,3 C 0,0 km/h (0 Bft) 95,74 %
10.09.2018 10:20 18,3 C 20,6 C 29,4 C 76 % 1022,8 hPa 0,0 l/m 0,1 km/h (0 Bft) W-SW 240 2 min 0,000 mm 0,9 UV-I 535 W/m 14,0 C 18,3 C 1,6 km/h (1 Bft) 95,74 %
10.09.2018 10:22 18,3 C 20,6 C 30,0 C 75 % 1022,8 hPa 0,0 l/m 0,3 km/h (0 Bft) W 259 2 min 0,000 mm 0,9 UV-I 540 W/m 13,8 C 18,3 C 3,2 km/h (1 Bft) 95,74 %
10.09.2018 10:24 18,4 C 20,6 C 30,0 C 75 % 1022,8 hPa 0,0 l/m 0,0 km/h (0 Bft) W 259 2 min 0,000 mm 0,9 UV-I 545 W/m 13,9 C 18,4 C 0,0 km/h (0 Bft) 95,74 %
10.09.2018 10:26 18,4 C 20,6 C 30,0 C 75 % 1022,9 hPa 0,0 l/m 0,0 km/h (0 Bft) W 259 2 min 0,000 mm 1,0 UV-I 548 W/m 13,9 C 18,4 C 0,0 km/h (0 Bft) 91,49 %
10.09.2018 10:28 18,7 C 20,6 C 30,0 C 75 % 1022,9 hPa 0,0 l/m 0,0 km/h (0 Bft) NW 311 2 min 0,000 mm 1,3 UV-I 554 W/m 14,2 C 18,7 C 0,0 km/h (0 Bft) 95,74 %
10.09.2018 10:30 18,9 C 20,6 C 31,1 C 75 % 1022,9 hPa 0,0 l/m 0,1 km/h (0 Bft) N 5 2 min 0,000 mm 1,3 UV-I 555 W/m 14,4 C 18,9 C 1,6 km/h (1 Bft) 94,44 %
10.09.2018 10:32 19,2 C 20,6 C 30,6 C 73 % 1022,9 hPa 0,0 l/m 0,2 km/h (0 Bft) N 349 2 min 0,000 mm 1,2 UV-I 560 W/m 14,2 C 19,2 C 1,6 km/h (1 Bft) 96,00 %
10.09.2018 10:34 19,3 C 20,6 C 30,6 C 73 % 1022,8 hPa 0,0 l/m 0,0 km/h (0 Bft) SW 227 2 min 0,000 mm 1,2 UV-I 563 W/m 14,3 C 19,3 C 0,0 km/h (0 Bft) 95,74 %
10.09.2018 10:36 19,3 C 20,6 C 31,7 C 73 % 1022,8 hPa 0,0 l/m 0,0 km/h (0 Bft) SW 215 2 min 0,000 mm 1,6 UV-I 566 W/m 14,3 C 19,3 C 0,0 km/h (0 Bft) 94,00 %
10.09.2018 10:38 19,3 C 20,6 C 32,2 C 73 % 1022,8 hPa 0,0 l/m 0,0 km/h (0 Bft) SW 215 2 min 0,000 mm 1,6 UV-I 570 W/m 14,3 C 19,3 C 0,0 km/h (0 Bft) 93,62 %
10.09.2018 10:40 19,3 C 20,6 C 32,2 C 73 % 1022,8 hPa 0,0 l/m 0,0 km/h (0 Bft) SW 215 2 min 0,000 mm 1,6 UV-I 574 W/m 14,3 C 19,3 C 0,0 km/h (0 Bft) 93,62 %
10.09.2018 10:42 19,4 C 20,6 C 32,2 C 72 % 1022,8 hPa 0,0 l/m 0,0 km/h (0 Bft) SW 215 2 min 0,000 mm 1,7 UV-I 578 W/m 14,2 C 19,4 C 0,0 km/h (0 Bft) 95,74 %
10.09.2018 10:44 19,5 C 20,6 C 31,7 C 71 % 1022,8 hPa 0,0 l/m 0,0 km/h (0 Bft) SW 225 2 min 0,000 mm 2,5 UV-I 500 W/m 14,1 C 19,5 C 0,0 km/h (0 Bft) 94,00 %
10.09.2018 10:46 19,3 C 20,6 C 31,1 C 71 % 1022,8 hPa 0,0 l/m 0,0 km/h (0 Bft) SW 226 0 min 0,000 mm 2,6 UV-I 312 W/m 13,9 C 19,3 C 0,0 km/h (0 Bft) 95,74 %
10.09.2018 10:48 19,4 C 20,6 C 31,7 C 72 % 1022,8 hPa 0,0 l/m 0,0 km/h (0 Bft) S-SW 213 0 min 0,000 mm 2,6 UV-I 208 W/m 14,2 C 19,4 C 0,0 km/h (0 Bft) 95,74 %
10.09.2018 10:50 19,7 C 20,6 C 31,7 C 73 % 1022,8 hPa 0,0 l/m 1,4 km/h (1 Bft) S-SW 213 2 min 0,000 mm 2,6 UV-I 343 W/m 14,7 C 19,7 C 6,4 km/h (2 Bft) 94,74 %
10.09.2018 10:52 19,7 C 20,6 C 31,1 C 70 % 1022,8 hPa 0,0 l/m 0,0 km/h (0 Bft) S-SW 213 2 min 0,000 mm 2,6 UV-I 378 W/m 14,1 C 19,7 C 0,0 km/h (0 Bft) 93,62 %
10.09.2018 10:54 19,8 C 20,6 C 31,7 C 70 % 1022,8 hPa 0,0 l/m 0,8 km/h (0 Bft) W 278 2 min 0,000 mm 2,7 UV-I 384 W/m 14,2 C 19,8 C 4,8 km/h (1 Bft) 91,49 %
10.09.2018 10:56 19,8 C 20,6 C 31,1 C 68 % 1022,8 hPa 0,0 l/m 1,2 km/h (1 Bft) W-NW 292 2 min 0,000 mm 2,7 UV-I 404 W/m 13,7 C 19,8 C 4,8 km/h (1 Bft) 93,62 %
10.09.2018 10:58 19,9 C 20,6 C 31,1 C 68 % 1022,8 hPa 0,0 l/m 1,6 km/h (1 Bft) W 277 2 min 0,000 mm 2,7 UV-I 412 W/m 13,8 C 19,9 C 6,4 km/h (2 Bft) 95,74 %
10.09.2018 11:00 19,9 C 20,6 C 31,1 C 67 % 1022,8 hPa 0,0 l/m 0,5 km/h (0 Bft) W-SW 255 2 min 0,000 mm 2,8 UV-I 430 W/m 13,6 C 19,9 C 4,8 km/h (1 Bft) 94,00 %
10.09.2018 11:02 20,0 C 20,6 C 31,7 C 67 % 1022,8 hPa 0,0 l/m 0,5 km/h (0 Bft) W-NW 295 2 min 0,280 mm 2,8 UV-I 446 W/m 13,7 C 20,0 C 4,8 km/h (1 Bft) 98,00 %
10.09.2018 11:04 20,1 C 20,6 C 31,7 C 69 % 1022,8 hPa 0,0 l/m 2,6 km/h (1 Bft) W 260 2 min 0,000 mm 2,8 UV-I 507 W/m 14,2 C 20,1 C 11,3 km/h (2 Bft) 95,74 %
10.09.2018 11:06 20,2 C 20,6 C 31,1 C 66 % 1022,8 hPa 0,0 l/m 3,1 km/h (1 Bft) W 264 2 min 0,000 mm 2,9 UV-I 530 W/m 13,6 C 20,2 C 6,4 km/h (2 Bft) 97,87 %
10.09.2018 11:08 20,2 C 20,6 C 31,7 C 66 % 1022,8 hPa 0,0 l/m 0,0 km/h (0 Bft) W 264 2 min 0,000 mm 2,9 UV-I 575 W/m 13,6 C 20,2 C 0,0 km/h (0 Bft) 97,87 %
10.09.2018 11:10 20,3 C 20,6 C 32,2 C 68 % 1022,8 hPa 0,0 l/m 0,0 km/h (0 Bft) W-SW 254 2 min 0,000 mm 2,2 UV-I 621 W/m 14,2 C 20,3 C 0,0 km/h (0 Bft) 97,87 %
10.09.2018 11:12 20,7 C 20,6 C 32,8 C 68 % 1022,8 hPa 0,0 l/m 0,0 km/h (0 Bft) W-SW 254 2 min 0,000 mm 2,9 UV-I 599 W/m 14,6 C 20,7 C 0,0 km/h (0 Bft) 97,92 %
10.09.2018 11:14 20,9 C 20,6 C 33,9 C 67 % 1022,8 hPa 0,0 l/m 1,1 km/h (1 Bft) S-SW 210 2 min 0,000 mm 3,0 UV-I 584 W/m 14,5 C 20,9 C 4,8 km/h (1 Bft) 97,37 %
10.09.2018 11:16 20,9 C 20,6 C 33,3 C 66 % 1022,8 hPa 0,0 l/m 0,0 km/h (0 Bft) W-SW 250 2 min 0,000 mm 3,0 UV-I 578 W/m 14,3 C 20,9 C 1,6 km/h (1 Bft) 98,00 %
10.09.2018 11:18 20,7 C 20,6 C 32,8 C 66 % 1022,8 hPa 0,0 l/m 0,0 km/h (0 Bft) W 265 2 min 0,000 mm 3,0 UV-I 591 W/m 14,1 C 20,7 C 0,0 km/h (0 Bft) 97,87 %
10.09.2018 11:20 20,8 C 20,6 C 32,8 C 66 % 1022,7 hPa 0,0 l/m 0,0 km/h (0 Bft) S-SW 212 2 min 0,000 mm 3,1 UV-I 631 W/m 14,2 C 20,8 C 1,6 km/h (1 Bft) 95,74 %
10.09.2018 11:22 20,8 C 20,6 C 32,2 C 67 % 1022,7 hPa 0,0 l/m 2,2 km/h (1 Bft) SW 219 2 min 0,000 mm 3,1 UV-I 641 W/m 14,4 C 20,8 C 8,0 km/h (2 Bft) 95,74 %
10.09.2018 11:24 20,9 C 20,6 C 31,7 C 65 % 1022,6 hPa 0,0 l/m 3,3 km/h (1 Bft) SW 234 2 min 0,000 mm 3,1 UV-I 556 W/m 14,1 C 20,9 C 9,7 km/h (2 Bft) 95,74 %
10.09.2018 11:26 21,0 C 20,6 C 32,2 C 66 % 1022,7 hPa 0,0 l/m 4,3 km/h (1 Bft) W 275 2 min 0,000 mm 3,1 UV-I 522 W/m 14,4 C 21,0 C 11,3 km/h (2 Bft) 100,00 %
10.09.2018 11:28 20,9 C 20,6 C 32,2 C 65 % 1022,7 hPa 0,0 l/m 1,6 km/h (1 Bft) SW 236 2 min 0,000 mm 3,2 UV-I 574 W/m 14,1 C 20,9 C 6,4 km/h (2 Bft) 97,87 %
10.09.2018 11:30 21,1 C 20,6 C 33,3 C 64 % 1022,7 hPa 0,0 l/m 0,1 km/h (0 Bft) SW 218 2 min 0,000 mm 3,2 UV-I 612 W/m 14,0 C 21,1 C 1,6 km/h (1 Bft) 97,87 %
10.09.2018 11:32 21,1 C 20,6 C 33,9 C 65 % 1022,7 hPa 0,0 l/m 1,0 km/h (0 Bft) W 275 2 min 0,000 mm 3,2 UV-I 646 W/m 14,3 C 21,1 C 4,8 km/h (1 Bft) 95,74 %
10.09.2018 11:34 21,2 C 20,6 C 33,3 C 63 % 1022,7 hPa 0,0 l/m 3,3 km/h (1 Bft) W 265 2 min 0,000 mm 3,2 UV-I 633 W/m 13,9 C 21,2 C 11,3 km/h (2 Bft) 97,87 %
10.09.2018 11:36 21,3 C 20,6 C 33,3 C 63 % 1022,7 hPa 0,0 l/m 1,8 km/h (1 Bft) W-SW 244 2 min 0,000 mm 3,3 UV-I 659 W/m 14,0 C 21,3 C 4,8 km/h (1 Bft) 97,87 %
10.09.2018 11:38 21,3 C 20,6 C 33,9 C 63 % 1022,6 hPa 0,0 l/m 1,5 km/h (1 Bft) W 267 2 min 0,000 mm 3,3 UV-I 619 W/m 14,0 C 21,3 C 4,8 km/h (1 Bft) 93,62 %
10.09.2018 11:40 21,4 C 21,1 C 34,4 C 62 % 1022,7 hPa 0,0 l/m 0,7 km/h (0 Bft) W-SW 241 2 min 0,000 mm 3,3 UV-I 665 W/m 13,8 C 21,4 C 3,2 km/h (1 Bft) 95,74 %
10.09.2018 11:42 21,4 C 21,1 C 34,4 C 64 % 1022,6 hPa 0,0 l/m 0,0 km/h (0 Bft) W-NW 298 2 min 0,000 mm 3,3 UV-I 651 W/m 14,3 C 21,4 C 0,0 km/h (0 Bft) 97,87 %
10.09.2018 11:44 21,6 C 21,1 C 34,4 C 63 % 1022,6 hPa 0,0 l/m 0,0 km/h (0 Bft) W-NW 300 2 min 0,000 mm 3,4 UV-I 662 W/m 14,2 C 21,6 C 0,0 km/h (0 Bft) 96,00 %
10.09.2018 11:46 21,8 C 21,1 C 34,4 C 64 % 1022,6 hPa 0,0 l/m 0,0 km/h (0 Bft) W-NW 302 2 min 0,000 mm 3,4 UV-I 670 W/m 14,7 C 21,8 C 0,0 km/h (0 Bft) 97,87 %
10.09.2018 11:48 21,7 C 21,1 C 34,4 C 62 % 1022,6 hPa 0,0 l/m 0,0 km/h (0 Bft) N-NW 332 2 min 0,000 mm 3,4 UV-I 670 W/m 14,1 C 21,7 C 0,0 km/h (0 Bft) 97,87 %
10.09.2018 11:50 21,7 C 21,1 C 34,4 C 62 % 1022,6 hPa 0,0 l/m 0,1 km/h (0 Bft) W-SW 257 2 min 0,000 mm 2,8 UV-I 674 W/m 14,1 C 21,7 C 1,6 km/h (1 Bft) 97,92 %
10.09.2018 11:52 21,8 C 21,1 C 34,4 C 61 % 1022,6 hPa 0,0 l/m 3,2 km/h (1 Bft) SW 224 2 min 0,000 mm 3,5 UV-I 678 W/m 13,9 C 21,8 C 9,7 km/h (2 Bft) 94,74 %
10.09.2018 11:54 22,0 C 21,1 C 34,4 C 62 % 1022,6 hPa 0,0 l/m 3,4 km/h (1 Bft) W-SW 256 2 min 0,000 mm 3,5 UV-I 679 W/m 14,4 C 22,0 C 6,4 km/h (2 Bft) 97,87 %
10.09.2018 11:56 22,2 C 21,1 C 34,4 C 62 % 1022,6 hPa 0,0 l/m 0,2 km/h (0 Bft) NO 36 2 min 0,000 mm 3,5 UV-I 680 W/m 14,6 C 22,2 C 3,2 km/h (1 Bft) 100,00 %
10.09.2018 11:58 22,3 C 21,1 C 34,4 C 61 % 1022,6 hPa 0,0 l/m 1,7 km/h (1 Bft) SW 235 2 min 0,000 mm 3,0 UV-I 680 W/m 14,4 C 22,3 C 6,4 km/h (2 Bft) 100,00 %
10.09.2018 12:00 22,5 C 21,1 C 34,4 C 61 % 1022,6 hPa 0,0 l/m 0,8 km/h (0 Bft) N-NW 333 2 min 0,381 mm 3,0 UV-I 683 W/m 14,6 C 22,5 C 3,2 km/h (1 Bft) 97,87 %
10.09.2018 12:02 22,5 C 21,1 C 33,9 C 60 % 1022,6 hPa 0,0 l/m 2,3 km/h (1 Bft) N-NW 345 2 min 0,000 mm 3,5 UV-I 684 W/m 14,3 C 22,5 C 6,4 km/h (2 Bft) 97,87 %
10.09.2018 12:04 22,6 C 21,1 C 34,4 C 59 % 1022,6 hPa 0,0 l/m 1,6 km/h (1 Bft) N 355 2 min 0,000 mm 3,6 UV-I 684 W/m 14,2 C 22,6 C 6,4 km/h (2 Bft) 100,00 %
10.09.2018 12:06 22,5 C 21,1 C 34,4 C 60 % 1022,6 hPa 0,0 l/m 0,0 km/h (0 Bft) N 355 2 min 0,000 mm 3,6 UV-I 683 W/m 14,3 C 22,5 C 0,0 km/h (0 Bft) 100,00 %
10.09.2018 12:08 22,6 C 21,1 C 34,4 C 60 % 1022,6 hPa 0,0 l/m 0,9 km/h (0 Bft) NO 41 2 min 0,000 mm 3,6 UV-I 686 W/m 14,4 C 22,6 C 4,8 km/h (1 Bft) 100,00 %
10.09.2018 12:10 22,6 C 21,1 C 34,4 C 61 % 1022,6 hPa 0,0 l/m 0,8 km/h (0 Bft) W-NW 287 2 min 0,000 mm 3,6 UV-I 650 W/m 14,7 C 22,6 C 3,2 km/h (1 Bft) 100,00 %
10.09.2018 12:12 22,7 C 21,1 C 33,3 C 58 % 1022,6 hPa 0,0 l/m 3,0 km/h (1 Bft) N 350 2 min 0,000 mm 3,6 UV-I 689 W/m 14,0 C 22,7 C 6,4 km/h (2 Bft) 97,87 %
10.09.2018 12:14 22,6 C 21,1 C 33,9 C 58 % 1022,6 hPa 0,0 l/m 0,6 km/h (0 Bft) W-NW 298 2 min 0,000 mm 3,6 UV-I 692 W/m 13,9 C 22,6 C 4,8 km/h (1 Bft) 98,00 %
10.09.2018 12:16 22,5 C 21,1 C 33,3 C 57 % 1022,6 hPa 0,0 l/m 1,0 km/h (0 Bft) NW 324 2 min 0,000 mm 3,7 UV-I 693 W/m 13,5 C 22,5 C 6,4 km/h (2 Bft) 100,00 %
10.09.2018 12:18 22,3 C 21,1 C 33,9 C 56 % 1022,6 hPa 0,0 l/m 0,0 km/h (0 Bft) SW 229 2 min 0,000 mm 3,7 UV-I 694 W/m 13,1 C 22,3 C 1,6 km/h (1 Bft) 97,87 %
10.09.2018 12:20 22,4 C 21,1 C 33,9 C 57 % 1022,6 hPa 0,0 l/m 2,2 km/h (1 Bft) W-SW 240 2 min 0,000 mm 3,7 UV-I 699 W/m 13,5 C 22,4 C 6,4 km/h (2 Bft) 100,00 %
10.09.2018 12:22 22,6 C 21,1 C 34,4 C 57 % 1022,5 hPa 0,0 l/m 1,2 km/h (1 Bft) SW 216 2 min 0,000 mm 3,7 UV-I 700 W/m 13,6 C 22,6 C 4,8 km/h (1 Bft) 97,22 %
10.09.2018 12:24 22,8 C 21,1 C 35,6 C 56 % 1022,6 hPa 0,0 l/m 0,5 km/h (0 Bft) SW 233 2 min 0,000 mm 3,7 UV-I 700 W/m 13,6 C 22,8 C 3,2 km/h (1 Bft) 98,00 %
10.09.2018 12:26 22,9 C 21,1 C 35,6 C 54 % 1022,6 hPa 0,0 l/m 0,0 km/h (0 Bft) S-SW 196 2 min 0,000 mm 2,5 UV-I 702 W/m 13,1 C 22,9 C 0,0 km/h (0 Bft) 97,87 %
10.09.2018 12:28 23,0 C 21,1 C 35,6 C 57 % 1022,6 hPa 0,0 l/m 1,1 km/h (1 Bft) W-NW 289 2 min 0,000 mm 3,7 UV-I 700 W/m 14,0 C 23,0 C 6,4 km/h (2 Bft) 97,87 %
10.09.2018 12:30 23,0 C 21,1 C 35,0 C 57 % 1022,5 hPa 0,0 l/m 0,1 km/h (0 Bft) W 271 2 min 0,000 mm 3,7 UV-I 700 W/m 14,0 C 23,0 C 1,6 km/h (1 Bft) 95,74 %
10.09.2018 12:32 22,9 C 21,1 C 34,4 C 56 % 1022,5 hPa 0,0 l/m 0,8 km/h (0 Bft) W 278 2 min 0,000 mm 3,8 UV-I 701 W/m 13,6 C 22,9 C 3,2 km/h (1 Bft) 96,00 %
10.09.2018 12:34 22,8 C 21,1 C 34,4 C 56 % 1022,5 hPa 0,0 l/m 0,0 km/h (0 Bft) S-SW 200 2 min 0,000 mm 3,8 UV-I 700 W/m 13,6 C 22,8 C 0,0 km/h (0 Bft) 94,00 %
10.09.2018 12:36 22,8 C 21,1 C 34,4 C 55 % 1022,5 hPa 0,0 l/m 0,1 km/h (0 Bft) S-SW 198 2 min 0,000 mm 3,8 UV-I 700 W/m 13,3 C 22,8 C 1,6 km/h (1 Bft) 95,74 %
10.09.2018 12:38 22,8 C 21,1 C 34,4 C 57 % 1022,4 hPa 0,0 l/m 0,1 km/h (0 Bft) N 350 2 min 0,000 mm 3,8 UV-I 703 W/m 13,8 C 22,8 C 1,6 km/h (1 Bft) 95,74 %
10.09.2018 12:40 23,1 C 21,1 C 33,9 C 58 % 1022,4 hPa 0,0 l/m 5,0 km/h (1 Bft) N-NO 14 2 min 0,000 mm 3,8 UV-I 705 W/m 14,4 C 23,1 C 9,7 km/h (2 Bft) 95,74 %
10.09.2018 12:42 23,3 C 21,1 C 34,4 C 57 % 1022,3 hPa 0,0 l/m 1,0 km/h (0 Bft) W 263 2 min 0,000 mm 3,8 UV-I 706 W/m 14,3 C 23,3 C 3,2 km/h (1 Bft) 97,37 %
10.09.2018 12:44 23,2 C 21,1 C 34,4 C 54 % 1022,3 hPa 0,0 l/m 1,3 km/h (1 Bft) W-NW 291 2 min 0,000 mm 3,8 UV-I 708 W/m 13,4 C 23,2 C 6,4 km/h (2 Bft) 93,62 %
10.09.2018 12:46 23,0 C 21,1 C 34,4 C 56 % 1022,2 hPa 0,0 l/m 0,4 km/h (0 Bft) NO 40 2 min 0,000 mm 3,9 UV-I 714 W/m 13,7 C 23,0 C 3,2 km/h (1 Bft) 95,74 %
10.09.2018 12:48 23,0 C 21,1 C 35,0 C 54 % 1022,2 hPa 0,0 l/m 0,0 km/h (0 Bft) NO 40 2 min 0,000 mm 3,9 UV-I 713 W/m 13,2 C 23,0 C 0,0 km/h (0 Bft) 95,74 %
10.09.2018 12:50 23,1 C 21,1 C 35,6 C 58 % 1022,2 hPa 0,0 l/m 0,1 km/h (0 Bft) NO 53 2 min 0,000 mm 3,9 UV-I 714 W/m 14,4 C 23,1 C 1,6 km/h (1 Bft) 97,87 %
10.09.2018 12:52 23,2 C 21,1 C 36,1 C 55 % 1022,2 hPa 0,0 l/m 0,0 km/h (0 Bft) N-NO 15 2 min 0,000 mm 3,9 UV-I 715 W/m 13,6 C 23,2 C 0,0 km/h (0 Bft) 98,00 %
10.09.2018 12:54 23,3 C 21,1 C 35,6 C 58 % 1022,1 hPa 0,0 l/m 0,0 km/h (0 Bft) N-NO 17 2 min 0,000 mm 3,9 UV-I 714 W/m 14,6 C 23,3 C 1,6 km/h (1 Bft) 97,87 %
10.09.2018 12:56 23,4 C 21,1 C 36,7 C 53 % 1022,1 hPa 0,0 l/m 0,0 km/h (0 Bft) N-NO 17 2 min 0,000 mm 3,9 UV-I 717 W/m 13,3 C 23,4 C 0,0 km/h (0 Bft) 100,00 %
10.09.2018 12:58 23,5 C 21,1 C 36,7 C 53 % 1022,1 hPa 0,0 l/m 0,0 km/h (0 Bft) NW 315 2 min 0,000 mm 3,9 UV-I 716 W/m 13,4 C 23,5 C 0,0 km/h (0 Bft) 100,00 %
10.09.2018 13:00 23,7 C 21,1 C 36,1 C 51 % 1022,1 hPa 0,0 l/m 5,4 km/h (1 Bft) S-SW 208 2 min 0,000 mm 3,9 UV-I 712 W/m 13,0 C 23,7 C 12,9 km/h (3 Bft) 100,00 %
10.09.2018 13:02 23,9 C 21,1 C 36,7 C 52 % 1022,1 hPa 0,0 l/m 1,6 km/h (1 Bft) S-SW 209 2 min 0,432 mm 3,9 UV-I 715 W/m 13,4 C 23,9 C 6,4 km/h (2 Bft) 100,00 %
10.09.2018 13:04 24,1 C 21,1 C 36,1 C 49 % 1022,1 hPa 0,0 l/m 4,3 km/h (1 Bft) SW 229 2 min 0,000 mm 3,9 UV-I 720 W/m 12,7 C 24,1 C 8,0 km/h (2 Bft) 96,00 %
10.09.2018 13:06 24,1 C 21,1 C 35,0 C 48 % 1022,1 hPa 0,0 l/m 7,3 km/h (2 Bft) W-SW 249 2 min 0,000 mm 3,9 UV-I 720 W/m 12,4 C 23,8 C 11,3 km/h (2 Bft) 98,00 %
10.09.2018 13:08 24,1 C 21,1 C 35,0 C 47 % 1022,2 hPa 0,0 l/m 8,7 km/h (2 Bft) W-SW 246 2 min 0,000 mm 3,9 UV-I 716 W/m 12,1 C 23,5 C 14,5 km/h (3 Bft) 95,74 %
10.09.2018 13:10 24,2 C 21,1 C 35,0 C 47 % 1022,2 hPa 0,0 l/m 3,4 km/h (1 Bft) SW 221 2 min 0,000 mm 3,9 UV-I 713 W/m 12,2 C 24,2 C 9,7 km/h (2 Bft) 97,87 %
10.09.2018 13:12 24,2 C 21,7 C 35,0 C 47 % 1022,2 hPa 0,0 l/m 0,7 km/h (0 Bft) S 178 2 min 0,000 mm 3,2 UV-I 713 W/m 12,2 C 24,2 C 3,2 km/h (1 Bft) 95,74 %
10.09.2018 13:14 24,1 C 21,1 C 34,4 C 48 % 1022,1 hPa 0,0 l/m 1,4 km/h (1 Bft) W-SW 250 2 min 0,000 mm 3,8 UV-I 706 W/m 12,4 C 24,1 C 8,0 km/h (2 Bft) 95,74 %
10.09.2018 13:16 23,9 C 21,1 C 33,9 C 49 % 1022,1 hPa 0,0 l/m 4,8 km/h (1 Bft) W 279 2 min 0,000 mm 3,8 UV-I 705 W/m 12,5 C 23,9 C 12,9 km/h (3 Bft) 97,87 %
10.09.2018 13:18 24,0 C 21,7 C 33,9 C 47 % 1022,2 hPa 0,0 l/m 6,5 km/h (2 Bft) W 267 2 min 0,000 mm 3,8 UV-I 706 W/m 12,0 C 24,0 C 14,5 km/h (3 Bft) 97,87 %
10.09.2018 13:20 23,9 C 21,7 C 33,9 C 48 % 1022,2 hPa 0,0 l/m 3,7 km/h (1 Bft) W-NW 294 2 min 0,000 mm 3,9 UV-I 710 W/m 12,2 C 23,9 C 11,3 km/h (2 Bft) 97,87 %
10.09.2018 13:22 23,9 C 21,7 C 33,9 C 46 % 1022,1 hPa 0,0 l/m 3,9 km/h (1 Bft) W 262 2 min 0,000 mm 3,8 UV-I 708 W/m 11,6 C 23,9 C 9,7 km/h (2 Bft) 96,00 %
10.09.2018 13:24 23,9 C 21,7 C 35,0 C 47 % 1022,1 hPa 0,0 l/m 0,0 km/h (0 Bft) W 262 2 min 0,000 mm 3,8 UV-I 675 W/m 11,9 C 23,9 C 0,0 km/h (0 Bft) 97,87 %
10.09.2018 13:26 23,9 C 21,7 C 35,6 C 47 % 1022,1 hPa 0,0 l/m 0,0 km/h (0 Bft) SW 233 2 min 0,000 mm 3,8 UV-I 708 W/m 11,9 C 23,9 C 0,0 km/h (0 Bft) 97,14 %
10.09.2018 13:28 24,1 C 21,7 C 35,6 C 49 % 1022,1 hPa 0,0 l/m 0,0 km/h (0 Bft) W-NW 300 2 min 0,000 mm 3,8 UV-I 707 W/m 12,7 C 24,1 C 0,0 km/h (0 Bft) 97,87 %
10.09.2018 13:30 24,1 C 21,7 C 35,6 C 48 % 1022,1 hPa 0,0 l/m 1,2 km/h (1 Bft) W-SW 238 2 min 0,000 mm 3,8 UV-I 700 W/m 12,4 C 24,1 C 14,5 km/h (3 Bft) 97,87 %
10.09.2018 13:32 24,2 C 21,7 C 35,0 C 47 % 1022,0 hPa 0,0 l/m 9,0 km/h (2 Bft) W-SW 253 2 min 0,000 mm 3,8 UV-I 700 W/m 12,2 C 23,5 C 22,5 km/h (4 Bft) 97,87 %
10.09.2018 13:34 24,3 C 21,7 C 35,0 C 48 % 1022,1 hPa 0,0 l/m 0,9 km/h (0 Bft) NW 312 2 min 0,000 mm 3,8 UV-I 702 W/m 12,6 C 24,3 C 4,8 km/h (1 Bft) 100,00 %
10.09.2018 13:36 24,3 C 21,7 C 35,0 C 45 % 1022,1 hPa 0,0 l/m 4,9 km/h (1 Bft) SW 223 2 min 0,000 mm 3,8 UV-I 702 W/m 11,6 C 24,3 C 16,1 km/h (3 Bft) 98,00 %
10.09.2018 13:38 24,3 C 21,7 C 34,4 C 46 % 1022,1 hPa 0,0 l/m 1,0 km/h (0 Bft) S-SW 209 2 min 0,000 mm 3,8 UV-I 703 W/m 11,9 C 24,3 C 6,4 km/h (2 Bft) 100,00 %
10.09.2018 13:40 24,2 C 21,7 C 34,4 C 44 % 1022,1 hPa 0,0 l/m 3,0 km/h (1 Bft) W 275 2 min 0,000 mm 3,7 UV-I 696 W/m 11,2 C 24,2 C 9,7 km/h (2 Bft) 100,00 %
10.09.2018 13:42 24,3 C 21,7 C 35,0 C 45 % 1022,0 hPa 0,0 l/m 2,2 km/h (1 Bft) SW 232 2 min 0,000 mm 3,7 UV-I 694 W/m 11,6 C 24,3 C 14,5 km/h (3 Bft) 100,00 %
10.09.2018 13:44 24,4 C 21,7 C 35,0 C 46 % 1022,1 hPa 0,0 l/m 6,3 km/h (2 Bft) S-SW 205 2 min 0,000 mm 3,7 UV-I 692 W/m 12,0 C 24,4 C 12,9 km/h (3 Bft) 100,00 %
10.09.2018 13:46 24,6 C 21,7 C 35,0 C 45 % 1022,1 hPa 0,0 l/m 2,2 km/h (1 Bft) W 275 2 min 0,000 mm 3,7 UV-I 688 W/m 11,9 C 24,6 C 6,4 km/h (2 Bft) 95,74 %
10.09.2018 13:48 24,5 C 21,7 C 34,4 C 44 % 1022,1 hPa 0,0 l/m 6,0 km/h (2 Bft) W-SW 239 2 min 0,000 mm 3,7 UV-I 687 W/m 11,4 C 24,5 C 12,9 km/h (3 Bft) 97,87 %
10.09.2018 13:50 24,4 C 21,7 C 33,9 C 47 % 1022,0 hPa 0,0 l/m 8,2 km/h (2 Bft) SW 228 2 min 0,000 mm 3,7 UV-I 690 W/m 12,3 C 23,9 C 16,1 km/h (3 Bft) 100,00 %
10.09.2018 13:52 24,7 C 21,7 C 33,9 C 47 % 1022,0 hPa 0,0 l/m 3,4 km/h (1 Bft) W-SW 243 2 min 0,000 mm 3,6 UV-I 682 W/m 12,6 C 24,7 C 8,0 km/h (2 Bft) 100,00 %
10.09.2018 13:54 24,7 C 21,7 C 33,9 C 47 % 1022,0 hPa 0,0 l/m 9,6 km/h (2 Bft) W-NW 283 2 min 0,000 mm 3,6 UV-I 682 W/m 12,6 C 23,9 C 20,9 km/h (4 Bft) 100,00 %
10.09.2018 13:56 24,7 C 21,7 C 33,9 C 45 % 1022,0 hPa 0,0 l/m 10,3 km/h (2 Bft) W-SW 253 2 min 0,000 mm 3,5 UV-I 679 W/m 12,0 C 23,8 C 14,5 km/h (3 Bft) 100,00 %
10.09.2018 13:58 24,5 C 21,7 C 33,9 C 45 % 1022,0 hPa 0,0 l/m 6,1 km/h (2 Bft) W 270 2 min 0,000 mm 3,5 UV-I 670 W/m 11,8 C 24,5 C 9,7 km/h (2 Bft) 98,00 %
10.09.2018 14:00 24,4 C 21,7 C 33,3 C 46 % 1022,0 hPa 0,0 l/m 5,8 km/h (2 Bft) W-SW 249 2 min 0,457 mm 3,5 UV-I 675 W/m 12,0 C 24,4 C 11,3 km/h (2 Bft) 100,00 %
10.09.2018 14:02 24,4 C 21,7 C 33,9 C 47 % 1022,0 hPa 0,0 l/m 3,6 km/h (1 Bft) SW 220 2 min 0,000 mm 3,5 UV-I 677 W/m 12,3 C 24,4 C 9,7 km/h (2 Bft) 100,00 %
10.09.2018 14:04 24,6 C 21,7 C 33,9 C 45 % 1022,0 hPa 0,0 l/m 4,9 km/h (1 Bft) NW 309 2 min 0,000 mm 3,5 UV-I 675 W/m 11,9 C 24,6 C 12,9 km/h (3 Bft) 100,00 %
10.09.2018 14:06 24,6 C 21,7 C 33,9 C 45 % 1021,9 hPa 0,0 l/m 3,8 km/h (1 Bft) W-SW 246 2 min 0,000 mm 2,9 UV-I 669 W/m 11,9 C 24,6 C 11,3 km/h (2 Bft) 100,00 %
10.09.2018 14:08 24,8 C 21,7 C 34,4 C 45 % 1021,9 hPa 0,0 l/m 5,4 km/h (1 Bft) W-SW 249 2 min 0,000 mm 3,5 UV-I 666 W/m 12,0 C 24,8 C 14,5 km/h (3 Bft) 96,00 %
10.09.2018 14:10 24,9 C 21,7 C 34,4 C 45 % 1021,8 hPa 0,0 l/m 11,0 km/h (2 Bft) SW 235 2 min 0,000 mm 3,4 UV-I 659 W/m 12,1 C 23,9 C 19,3 km/h (3 Bft) 97,87 %
10.09.2018 14:12 24,9 C 21,7 C 33,3 C 42 % 1021,8 hPa 0,0 l/m 8,9 km/h (2 Bft) W 265 2 min 0,000 mm 3,4 UV-I 668 W/m 11,1 C 24,3 C 16,1 km/h (3 Bft) 97,87 %
10.09.2018 14:14 24,9 C 21,7 C 33,9 C 43 % 1021,7 hPa 0,0 l/m 4,0 km/h (1 Bft) S-SW 203 2 min 0,000 mm 3,4 UV-I 667 W/m 11,4 C 24,9 C 12,9 km/h (3 Bft) 100,00 %
10.09.2018 14:16 24,9 C 21,7 C 34,4 C 44 % 1021,7 hPa 0,0 l/m 1,5 km/h (1 Bft) W-SW 247 2 min 0,000 mm 3,1 UV-I 665 W/m 11,8 C 24,9 C 3,2 km/h (1 Bft) 98,00 %
10.09.2018 14:18 24,9 C 21,7 C 35,0 C 43 % 1021,7 hPa 0,0 l/m 0,2 km/h (0 Bft) S-SW 196 2 min 0,000 mm 3,4 UV-I 664 W/m 11,4 C 24,9 C 3,2 km/h (1 Bft) 100,00 %
10.09.2018 14:20 25,1 C 21,7 C 35,0 C 46 % 1021,7 hPa 0,0 l/m 5,7 km/h (1 Bft) W-SW 257 2 min 0,000 mm 3,3 UV-I 655 W/m 12,7 C 25,1 C 12,9 km/h (3 Bft) 97,87 %
10.09.2018 14:22 25,2 C 21,7 C 33,9 C 45 % 1021,8 hPa 0,0 l/m 8,3 km/h (2 Bft) W 267 2 min 0,000 mm 3,3 UV-I 657 W/m 12,4 C 24,7 C 16,1 km/h (3 Bft) 97,87 %
10.09.2018 14:24 25,1 C 21,7 C 33,9 C 42 % 1021,7 hPa 0,0 l/m 6,9 km/h (2 Bft) W-NW 293 2 min 0,000 mm 3,3 UV-I 661 W/m 11,3 C 25,0 C 12,9 km/h (3 Bft) 97,44 %
10.09.2018 14:26 25,0 C 21,7 C 33,9 C 44 % 1021,7 hPa 0,0 l/m 1,0 km/h (0 Bft) W 265 2 min 0,000 mm 3,2 UV-I 657 W/m 11,9 C 25,0 C 6,4 km/h (2 Bft) 97,87 %
10.09.2018 14:28 25,2 C 21,7 C 34,4 C 43 % 1021,7 hPa 0,0 l/m 7,4 km/h (2 Bft) W-SW 249 2 min 0,000 mm 3,2 UV-I 650 W/m 11,7 C 25,0 C 14,5 km/h (3 Bft) 95,74 %
10.09.2018 14:30 25,2 C 21,7 C 35,0 C 43 % 1021,7 hPa 0,0 l/m 6,8 km/h (2 Bft) SW 219 2 min 0,000 mm 3,2 UV-I 650 W/m 11,7 C 25,1 C 12,9 km/h (3 Bft) 96,00 %
10.09.2018 14:32 25,4 C 21,7 C 34,4 C 45 % 1021,6 hPa 0,0 l/m 4,9 km/h (1 Bft) SW 231 2 min 0,000 mm 3,2 UV-I 642 W/m 12,6 C 25,4 C 14,5 km/h (3 Bft) 95,74 %
10.09.2018 14:34 25,4 C 21,7 C 34,4 C 44 % 1021,6 hPa 0,0 l/m 2,0 km/h (1 Bft) W-NW 286 2 min 0,000 mm 3,2 UV-I 646 W/m 12,2 C 25,4 C 9,7 km/h (2 Bft) 95,74 %
10.09.2018 14:36 25,4 C 21,7 C 35,0 C 44 % 1021,6 hPa 0,0 l/m 0,2 km/h (0 Bft) N-NW 338 2 min 0,000 mm 3,2 UV-I 646 W/m 12,2 C 25,4 C 4,8 km/h (1 Bft) 95,74 %
10.09.2018 14:38 25,4 C 21,7 C 34,4 C 44 % 1021,6 hPa 0,0 l/m 6,2 km/h (2 Bft) NW 315 2 min 0,000 mm 3,1 UV-I 641 W/m 12,2 C 25,4 C 14,5 km/h (3 Bft) 94,00 %
10.09.2018 14:40 25,3 C 21,7 C 33,9 C 42 % 1021,6 hPa 0,0 l/m 4,9 km/h (1 Bft) W-NW 291 2 min 0,000 mm 3,1 UV-I 638 W/m 11,5 C 25,3 C 12,9 km/h (3 Bft) 95,74 %
10.09.2018 14:42 25,4 C 21,7 C 33,9 C 43 % 1021,6 hPa 0,0 l/m 7,2 km/h (2 Bft) W 275 2 min 0,000 mm 3,1 UV-I 640 W/m 11,9 C 25,2 C 14,5 km/h (3 Bft) 93,62 %
10.09.2018 14:44 25,4 C 21,7 C 33,9 C 43 % 1021,7 hPa 0,0 l/m 0,8 km/h (0 Bft) NW 323 2 min 0,000 mm 3,1 UV-I 635 W/m 11,9 C 25,4 C 4,8 km/h (1 Bft) 93,62 %
10.09.2018 14:46 25,4 C 21,7 C 34,4 C 42 % 1021,7 hPa 0,0 l/m 0,0 km/h (0 Bft) NO 47 2 min 0,000 mm 3,1 UV-I 640 W/m 11,5 C 25,4 C 0,0 km/h (0 Bft) 91,43 %
10.09.2018 14:48 25,3 C 22,2 C 33,9 C 41 % 1021,6 hPa 0,0 l/m 4,0 km/h (1 Bft) NW 315 2 min 0,000 mm 3,1 UV-I 637 W/m 11,1 C 25,3 C 8,0 km/h (2 Bft) 92,16 %
10.09.2018 14:50 25,4 C 22,2 C 34,4 C 42 % 1021,7 hPa 0,0 l/m 1,0 km/h (0 Bft) W 269 2 min 0,000 mm 3,0 UV-I 638 W/m 11,5 C 25,4 C 4,8 km/h (1 Bft) 93,62 %
10.09.2018 14:52 25,4 C 22,2 C 35,0 C 43 % 1021,6 hPa 0,0 l/m 0,7 km/h (0 Bft) N-NO 31 2 min 0,000 mm 3,0 UV-I 509 W/m 11,9 C 25,4 C 3,2 km/h (1 Bft) 91,49 %
10.09.2018 14:54 25,5 C 22,2 C 35,0 C 42 % 1021,6 hPa 0,0 l/m 0,1 km/h (0 Bft) W 278 2 min 0,000 mm 2,8 UV-I 505 W/m 11,6 C 25,5 C 1,6 km/h (1 Bft) 95,74 %
10.09.2018 14:56 25,5 C 22,2 C 35,0 C 40 % 1021,6 hPa 0,0 l/m 0,3 km/h (0 Bft) W-NW 300 2 min 0,000 mm 2,8 UV-I 579 W/m 10,9 C 25,5 C 6,4 km/h (2 Bft) 92,45 %
10.09.2018 14:58 25,5 C 22,2 C 33,9 C 41 % 1021,6 hPa 0,0 l/m 4,3 km/h (1 Bft) W 273 2 min 0,000 mm 2,8 UV-I 607 W/m 11,3 C 25,5 C 12,9 km/h (3 Bft) 93,62 %
10.09.2018 15:00 25,4 C 22,2 C 33,9 C 41 % 1021,6 hPa 0,0 l/m 1,3 km/h (1 Bft) NW 323 2 min 0,432 mm 2,6 UV-I 553 W/m 11,2 C 25,4 C 9,7 km/h (2 Bft) 95,83 %
10.09.2018 15:02 25,4 C 22,2 C 32,2 C 42 % 1021,6 hPa 0,0 l/m 9,9 km/h (2 Bft) N 11 2 min 0,000 mm 2,5 UV-I 506 W/m 11,5 C 24,6 C 14,5 km/h (3 Bft) 95,74 %
10.09.2018 15:04 25,4 C 22,2 C 32,2 C 44 % 1021,6 hPa 0,0 l/m 4,0 km/h (1 Bft) N 9 2 min 0,000 mm 2,6 UV-I 553 W/m 12,2 C 25,4 C 12,9 km/h (3 Bft) 94,29 %
10.09.2018 15:06 25,4 C 22,2 C 32,8 C 41 % 1021,6 hPa 0,0 l/m 1,9 km/h (1 Bft) W-SW 250 2 min 0,000 mm 2,7 UV-I 589 W/m 11,2 C 25,4 C 8,0 km/h (2 Bft) 95,74 %
10.09.2018 15:08 25,5 C 22,2 C 33,3 C 41 % 1021,6 hPa 0,0 l/m 1,1 km/h (1 Bft) W-SW 251 2 min 0,000 mm 2,7 UV-I 575 W/m 11,3 C 25,5 C 6,4 km/h (2 Bft) 96,08 %
10.09.2018 15:10 25,6 C 22,2 C 33,9 C 42 % 1021,6 hPa 0,0 l/m 0,9 km/h (0 Bft) W 268 2 min 0,000 mm 2,7 UV-I 590 W/m 11,7 C 25,6 C 4,8 km/h (1 Bft) 98,00 %
10.09.2018 15:12 25,7 C 22,2 C 33,9 C 42 % 1021,6 hPa 0,0 l/m 4,2 km/h (1 Bft) W 262 2 min 0,000 mm 2,6 UV-I 592 W/m 11,8 C 25,7 C 9,7 km/h (2 Bft) 97,87 %
10.09.2018 15:14 25,6 C 22,2 C 33,9 C 41 % 1021,5 hPa 0,0 l/m 2,9 km/h (1 Bft) W-NW 296 2 min 0,000 mm 2,5 UV-I 569 W/m 11,4 C 25,6 C 4,8 km/h (1 Bft) 95,74 %
10.09.2018 15:16 25,6 C 22,2 C 33,9 C 41 % 1021,5 hPa 0,0 l/m 2,0 km/h (1 Bft) W-SW 246 2 min 0,000 mm 2,4 UV-I 527 W/m 11,4 C 25,6 C 6,4 km/h (2 Bft) 95,74 %
10.09.2018 15:18 25,5 C 22,2 C 32,2 C 41 % 1021,5 hPa 0,0 l/m 11,6 km/h (2 Bft) W 280 2 min 0,000 mm 2,2 UV-I 472 W/m 11,3 C 24,4 C 19,3 km/h (3 Bft) 97,87 %
10.09.2018 15:20 25,3 C 22,2 C 31,7 C 40 % 1021,5 hPa 0,0 l/m 7,2 km/h (2 Bft) W-SW 246 2 min 0,000 mm 2,2 UV-I 482 W/m 10,7 C 25,1 C 14,5 km/h (3 Bft) 95,74 %
10.09.2018 15:22 25,3 C 22,2 C 32,2 C 40 % 1021,5 hPa 0,0 l/m 4,8 km/h (1 Bft) W 279 2 min 0,000 mm 2,3 UV-I 543 W/m 10,7 C 25,3 C 12,9 km/h (3 Bft) 97,87 %
10.09.2018 15:24 25,4 C 22,2 C 32,2 C 41 % 1021,5 hPa 0,0 l/m 1,1 km/h (1 Bft) W-NW 289 2 min 0,000 mm 2,3 UV-I 534 W/m 11,2 C 25,4 C 6,4 km/h (2 Bft) 95,74 %
10.09.2018 15:26 25,5 C 22,2 C 32,2 C 41 % 1021,5 hPa 0,0 l/m 1,6 km/h (1 Bft) NW 318 2 min 0,000 mm 2,3 UV-I 531 W/m 11,3 C 25,5 C 9,7 km/h (2 Bft) 95,74 %
10.09.2018 15:28 25,6 C 22,2 C 32,8 C 43 % 1021,5 hPa 0,0 l/m 0,0 km/h (0 Bft) W 262 2 min 0,000 mm 2,3 UV-I 551 W/m 12,1 C 25,6 C 1,6 km/h (1 Bft) 97,87 %
10.09.2018 15:30 25,6 C 22,2 C 32,2 C 39 % 1021,5 hPa 0,0 l/m 6,4 km/h (2 Bft) W-SW 256 2 min 0,000 mm 2,3 UV-I 528 W/m 10,6 C 25,6 C 12,9 km/h (3 Bft) 97,87 %
10.09.2018 15:32 25,5 C 22,2 C 32,2 C 40 % 1021,4 hPa 0,0 l/m 2,3 km/h (1 Bft) W-NW 289 2 min 0,000 mm 2,1 UV-I 417 W/m 10,9 C 25,5 C 8,0 km/h (2 Bft) 97,87 %
10.09.2018 15:34 25,5 C 22,2 C 32,2 C 39 % 1021,4 hPa 0,0 l/m 1,3 km/h (1 Bft) W 259 2 min 0,000 mm 2,1 UV-I 404 W/m 10,5 C 25,5 C 14,5 km/h (3 Bft) 97,87 %
10.09.2018 15:36 25,5 C 22,2 C 31,7 C 40 % 1021,4 hPa 0,0 l/m 9,1 km/h (2 Bft) W-NW 300 2 min 0,000 mm 2,1 UV-I 465 W/m 10,9 C 24,9 C 16,1 km/h (3 Bft) 95,74 %
10.09.2018 15:38 25,5 C 22,2 C 31,7 C 40 % 1021,4 hPa 0,0 l/m 3,9 km/h (1 Bft) SW 232 2 min 0,000 mm 2,1 UV-I 464 W/m 10,9 C 25,5 C 9,7 km/h (2 Bft) 100,00 %
10.09.2018 15:40 25,4 C 22,2 C 31,7 C 40 % 1021,3 hPa 0,0 l/m 2,4 km/h (1 Bft) W 263 2 min 0,000 mm 2,0 UV-I 443 W/m 10,8 C 25,4 C 12,9 km/h (3 Bft) 100,00 %
10.09.2018 15:42 25,4 C 22,2 C 32,2 C 39 % 1021,3 hPa 0,0 l/m 2,1 km/h (1 Bft) W 277 2 min 0,000 mm 2,0 UV-I 451 W/m 10,4 C 25,4 C 6,4 km/h (2 Bft) 100,00 %
10.09.2018 15:44 25,4 C 22,2 C 32,2 C 39 % 1021,3 hPa 0,0 l/m 0,7 km/h (0 Bft) S-SW 198 2 min 0,000 mm 2,0 UV-I 480 W/m 10,4 C 25,4 C 4,8 km/h (1 Bft) 100,00 %
10.09.2018 15:46 25,4 C 22,2 C 32,2 C 40 % 1021,3 hPa 0,0 l/m 0,4 km/h (0 Bft) W-SW 249 2 min 0,000 mm 2,0 UV-I 519 W/m 10,8 C 25,4 C 6,4 km/h (2 Bft) 100,00 %
10.09.2018 15:48 25,4 C 22,2 C 32,2 C 39 % 1021,2 hPa 0,0 l/m 3,2 km/h (1 Bft) W-NW 282 2 min 0,000 mm 1,5 UV-I 540 W/m 10,4 C 25,4 C 11,3 km/h (2 Bft) 97,87 %
10.09.2018 15:50 25,5 C 22,2 C 32,8 C 41 % 1021,3 hPa 0,0 l/m 0,4 km/h (0 Bft) W-SW 245 0 min 0,000 mm 2,0 UV-I 298 W/m 11,3 C 25,5 C 3,2 km/h (1 Bft) 94,74 %
10.09.2018 15:52 25,7 C 22,2 C 32,8 C 42 % 1021,3 hPa 0,0 l/m 4,8 km/h (1 Bft) W-SW 258 0 min 0,000 mm 1,9 UV-I 295 W/m 11,8 C 25,7 C 11,3 km/h (2 Bft) 100,00 %
10.09.2018 15:54 25,7 C 22,2 C 32,2 C 40 % 1021,2 hPa 0,0 l/m 0,6 km/h (0 Bft) W 266 2 min 0,000 mm 1,8 UV-I 438 W/m 11,1 C 25,7 C 4,8 km/h (1 Bft) 97,87 %
10.09.2018 15:56 25,7 C 22,2 C 32,2 C 41 % 1021,2 hPa 0,0 l/m 1,7 km/h (1 Bft) S-SW 202 2 min 0,000 mm 1,8 UV-I 474 W/m 11,4 C 25,7 C 6,4 km/h (2 Bft) 100,00 %
10.09.2018 15:58 25,7 C 22,2 C 31,7 C 40 % 1021,1 hPa 0,0 l/m 2,6 km/h (1 Bft) NW 319 2 min 0,000 mm 1,8 UV-I 444 W/m 11,1 C 25,7 C 9,7 km/h (2 Bft) 98,00 %
10.09.2018 16:00 25,8 C 22,2 C 32,2 C 40 % 1021,1 hPa 0,0 l/m 1,5 km/h (1 Bft) NW 314 2 min 0,000 mm 1,5 UV-I 497 W/m 11,2 C 25,8 C 12,9 km/h (3 Bft) 100,00 %
10.09.2018 16:02 25,8 C 22,2 C 31,1 C 41 % 1021,1 hPa 0,0 l/m 4,0 km/h (1 Bft) W-SW 246 2 min 0,355 mm 1,3 UV-I 471 W/m 11,5 C 25,8 C 12,9 km/h (3 Bft) 97,87 %
10.09.2018 16:04 25,8 C 22,2 C 30,6 C 39 % 1021,1 hPa 0,0 l/m 2,3 km/h (1 Bft) W 276 2 min 0,000 mm 1,1 UV-I 414 W/m 10,8 C 25,8 C 6,4 km/h (2 Bft) 97,87 %
10.09.2018 16:06 25,8 C 22,2 C 30,6 C 41 % 1021,1 hPa 0,0 l/m 0,5 km/h (0 Bft) W-SW 246 2 min 0,000 mm 1,4 UV-I 385 W/m 11,5 C 25,8 C 1,6 km/h (1 Bft) 100,00 %
10.09.2018 16:08 25,8 C 22,2 C 30,0 C 41 % 1021,1 hPa 0,0 l/m 1,5 km/h (1 Bft) W-NW 286 2 min 0,000 mm 1,5 UV-I 390 W/m 11,5 C 25,8 C 4,8 km/h (1 Bft) 100,00 %
10.09.2018 16:10 25,8 C 22,2 C 30,0 C 42 % 1021,1 hPa 0,0 l/m 0,6 km/h (0 Bft) W-NW 287 2 min 0,000 mm 1,5 UV-I 373 W/m 11,9 C 25,8 C 3,2 km/h (1 Bft) 100,00 %
10.09.2018 16:12 25,8 C 22,2 C 28,9 C 41 % 1021,1 hPa 0,0 l/m 3,0 km/h (1 Bft) W-SW 249 2 min 0,000 mm 1,4 UV-I 330 W/m 11,5 C 25,8 C 12,9 km/h (3 Bft) 100,00 %
10.09.2018 16:14 25,6 C 22,2 C 28,3 C 40 % 1021,0 hPa 0,0 l/m 6,2 km/h (2 Bft) W-SW 249 2 min 0,000 mm 1,3 UV-I 289 W/m 11,0 C 25,6 C 11,3 km/h (2 Bft) 97,87 %
10.09.2018 16:16 25,4 C 22,2 C 28,3 C 41 % 1021,0 hPa 0,0 l/m 6,9 km/h (2 Bft) W-SW 247 2 min 0,000 mm 1,3 UV-I 297 W/m 11,2 C 25,3 C 11,3 km/h (2 Bft) 100,00 %
10.09.2018 16:18 25,3 C 22,2 C 27,8 C 40 % 1021,0 hPa 0,0 l/m 2,9 km/h (1 Bft) W-SW 255 2 min 0,000 mm 1,2 UV-I 282 W/m 10,7 C 25,3 C 6,4 km/h (2 Bft) 100,00 %
10.09.2018 16:20 25,3 C 22,2 C 27,8 C 41 % 1020,9 hPa 0,0 l/m 3,1 km/h (1 Bft) W-SW 242 0 min 0,000 mm 1,2 UV-I 264 W/m 11,1 C 25,3 C 9,7 km/h (2 Bft) 91,49 %
10.09.2018 16:22 25,3 C 22,2 C 27,2 C 41 % 1021,0 hPa 0,0 l/m 0,5 km/h (0 Bft) N-NO 30 0 min 0,000 mm 1,1 UV-I 245 W/m 11,1 C 25,3 C 4,8 km/h (1 Bft) 93,62 %
10.09.2018 16:24 25,3 C 22,2 C 27,2 C 43 % 1021,0 hPa 0,0 l/m 0,8 km/h (0 Bft) W-SW 238 0 min 0,000 mm 1,1 UV-I 217 W/m 11,8 C 25,3 C 4,8 km/h (1 Bft) 96,00 %
10.09.2018 16:26 25,3 C 22,2 C 26,7 C 41 % 1021,0 hPa 0,0 l/m 2,3 km/h (1 Bft) SW 217 0 min 0,000 mm 1,1 UV-I 244 W/m 11,1 C 25,3 C 8,0 km/h (2 Bft) 95,74 %
10.09.2018 16:28 25,2 C 22,2 C 26,7 C 42 % 1021,0 hPa 0,0 l/m 0,1 km/h (0 Bft) W-NW 302 0 min 0,000 mm 1,1 UV-I 231 W/m 11,4 C 25,2 C 1,6 km/h (1 Bft) 95,74 %
10.09.2018 16:30 25,1 C 22,2 C 26,1 C 40 % 1021,0 hPa 0,0 l/m 1,0 km/h (0 Bft) W 279 0 min 0,000 mm 1,0 UV-I 214 W/m 10,5 C 25,1 C 8,0 km/h (2 Bft) 95,74 %
10.09.2018 16:32 25,0 C 22,2 C 26,1 C 40 % 1020,9 hPa 0,0 l/m 2,6 km/h (1 Bft) W-SW 258 0 min 0,000 mm 1,0 UV-I 183 W/m 10,4 C 25,0 C 9,7 km/h (2 Bft) 92,00 %
10.09.2018 16:34 24,9 C 22,2 C 25,6 C 41 % 1020,9 hPa 0,0 l/m 0,2 km/h (0 Bft) SW 224 0 min 0,000 mm 1,0 UV-I 186 W/m 10,7 C 24,9 C 1,6 km/h (1 Bft) 95,74 %
10.09.2018 16:36 24,9 C 22,2 C 26,1 C 42 % 1020,9 hPa 0,0 l/m 0,1 km/h (0 Bft) W 261 0 min 0,000 mm 1,0 UV-I 241 W/m 11,1 C 24,9 C 1,6 km/h (1 Bft) 93,62 %
10.09.2018 16:38 24,9 C 22,2 C 26,7 C 42 % 1020,9 hPa 0,0 l/m 0,0 km/h (0 Bft) NW 309 2 min 0,000 mm 1,1 UV-I 332 W/m 11,1 C 24,9 C 0,0 km/h (0 Bft) 95,74 %
10.09.2018 16:40 25,1 C 22,2 C 27,2 C 44 % 1020,9 hPa 0,0 l/m 0,0 km/h (0 Bft) N 355 2 min 0,000 mm 1,2 UV-I 404 W/m 12,0 C 25,1 C 1,6 km/h (1 Bft) 95,74 %
10.09.2018 16:42 25,2 C 22,2 C 27,2 C 43 % 1020,9 hPa 0,0 l/m 0,1 km/h (0 Bft) W-NW 296 2 min 0,000 mm 1,3 UV-I 447 W/m 11,7 C 25,2 C 1,6 km/h (1 Bft) 95,74 %
10.09.2018 16:44 25,4 C 22,2 C 27,2 C 41 % 1020,9 hPa 0,0 l/m 2,8 km/h (1 Bft) W 275 2 min 0,000 mm 1,2 UV-I 440 W/m 11,2 C 25,4 C 12,9 km/h (3 Bft) 94,00 %
10.09.2018 16:46 25,4 C 22,2 C 26,7 C 42 % 1020,9 hPa 0,0 l/m 0,0 km/h (0 Bft) W-SW 244 2 min 0,000 mm 1,2 UV-I 389 W/m 11,5 C 25,4 C 0,0 km/h (0 Bft) 97,22 %
10.09.2018 16:48 25,6 C 22,2 C 26,7 C 40 % 1020,9 hPa 0,0 l/m 1,9 km/h (1 Bft) N 355 2 min 0,000 mm 1,1 UV-I 344 W/m 11,0 C 25,6 C 6,4 km/h (2 Bft) 97,87 %
10.09.2018 16:50 25,6 C 22,2 C 26,1 C 43 % 1020,9 hPa 0,0 l/m 0,5 km/h (0 Bft) W 277 2 min 0,000 mm 1,1 UV-I 344 W/m 12,1 C 25,6 C 4,8 km/h (1 Bft) 95,74 %
10.09.2018 16:52 25,7 C 22,2 C 26,7 C 41 % 1020,9 hPa 0,0 l/m 1,0 km/h (0 Bft) NW 313 2 min 0,000 mm 1,1 UV-I 357 W/m 11,4 C 25,7 C 6,4 km/h (2 Bft) 97,87 %
10.09.2018 16:54 25,7 C 22,2 C 27,2 C 40 % 1020,9 hPa 0,0 l/m 0,0 km/h (0 Bft) W 271 2 min 0,000 mm 1,1 UV-I 378 W/m 11,1 C 25,7 C 1,6 km/h (1 Bft) 95,74 %
10.09.2018 16:56 25,8 C 22,2 C 26,7 C 40 % 1020,9 hPa 0,0 l/m 1,4 km/h (1 Bft) W-NW 284 2 min 0,000 mm 1,0 UV-I 358 W/m 11,2 C 25,8 C 6,4 km/h (2 Bft) 97,87 %
10.09.2018 16:58 25,7 C 22,2 C 26,7 C 39 % 1020,9 hPa 0,0 l/m 5,3 km/h (1 Bft) W 277 2 min 0,000 mm 0,9 UV-I 290 W/m 10,7 C 25,7 C 11,3 km/h (2 Bft) 93,62 %
10.09.2018 17:00 25,7 C 22,2 C 26,1 C 38 % 1020,9 hPa 0,0 l/m 3,8 km/h (1 Bft) W-NW 294 2 min 0,229 mm 0,9 UV-I 276 W/m 10,3 C 25,7 C 11,3 km/h (2 Bft) 97,87 %
10.09.2018 17:02 25,6 C 22,2 C 25,6 C 39 % 1020,9 hPa 0,0 l/m 4,3 km/h (1 Bft) W-NW 290 2 min 0,000 mm 0,9 UV-I 304 W/m 10,6 C 25,6 C 11,3 km/h (2 Bft) 97,87 %
10.09.2018 17:04 25,6 C 22,2 C 25,6 C 42 % 1020,9 hPa 0,0 l/m 0,3 km/h (0 Bft) W 262 2 min 0,000 mm 0,9 UV-I 325 W/m 11,7 C 25,6 C 3,2 km/h (1 Bft) 100,00 %
10.09.2018 17:06 25,6 C 22,2 C 25,6 C 40 % 1020,9 hPa 0,0 l/m 0,9 km/h (0 Bft) N 350 2 min 0,000 mm 0,9 UV-I 308 W/m 11,0 C 25,6 C 6,4 km/h (2 Bft) 100,00 %
10.09.2018 17:08 25,6 C 22,2 C 25,6 C 41 % 1021,0 hPa 0,0 l/m 0,6 km/h (0 Bft) NW 314 2 min 0,000 mm 0,8 UV-I 295 W/m 11,4 C 25,6 C 6,4 km/h (2 Bft) 100,00 %
10.09.2018 17:10 25,6 C 22,2 C 25,0 C 42 % 1021,0 hPa 0,0 l/m 2,2 km/h (1 Bft) W-NW 288 2 min 0,000 mm 0,8 UV-I 299 W/m 11,7 C 25,6 C 8,0 km/h (2 Bft) 100,00 %
10.09.2018 17:12 25,6 C 22,2 C 25,0 C 41 % 1020,9 hPa 0,0 l/m 0,2 km/h (0 Bft) N-NO 19 2 min 0,000 mm 0,8 UV-I 288 W/m 11,4 C 25,6 C 1,6 km/h (1 Bft) 100,00 %
10.09.2018 17:14 25,6 C 22,2 C 25,0 C 41 % 1020,9 hPa 0,0 l/m 1,7 km/h (1 Bft) SW 227 2 min 0,000 mm 0,8 UV-I 290 W/m 11,4 C 25,6 C 8,0 km/h (2 Bft) 97,87 %
10.09.2018 17:16 25,6 C 22,2 C 25,0 C 41 % 1021,0 hPa 0,0 l/m 0,2 km/h (0 Bft) W-NW 294 2 min 0,000 mm 0,7 UV-I 297 W/m 11,4 C 25,6 C 3,2 km/h (1 Bft) 97,87 %
10.09.2018 17:18 25,6 C 22,2 C 25,0 C 42 % 1020,9 hPa 0,0 l/m 0,0 km/h (0 Bft) NO 44 2 min 0,000 mm 0,7 UV-I 296 W/m 11,7 C 25,6 C 0,0 km/h (0 Bft) 100,00 %
10.09.2018 17:20 25,6 C 22,2 C 25,0 C 41 % 1020,9 hPa 0,0 l/m 0,1 km/h (0 Bft) N-NW 336 2 min 0,000 mm 0,7 UV-I 289 W/m 11,4 C 25,6 C 1,6 km/h (1 Bft) 97,87 %
10.09.2018 17:22 25,7 C 22,2 C 25,0 C 40 % 1020,9 hPa 0,0 l/m 1,7 km/h (1 Bft) W 271 2 min 0,000 mm 0,7 UV-I 274 W/m 11,1 C 25,7 C 4,8 km/h (1 Bft) 97,87 %
10.09.2018 17:24 25,7 C 22,2 C 25,0 C 42 % 1020,9 hPa 0,0 l/m 0,4 km/h (0 Bft) W-SW 250 2 min 0,000 mm 0,7 UV-I 270 W/m 11,8 C 25,7 C 3,2 km/h (1 Bft) 100,00 %
10.09.2018 17:26 25,7 C 22,2 C 24,4 C 40 % 1020,9 hPa 0,0 l/m 0,1 km/h (0 Bft) W 271 2 min 0,000 mm 0,6 UV-I 261 W/m 11,1 C 25,7 C 3,2 km/h (1 Bft) 100,00 %
10.09.2018 17:28 25,6 C 22,2 C 23,9 C 41 % 1021,0 hPa 0,0 l/m 1,0 km/h (0 Bft) W-NW 288 2 min 0,000 mm 0,6 UV-I 258 W/m 11,4 C 25,6 C 6,4 km/h (2 Bft) 97,87 %
10.09.2018 17:30 25,4 C 22,2 C 23,9 C 40 % 1021,0 hPa 0,0 l/m 2,7 km/h (1 Bft) SW 236 2 min 0,000 mm 0,6 UV-I 252 W/m 10,8 C 25,4 C 9,7 km/h (2 Bft) 100,00 %
10.09.2018 17:32 25,4 C 22,2 C 23,9 C 40 % 1021,1 hPa 0,0 l/m 0,0 km/h (0 Bft) N-NO 18 2 min 0,000 mm 0,6 UV-I 246 W/m 10,8 C 25,4 C 1,6 km/h (1 Bft) 100,00 %
10.09.2018 17:34 25,5 C 22,2 C 23,9 C 40 % 1021,0 hPa 0,0 l/m 0,4 km/h (0 Bft) W 275 2 min 0,000 mm 0,5 UV-I 215 W/m 10,9 C 25,5 C 3,2 km/h (1 Bft) 97,87 %
10.09.2018 17:36 25,4 C 22,2 C 23,3 C 41 % 1021,0 hPa 0,0 l/m 0,0 km/h (0 Bft) N-NW 340 2 min 0,000 mm 0,5 UV-I 197 W/m 11,2 C 25,4 C 0,0 km/h (0 Bft) 98,00 %
10.09.2018 17:38 25,3 C 22,2 C 23,3 C 39 % 1020,9 hPa 0,0 l/m 1,1 km/h (1 Bft) W-NW 289 2 min 0,000 mm 0,5 UV-I 203 W/m 10,3 C 25,3 C 6,4 km/h (2 Bft) 97,87 %
10.09.2018 17:40 25,3 C 22,2 C 23,3 C 40 % 1020,9 hPa 0,0 l/m 1,0 km/h (0 Bft) NW 307 2 min 0,000 mm 0,4 UV-I 180 W/m 10,7 C 25,3 C 6,4 km/h (2 Bft) 97,37 %
10.09.2018 17:42 25,1 C 22,2 C 22,8 C 41 % 1020,8 hPa 0,0 l/m 0,0 km/h (0 Bft) W-NW 286 2 min 0,000 mm 0,0 UV-I 159 W/m 10,9 C 25,1 C 0,0 km/h (0 Bft) 100,00 %
10.09.2018 17:44 25,0 C 22,2 C 22,8 C 41 % 1020,8 hPa 0,0 l/m 0,9 km/h (0 Bft) W-SW 257 2 min 0,000 mm 0,0 UV-I 185 W/m 10,8 C 25,0 C 4,8 km/h (1 Bft) 97,87 %
10.09.2018 17:46 24,9 C 22,2 C 22,8 C 41 % 1020,8 hPa 0,0 l/m 0,2 km/h (0 Bft) W-NW 285 2 min 0,000 mm 0,0 UV-I 180 W/m 10,7 C 24,9 C 1,6 km/h (1 Bft) 100,00 %
10.09.2018 17:48 24,9 C 22,2 C 22,8 C 40 % 1020,8 hPa 0,0 l/m 0,2 km/h (0 Bft) W 279 2 min 0,000 mm 0,0 UV-I 162 W/m 10,4 C 24,9 C 3,2 km/h (1 Bft) 97,87 %
10.09.2018 17:50 24,9 C 22,2 C 23,3 C 41 % 1020,8 hPa 0,0 l/m 0,0 km/h (0 Bft) W-NW 289 2 min 0,000 mm 0,0 UV-I 179 W/m 10,7 C 24,9 C 0,0 km/h (0 Bft) 100,00 %
10.09.2018 17:52 24,9 C 22,2 C 22,8 C 43 % 1020,8 hPa 0,0 l/m 0,3 km/h (0 Bft) W 271 2 min 0,000 mm 0,0 UV-I 195 W/m 11,4 C 24,9 C 3,2 km/h (1 Bft) 98,00 %
10.09.2018 17:54 24,8 C 22,2 C 22,8 C 42 % 1020,8 hPa 0,0 l/m 0,0 km/h (0 Bft) W 270 2 min 0,000 mm 0,0 UV-I 164 W/m 11,0 C 24,8 C 0,0 km/h (0 Bft) 100,00 %
10.09.2018 17:56 24,8 C 22,2 C 22,8 C 43 % 1020,9 hPa 0,0 l/m 0,0 km/h (0 Bft) W 270 2 min 0,000 mm 0,0 UV-I 145 W/m 11,4 C 24,8 C 0,0 km/h (0 Bft) 100,00 %
10.09.2018 17:58 24,8 C 22,2 C 22,8 C 43 % 1020,9 hPa 0,0 l/m 0,2 km/h (0 Bft) W 278 2 min 0,000 mm 0,0 UV-I 168 W/m 11,4 C 24,8 C 1,6 km/h (1 Bft) 95,74 %
10.09.2018 18:00 24,9 C 22,2 C 22,8 C 42 % 1020,9 hPa 0,0 l/m 0,0 km/h (0 Bft) W 278 2 min 0,152 mm 0,0 UV-I 176 W/m 11,1 C 24,9 C 0,0 km/h (0 Bft) 93,62 %
10.09.2018 18:02 25,1 C 22,2 C 22,8 C 41 % 1020,9 hPa 0,0 l/m 0,0 km/h (0 Bft) W 278 2 min 0,000 mm 0,0 UV-I 164 W/m 10,9 C 25,1 C 0,0 km/h (0 Bft) 98,11 %
10.09.2018 18:04 25,1 C 22,2 C 22,8 C 41 % 1020,9 hPa 0,0 l/m 0,0 km/h (0 Bft) N-NO 13 2 min 0,000 mm 0,0 UV-I 166 W/m 10,9 C 25,1 C 1,6 km/h (1 Bft) 97,22 %
10.09.2018 18:06 25,0 C 22,2 C 22,2 C 42 % 1020,9 hPa 0,0 l/m 0,3 km/h (0 Bft) N 351 0 min 0,000 mm 0,0 UV-I 104 W/m 11,2 C 25,0 C 3,2 km/h (1 Bft) 97,87 %
10.09.2018 18:08 24,8 C 22,2 C 22,8 C 42 % 1020,9 hPa 0,0 l/m 0,0 km/h (0 Bft) N 355 2 min 0,000 mm 0,0 UV-I 156 W/m 11,0 C 24,8 C 0,0 km/h (0 Bft) 97,87 %
10.09.2018 18:10 24,7 C 22,2 C 22,2 C 44 % 1021,0 hPa 0,0 l/m 0,3 km/h (0 Bft) N 11 2 min 0,000 mm 0,0 UV-I 159 W/m 11,6 C 24,7 C 3,2 km/h (1 Bft) 97,87 %
10.09.2018 18:12 24,6 C 22,2 C 22,2 C 44 % 1021,0 hPa 0,0 l/m 0,0 km/h (0 Bft) N 360 2 min 0,000 mm 0,0 UV-I 146 W/m 11,5 C 24,6 C 0,0 km/h (0 Bft) 97,87 %
10.09.2018 18:14 24,5 C 22,2 C 22,2 C 45 % 1021,0 hPa 0,0 l/m 0,0 km/h (0 Bft) N 360 2 min 0,000 mm 0,0 UV-I 145 W/m 11,8 C 24,5 C 0,0 km/h (0 Bft) 93,62 %
10.09.2018 18:16 24,6 C 22,2 C 22,2 C 44 % 1021,0 hPa 0,0 l/m 0,0 km/h (0 Bft) N 360 2 min 0,000 mm 0,0 UV-I 136 W/m 11,5 C 24,6 C 0,0 km/h (0 Bft) 97,87 %
10.09.2018 18:18 24,7 C 22,2 C 22,2 C 44 % 1021,0 hPa 0,0 l/m 0,3 km/h (0 Bft) N 11 2 min 0,000 mm 0,0 UV-I 133 W/m 11,6 C 24,7 C 1,6 km/h (1 Bft) 91,49 %
10.09.2018 18:20 24,7 C 22,2 C 22,2 C 45 % 1021,1 hPa 0,0 l/m 0,1 km/h (0 Bft) N-NW 336 2 min 0,000 mm 0,0 UV-I 132 W/m 12,0 C 24,7 C 1,6 km/h (1 Bft) 95,74 %
10.09.2018 18:22 24,7 C 22,2 C 22,2 C 44 % 1021,0 hPa 0,0 l/m 0,0 km/h (0 Bft) N-NW 335 2 min 0,000 mm 0,0 UV-I 126 W/m 11,6 C 24,7 C 0,0 km/h (0 Bft) 94,34 %
10.09.2018 18:24 24,7 C 22,2 C 21,7 C 44 % 1021,1 hPa 0,0 l/m 0,0 km/h (0 Bft) N-NW 341 2 min 0,000 mm 0,0 UV-I 97 W/m 11,6 C 24,7 C 0,0 km/h (0 Bft) 93,62 %
10.09.2018 18:26 24,6 C 22,2 C 21,7 C 44 % 1021,1 hPa 0,0 l/m 0,0 km/h (0 Bft) N 349 0 min 0,000 mm 0,0 UV-I 48 W/m 11,5 C 24,6 C 0,0 km/h (0 Bft) 93,62 %
10.09.2018 18:28 24,4 C 22,2 C 21,1 C 45 % 1021,0 hPa 0,0 l/m 0,0 km/h (0 Bft) N 349 0 min 0,000 mm 0,0 UV-I 47 W/m 11,7 C 24,4 C 0,0 km/h (0 Bft) 95,74 %
10.09.2018 18:30 24,3 C 22,2 C 20,6 C 45 % 1021,0 hPa 0,0 l/m 0,0 km/h (0 Bft) N 350 0 min 0,000 mm 0,0 UV-I 65 W/m 11,6 C 24,3 C 0,0 km/h (0 Bft) 95,74 %
10.09.2018 18:32 24,2 C 22,2 C 20,6 C 46 % 1021,0 hPa 0,0 l/m 0,0 km/h (0 Bft) N 350 0 min 0,000 mm 0,0 UV-I 61 W/m 11,8 C 24,2 C 0,0 km/h (0 Bft) 91,49 %
10.09.2018 18:34 24,0 C 22,2 C 20,0 C 46 % 1021,0 hPa 0,0 l/m 0,0 km/h (0 Bft) N 350 0 min 0,000 mm 0,0 UV-I 63 W/m 11,7 C 24,0 C 0,0 km/h (0 Bft) 95,74 %
10.09.2018 18:36 24,1 C 22,2 C 20,0 C 46 % 1021,1 hPa 0,0 l/m 0,0 km/h (0 Bft) N 350 0 min 0,000 mm 0,0 UV-I 56 W/m 11,7 C 24,1 C 0,0 km/h (0 Bft) 95,74 %
10.09.2018 18:38 24,0 C 22,2 C 19,4 C 47 % 1021,0 hPa 0,0 l/m 0,0 km/h (0 Bft) N 350 0 min 0,000 mm 0,0 UV-I 44 W/m 12,0 C 24,0 C 0,0 km/h (0 Bft) 95,74 %
10.09.2018 18:40 23,9 C 22,2 C 18,9 C 46 % 1021,0 hPa 0,0 l/m 0,0 km/h (0 Bft) N 350 0 min 0,000 mm 0,0 UV-I 41 W/m 11,6 C 23,9 C 0,0 km/h (0 Bft) 95,74 %
10.09.2018 18:42 23,9 C 22,2 C 18,9 C 46 % 1021,0 hPa 0,0 l/m 0,0 km/h (0 Bft) N 350 0 min 0,000 mm 0,0 UV-I 38 W/m 11,6 C 23,9 C 0,0 km/h (0 Bft) 93,75 %
10.09.2018 18:44 23,8 C 22,2 C 18,3 C 46 % 1021,1 hPa 0,0 l/m 0,0 km/h (0 Bft) N 350 0 min 0,000 mm 0,0 UV-I 35 W/m 11,5 C 23,8 C 0,0 km/h (0 Bft) 95,74 %
10.09.2018 18:46 23,7 C 22,2 C 18,3 C 46 % 1021,1 hPa 0,0 l/m 0,0 km/h (0 Bft) N 350 0 min 0,000 mm 0,0 UV-I 43 W/m 11,4 C 23,7 C 0,0 km/h (0 Bft) 95,74 %
10.09.2018 18:48 23,7 C 22,2 C 18,3 C 46 % 1021,0 hPa 0,0 l/m 0,0 km/h (0 Bft) N 350 2 min 0,000 mm 0,0 UV-I 60 W/m 11,4 C 23,7 C 0,0 km/h (0 Bft) 91,49 %
10.09.2018 18:50 23,2 C 22,2 C 18,3 C 51 % 1021,0 hPa 0,0 l/m 0,0 km/h (0 Bft) N 350 2 min 0,000 mm 0,0 UV-I 52 W/m 12,5 C 23,2 C 0,0 km/h (0 Bft) 97,87 %
10.09.2018 18:52 22,4 C 22,2 C 18,3 C 55 % 1021,0 hPa 0,0 l/m 0,0 km/h (0 Bft) N 350 0 min 0,000 mm 0,0 UV-I 34 W/m 12,9 C 22,4 C 0,0 km/h (0 Bft) 95,74 %
10.09.2018 18:54 21,8 C 22,2 C 18,3 C 56 % 1021,0 hPa 0,0 l/m 0,0 km/h (0 Bft) N 350 0 min 0,000 mm 0,0 UV-I 27 W/m 12,6 C 21,8 C 0,0 km/h (0 Bft) 93,62 %
10.09.2018 18:56 21,4 C 22,2 C 18,3 C 59 % 1021,0 hPa 0,0 l/m 0,0 km/h (0 Bft) N 350 0 min 0,000 mm 0,0 UV-I 24 W/m 13,0 C 21,4 C 0,0 km/h (0 Bft) 97,87 %
10.09.2018 18:58 21,2 C 22,2 C 18,3 C 60 % 1021,0 hPa 0,0 l/m 0,0 km/h (0 Bft) N 350 0 min 0,000 mm 0,0 UV-I 21 W/m 13,1 C 21,2 C 0,0 km/h (0 Bft) 95,74 %
10.09.2018 19:00 20,8 C 22,2 C 18,3 C 62 % 1021,1 hPa 0,0 l/m 0,0 km/h (0 Bft) N 350 0 min 0,000 mm 0,0 UV-I 20 W/m 13,2 C 20,8 C 0,0 km/h (0 Bft) 97,14 %
10.09.2018 19:02 20,4 C 22,2 C 18,3 C 62 % 1021,0 hPa 0,0 l/m 0,0 km/h (0 Bft) N 350 0 min 0,051 mm 0,0 UV-I 19 W/m 12,9 C 20,4 C 0,0 km/h (0 Bft) 95,74 %
10.09.2018 19:04 20,2 C 22,2 C 17,8 C 63 % 1021,1 hPa 0,0 l/m 0,0 km/h (0 Bft) N 350 0 min 0,000 mm 0,0 UV-I 17 W/m 12,9 C 20,2 C 0,0 km/h (0 Bft) 98,11 %
10.09.2018 19:06 20,1 C 22,2 C 17,8 C 63 % 1021,1 hPa 0,0 l/m 0,0 km/h (0 Bft) N 350 0 min 0,000 mm 0,0 UV-I 16 W/m 12,8 C 20,1 C 0,0 km/h (0 Bft) 98,00 %
10.09.2018 19:08 19,9 C 22,2 C 17,8 C 65 % 1021,1 hPa 0,0 l/m 0,0 km/h (0 Bft) N 350 0 min 0,000 mm 0,0 UV-I 14 W/m 13,1 C 19,9 C 0,0 km/h (0 Bft) 97,37 %
10.09.2018 19:10 19,8 C 22,2 C 17,8 C 66 % 1021,1 hPa 0,0 l/m 0,0 km/h (0 Bft) N 350 0 min 0,000 mm 0,0 UV-I 12 W/m 13,3 C 19,8 C 0,0 km/h (0 Bft) 97,87 %
10.09.2018 19:12 19,6 C 22,2 C 17,8 C 67 % 1021,1 hPa 0,0 l/m 0,0 km/h (0 Bft) N 350 0 min 0,000 mm 0,0 UV-I 12 W/m 13,3 C 19,6 C 0,0 km/h (0 Bft) 98,00 %
10.09.2018 19:14 19,3 C 22,2 C 17,8 C 67 % 1021,1 hPa 0,0 l/m 0,0 km/h (0 Bft) N 350 0 min 0,000 mm 0,0 UV-I 11 W/m 13,0 C 19,3 C 0,0 km/h (0 Bft) 93,62 %
10.09.2018 19:16 19,3 C 22,2 C 17,2 C 67 % 1021,1 hPa 0,0 l/m 0,0 km/h (0 Bft) N 350 2 min 0,000 mm 0,0 UV-I 11 W/m 13,0 C 19,3 C 0,0 km/h (0 Bft) 95,74 %
10.09.2018 19:18 19,3 C 22,2 C 17,2 C 67 % 1021,1 hPa 0,0 l/m 0,0 km/h (0 Bft) N 350 0 min 0,000 mm 0,0 UV-I 10 W/m 13,0 C 19,3 C 0,0 km/h (0 Bft) 97,92 %
10.09.2018 19:20 19,2 C 22,2 C 17,2 C 67 % 1021,1 hPa 0,0 l/m 0,0 km/h (0 Bft) N 350 0 min 0,000 mm 0,0 UV-I 9 W/m 12,9 C 19,2 C 0,0 km/h (0 Bft) 97,87 %
10.09.2018 19:22 19,2 C 22,2 C 17,2 C 66 % 1021,1 hPa 0,0 l/m 0,0 km/h (0 Bft) N 350 0 min 0,000 mm 0,0 UV-I 8 W/m 12,7 C 19,2 C 0,0 km/h (0 Bft) 97,87 %
10.09.2018 19:24 19,1 C 22,2 C 16,7 C 67 % 1021,2 hPa 0,0 l/m 0,0 km/h (0 Bft) N 350 0 min 0,000 mm 0,0 UV-I 7 W/m 12,8 C 19,1 C 0,0 km/h (0 Bft) 98,00 %
10.09.2018 19:26 19,1 C 22,2 C 16,7 C 66 % 1021,2 hPa 0,0 l/m 0,0 km/h (0 Bft) N 350 0 min 0,000 mm 0,0 UV-I 7 W/m 12,6 C 19,1 C 0,0 km/h (0 Bft) 91,49 %
10.09.2018 19:28 19,0 C 22,2 C 16,7 C 67 % 1021,2 hPa 0,0 l/m 0,0 km/h (0 Bft) N 350 0 min 0,000 mm 0,0 UV-I 6 W/m 12,7 C 19,0 C 0,0 km/h (0 Bft) 95,74 %
10.09.2018 19:30 18,8 C 22,2 C 16,7 C 68 % 1021,2 hPa 0,0 l/m 0,0 km/h (0 Bft) N 350 0 min 0,000 mm 0,0 UV-I 5 W/m 12,8 C 18,8 C 0,0 km/h (0 Bft) 95,74 %
10.09.2018 19:32 18,7 C 22,2 C 16,7 C 68 % 1021,2 hPa 0,0 l/m 0,0 km/h (0 Bft) N 350 0 min 0,000 mm 0,0 UV-I 5 W/m 12,7 C 18,7 C 0,0 km/h (0 Bft) 95,45 %
10.09.2018 19:34 18,6 C 22,2 C 16,1 C 68 % 1021,3 hPa 0,0 l/m 0,0 km/h (0 Bft) N 351 0 min 0,000 mm 0,0 UV-I 5 W/m 12,6 C 18,6 C 0,0 km/h (0 Bft) 95,74 %
10.09.2018 19:36 18,6 C 22,2 C 16,1 C 69 % 1021,3 hPa 0,0 l/m 0,0 km/h (0 Bft) N 351 0 min 0,000 mm 0,0 UV-I 5 W/m 12,8 C 18,6 C 0,0 km/h (0 Bft) 97,87 %
10.09.2018 19:39 18,4 C 22,2 C 15,6 C 69 % 1021,3 hPa 0,0 l/m 0,0 km/h (0 Bft) N 355 0 min 0,000 mm 0,0 UV-I 2 W/m 12,6 C 18,4 C 0,0 km/h (0 Bft) 98,59 %
10.09.2018 19:40 18,4 C 22,2 C 15,6 C 69 % 1021,3 hPa 0,0 l/m 0,0 km/h (0 Bft) N 355 0 min 0,000 mm 0,0 UV-I 0 W/m 12,6 C 18,4 C 0,0 km/h (0 Bft) 95,65 %
10.09.2018 19:42 18,3 C 22,2 C 15,6 C 71 % 1021,3 hPa 0,0 l/m 0,0 km/h (0 Bft) N 355 0 min 0,000 mm 0,0 UV-I 0 W/m 12,9 C 18,3 C 0,0 km/h (0 Bft) 98,00 %
10.09.2018 19:44 18,2 C 22,2 C 15,6 C 71 % 1021,3 hPa 0,0 l/m 0,0 km/h (0 Bft) N 355 0 min 0,000 mm 0,0 UV-I 0 W/m 12,9 C 18,2 C 0,0 km/h (0 Bft) 97,87 %
10.09.2018 19:46 18,3 C 22,2 C 15,6 C 69 % 1021,3 hPa 0,0 l/m 0,0 km/h (0 Bft) N 355 0 min 0,000 mm 0,0 UV-I 0 W/m 12,5 C 18,3 C 0,0 km/h (0 Bft) 97,87 %
10.09.2018 19:48 18,4 C 22,2 C 15,0 C 69 % 1021,3 hPa 0,0 l/m 0,0 km/h (0 Bft) N 355 0 min 0,000 mm 0,0 UV-I 0 W/m 12,6 C 18,4 C 0,0 km/h (0 Bft) 97,87 %
10.09.2018 19:50 18,3 C 22,2 C 15,6 C 69 % 1021,4 hPa 0,0 l/m 0,0 km/h (0 Bft) N 355 0 min 0,000 mm 0,0 UV-I 0 W/m 12,5 C 18,3 C 0,0 km/h (0 Bft) 97,87 %
10.09.2018 19:52 18,2 C 22,2 C 15,6 C 69 % 1021,4 hPa 0,0 l/m 0,0 km/h (0 Bft) W-NW 283 0 min 0,000 mm 0,0 UV-I 0 W/m 12,4 C 18,2 C 0,0 km/h (0 Bft) 97,44 %
10.09.2018 19:54 18,2 C 22,2 C 15,6 C 70 % 1021,5 hPa 0,0 l/m 0,0 km/h (0 Bft) W-NW 283 0 min 0,000 mm 0,0 UV-I 0 W/m 12,6 C 18,2 C 0,0 km/h (0 Bft) 95,74 %
10.09.2018 19:56 18,3 C 22,2 C 15,6 C 70 % 1021,5 hPa 0,0 l/m 0,0 km/h (0 Bft) S-SW 206 0 min 0,000 mm 0,0 UV-I 0 W/m 12,7 C 18,3 C 0,0 km/h (0 Bft) 95,74 %
10.09.2018 19:58 18,2 C 22,2 C 15,6 C 70 % 1021,6 hPa 0,0 l/m 0,0 km/h (0 Bft) S-SW 206 0 min 0,000 mm 0,0 UV-I 0 W/m 12,6 C 18,2 C 0,0 km/h (0 Bft) 100,00 %
10.09.2018 20:00 18,2 C 22,2 C 15,6 C 70 % 1021,6 hPa 0,0 l/m 0,0 km/h (0 Bft) S-SW 206 0 min 0,000 mm 0,0 UV-I 0 W/m 12,6 C 18,2 C 0,0 km/h (0 Bft) 95,74 %
10.09.2018 20:02 18,2 C 22,2 C 15,6 C 70 % 1021,7 hPa 0,0 l/m 0,0 km/h (0 Bft) S-SW 206 0 min 0,000 mm 0,0 UV-I 0 W/m 12,6 C 18,2 C 0,0 km/h (0 Bft) 96,00 %
10.09.2018 20:04 18,1 C 22,2 C 15,0 C 69 % 1021,7 hPa 0,0 l/m 0,0 km/h (0 Bft) S-SW 206 0 min 0,000 mm 0,0 UV-I 0 W/m 12,3 C 18,1 C 0,0 km/h (0 Bft) 100,00 %
10.09.2018 20:06 17,9 C 22,2 C 15,0 C 71 % 1021,7 hPa 0,0 l/m 0,0 km/h (0 Bft) S-SW 206 0 min 0,000 mm 0,0 UV-I 0 W/m 12,6 C 17,9 C 0,0 km/h (0 Bft) 97,87 %
10.09.2018 20:08 17,7 C 22,2 C 15,0 C 72 % 1021,7 hPa 0,0 l/m 0,0 km/h (0 Bft) S-SW 206 0 min 0,000 mm 0,0 UV-I 0 W/m 12,6 C 17,7 C 0,0 km/h (0 Bft) 100,00 %
10.09.2018 20:10 17,4 C 22,2 C 15,0 C 72 % 1021,7 hPa 0,0 l/m 0,0 km/h (0 Bft) S-SW 206 0 min 0,000 mm 0,0 UV-I 0 W/m 12,3 C 17,4 C 0,0 km/h (0 Bft) 98,00 %
10.09.2018 20:12 17,4 C 22,2 C 15,0 C 72 % 1021,7 hPa 0,0 l/m 0,0 km/h (0 Bft) S-SW 206 0 min 0,000 mm 0,0 UV-I 0 W/m 12,3 C 17,4 C 0,0 km/h (0 Bft) 100,00 %
10.09.2018 20:14 17,6 C 22,2 C 14,4 C 71 % 1021,8 hPa 0,0 l/m 0,0 km/h (0 Bft) S-SW 206 0 min 0,000 mm 0,0 UV-I 0 W/m 12,3 C 17,6 C 0,0 km/h (0 Bft) 100,00 %
10.09.2018 20:16 17,9 C 22,2 C 14,4 C 69 % 1021,7 hPa 0,0 l/m 0,0 km/h (0 Bft) S-SW 206 0 min 0,000 mm 0,0 UV-I 0 W/m 12,1 C 17,9 C 0,0 km/h (0 Bft) 100,00 %
10.09.2018 20:18 17,8 C 22,2 C 14,4 C 70 % 1021,9 hPa 0,0 l/m 0,0 km/h (0 Bft) S-SW 206 0 min 0,000 mm 0,0 UV-I 0 W/m 12,3 C 17,8 C 0,0 km/h (0 Bft) 100,00 %
10.09.2018 20:20 17,8 C 22,2 C 14,4 C 71 % 1021,9 hPa 0,0 l/m 0,0 km/h (0 Bft) S-SW 206 0 min 0,000 mm 0,0 UV-I 0 W/m 12,5 C 17,8 C 0,0 km/h (0 Bft) 100,00 %
10.09.2018 20:22 17,8 C 22,2 C 14,4 C 71 % 1021,9 hPa 0,0 l/m 0,0 km/h (0 Bft) S-SW 206 0 min 0,000 mm 0,0 UV-I 0 W/m 12,5 C 17,8 C 0,0 km/h (0 Bft) 100,00 %
10.09.2018 20:24 17,7 C 22,2 C 14,4 C 71 % 1021,9 hPa 0,0 l/m 0,0 km/h (0 Bft) S-SW 206 0 min 0,000 mm 0,0 UV-I 0 W/m 12,4 C 17,7 C 0,0 km/h (0 Bft) 97,87 %
10.09.2018 20:26 17,6 C 22,2 C 14,4 C 71 % 1021,8 hPa 0,0 l/m 0,0 km/h (0 Bft) S-SW 206 0 min 0,000 mm 0,0 UV-I 0 W/m 12,3 C 17,6 C 0,0 km/h (0 Bft) 98,00 %
10.09.2018 20:28 17,5 C 22,2 C 14,4 C 72 % 1021,8 hPa 0,0 l/m 0,0 km/h (0 Bft) S-SW 206 0 min 0,000 mm 0,0 UV-I 0 W/m 12,4 C 17,5 C 0,0 km/h (0 Bft) 97,87 %
10.09.2018 20:30 17,4 C 22,2 C 14,4 C 72 % 1021,8 hPa 0,0 l/m 0,0 km/h (0 Bft) S-SW 206 0 min 0,000 mm 0,0 UV-I 0 W/m 12,3 C 17,4 C 0,0 km/h (0 Bft) 92,00 %
10.09.2018 20:32 17,4 C 22,2 C 14,4 C 72 % 1021,8 hPa 0,0 l/m 0,0 km/h (0 Bft) S-SW 206 0 min 0,000 mm 0,0 UV-I 0 W/m 12,3 C 17,4 C 0,0 km/h (0 Bft) 93,62 %
10.09.2018 20:34 17,3 C 22,2 C 14,4 C 72 % 1021,8 hPa 0,0 l/m 0,0 km/h (0 Bft) S-SW 206 0 min 0,000 mm 0,0 UV-I 0 W/m 12,2 C 17,3 C 0,0 km/h (0 Bft) 100,00 %
10.09.2018 20:36 17,2 C 22,2 C 14,4 C 73 % 1021,8 hPa 0,0 l/m 0,0 km/h (0 Bft) S-SW 205 0 min 0,000 mm 0,0 UV-I 0 W/m 12,3 C 17,2 C 0,0 km/h (0 Bft) 92,00 %
10.09.2018 20:38 17,1 C 22,2 C 14,4 C 73 % 1021,8 hPa 0,0 l/m 0,0 km/h (0 Bft) S-SW 205 0 min 0,000 mm 0,0 UV-I 0 W/m 12,2 C 17,1 C 0,0 km/h (0 Bft) 95,74 %
10.09.2018 20:40 17,0 C 22,2 C 14,4 C 73 % 1021,8 hPa 0,0 l/m 0,0 km/h (0 Bft) S-SW 205 0 min 0,000 mm 0,0 UV-I 0 W/m 12,1 C 17,0 C 0,0 km/h (0 Bft) 95,74 %
10.09.2018 20:42 17,1 C 22,2 C 14,4 C 72 % 1021,9 hPa 0,0 l/m 0,0 km/h (0 Bft) S-SW 205 0 min 0,000 mm 0,0 UV-I 0 W/m 12,0 C 17,1 C 0,0 km/h (0 Bft) 95,74 %
10.09.2018 20:44 17,3 C 22,2 C 14,4 C 71 % 1021,9 hPa 0,0 l/m 0,0 km/h (0 Bft) S-SW 205 0 min 0,000 mm 0,0 UV-I 0 W/m 12,0 C 17,3 C 0,0 km/h (0 Bft) 96,00 %
10.09.2018 20:46 17,3 C 22,2 C 14,4 C 72 % 1021,9 hPa 0,0 l/m 0,0 km/h (0 Bft) S-SW 205 0 min 0,000 mm 0,0 UV-I 0 W/m 12,2 C 17,3 C 0,0 km/h (0 Bft) 98,00 %
10.09.2018 20:48 17,3 C 22,2 C 14,4 C 73 % 1022,0 hPa 0,0 l/m 0,0 km/h (0 Bft) S-SW 205 0 min 0,000 mm 0,0 UV-I 0 W/m 12,4 C 17,3 C 0,0 km/h (0 Bft) 95,74 %
10.09.2018 20:50 17,3 C 22,2 C 15,0 C 73 % 1022,0 hPa 0,0 l/m 0,0 km/h (0 Bft) S-SW 198 0 min 0,000 mm 0,0 UV-I 0 W/m 12,4 C 17,3 C 0,0 km/h (0 Bft) 95,74 %
10.09.2018 20:52 17,2 C 22,2 C 15,0 C 73 % 1022,0 hPa 0,0 l/m 0,0 km/h (0 Bft) S 188 0 min 0,000 mm 0,0 UV-I 0 W/m 12,3 C 17,2 C 1,6 km/h (1 Bft) 97,87 %
10.09.2018 20:54 17,1 C 22,2 C 15,0 C 73 % 1022,0 hPa 0,0 l/m 1,3 km/h (1 Bft) S 187 0 min 0,000 mm 0,0 UV-I 0 W/m 12,2 C 17,1 C 4,8 km/h (1 Bft) 97,87 %
10.09.2018 20:56 16,8 C 22,2 C 15,0 C 74 % 1022,0 hPa 0,0 l/m 2,9 km/h (1 Bft) S 186 0 min 0,000 mm 0,0 UV-I 0 W/m 12,1 C 16,8 C 4,8 km/h (1 Bft) 97,56 %
10.09.2018 20:58 16,6 C 22,2 C 15,0 C 75 % 1022,0 hPa 0,0 l/m 2,7 km/h (1 Bft) S 188 0 min 0,000 mm 0,0 UV-I 0 W/m 12,1 C 16,6 C 4,8 km/h (1 Bft) 92,00 %
10.09.2018 21:00 16,6 C 22,2 C 14,4 C 75 % 1022,0 hPa 0,0 l/m 1,5 km/h (1 Bft) S-SW 196 0 min 0,000 mm 0,0 UV-I 0 W/m 12,1 C 16,6 C 3,2 km/h (1 Bft) 98,00 %
10.09.2018 21:02 16,9 C 22,2 C 15,0 C 74 % 1022,0 hPa 0,0 l/m 2,2 km/h (1 Bft) S-SW 194 0 min 0,000 mm 0,0 UV-I 0 W/m 12,2 C 16,9 C 6,4 km/h (2 Bft) 95,74 %
10.09.2018 21:04 17,3 C 22,2 C 15,0 C 72 % 1021,9 hPa 0,0 l/m 1,4 km/h (1 Bft) S-SW 194 0 min 0,000 mm 0,0 UV-I 0 W/m 12,2 C 17,3 C 3,2 km/h (1 Bft) 97,87 %
10.09.2018 21:06 17,5 C 22,2 C 15,6 C 71 % 1022,0 hPa 0,0 l/m 1,8 km/h (1 Bft) S-SW 201 0 min 0,000 mm 0,0 UV-I 0 W/m 12,2 C 17,5 C 4,8 km/h (1 Bft) 95,74 %
10.09.2018 21:08 17,8 C 22,2 C 15,6 C 70 % 1021,9 hPa 0,0 l/m 1,9 km/h (1 Bft) S 179 0 min 0,000 mm 0,0 UV-I 0 W/m 12,3 C 17,8 C 4,8 km/h (1 Bft) 97,44 %
10.09.2018 21:10 17,8 C 22,2 C 15,6 C 70 % 1021,9 hPa 0,0 l/m 1,8 km/h (1 Bft) S-SW 196 0 min 0,000 mm 0,0 UV-I 0 W/m 12,3 C 17,8 C 4,8 km/h (1 Bft) 97,87 %
10.09.2018 21:12 17,8 C 22,2 C 15,6 C 70 % 1021,9 hPa 0,0 l/m 1,1 km/h (1 Bft) S-SW 193 0 min 0,000 mm 0,0 UV-I 0 W/m 12,3 C 17,8 C 6,4 km/h (2 Bft) 97,87 %
10.09.2018 21:14 17,9 C 22,2 C 15,6 C 69 % 1021,9 hPa 0,0 l/m 2,1 km/h (1 Bft) S 189 0 min 0,000 mm 0,0 UV-I 0 W/m 12,1 C 17,9 C 4,8 km/h (1 Bft) 97,87 %
10.09.2018 21:16 18,1 C 22,2 C 16,1 C 69 % 1021,9 hPa 0,0 l/m 1,6 km/h (1 Bft) S 191 0 min 0,000 mm 0,0 UV-I 0 W/m 12,3 C 18,1 C 4,8 km/h (1 Bft) 95,74 %
10.09.2018 21:19 18,2 C 22,2 C 16,1 C 68 % 1021,9 hPa 0,0 l/m 1,7 km/h (1 Bft) S 188 0 min 0,000 mm 0,0 UV-I 0 W/m 12,2 C 18,2 C 8,0 km/h (2 Bft) 97,26 %
10.09.2018 21:20 18,2 C 22,2 C 16,1 C 68 % 1021,9 hPa 0,0 l/m 2,5 km/h (1 Bft) S-SW 200 0 min 0,000 mm 0,0 UV-I 0 W/m 12,2 C 18,2 C 6,4 km/h (2 Bft) 100,00 %
10.09.2018 21:22 18,2 C 22,2 C 16,1 C 68 % 1022,0 hPa 0,0 l/m 3,2 km/h (1 Bft) S-SW 210 0 min 0,000 mm 0,0 UV-I 0 W/m 12,2 C 18,2 C 8,0 km/h (2 Bft) 100,00 %
10.09.2018 21:24 18,2 C 22,2 C 16,1 C 68 % 1022,0 hPa 0,0 l/m 3,0 km/h (1 Bft) S-SW 209 0 min 0,000 mm 0,0 UV-I 0 W/m 12,2 C 18,2 C 8,0 km/h (2 Bft) 97,14 %
10.09.2018 21:26 18,3 C 22,2 C 16,1 C 68 % 1022,0 hPa 0,0 l/m 2,2 km/h (1 Bft) S 171 0 min 0,000 mm 0,0 UV-I 0 W/m 12,3 C 18,3 C 6,4 km/h (2 Bft) 100,00 %
10.09.2018 21:28 18,3 C 22,2 C 16,1 C 68 % 1022,0 hPa 0,0 l/m 5,8 km/h (2 Bft) S 175 0 min 0,000 mm 0,0 UV-I 0 W/m 12,3 C 18,3 C 9,7 km/h (2 Bft) 100,00 %
10.09.2018 21:30 18,4 C 22,2 C 16,7 C 68 % 1021,9 hPa 0,0 l/m 3,5 km/h (1 Bft) S-SW 208 0 min 0,000 mm 0,0 UV-I 0 W/m 12,4 C 18,4 C 9,7 km/h (2 Bft) 97,87 %
10.09.2018 21:32 18,4 C 22,2 C 16,7 C 68 % 1022,0 hPa 0,0 l/m 3,4 km/h (1 Bft) S 174 0 min 0,000 mm 0,0 UV-I 0 W/m 12,4 C 18,4 C 8,0 km/h (2 Bft) 98,11 %
10.09.2018 21:34 18,5 C 22,2 C 16,7 C 67 % 1022,0 hPa 0,0 l/m 3,9 km/h (1 Bft) S-SW 192 0 min 0,000 mm 0,0 UV-I 0 W/m 12,3 C 18,5 C 9,7 km/h (2 Bft) 100,00 %
10.09.2018 21:36 18,5 C 22,2 C 16,7 C 67 % 1022,1 hPa 0,0 l/m 3,7 km/h (1 Bft) S 173 0 min 0,000 mm 0,0 UV-I 0 W/m 12,3 C 18,5 C 6,4 km/h (2 Bft) 100,00 %
10.09.2018 21:38 18,5 C 22,2 C 16,7 C 67 % 1022,0 hPa 0,0 l/m 2,4 km/h (1 Bft) S-SW 212 0 min 0,000 mm 0,0 UV-I 0 W/m 12,3 C 18,5 C 9,7 km/h (2 Bft) 97,37 %
10.09.2018 21:40 18,5 C 22,2 C 16,7 C 67 % 1022,0 hPa 0,0 l/m 5,6 km/h (1 Bft) S-SW 199 0 min 0,000 mm 0,0 UV-I 0 W/m 12,3 C 18,5 C 11,3 km/h (2 Bft) 100,00 %
10.09.2018 21:42 18,6 C 22,2 C 17,2 C 67 % 1022,0 hPa 0,0 l/m 5,9 km/h (2 Bft) S-SW 206 0 min 0,000 mm 0,0 UV-I 0 W/m 12,3 C 18,6 C 11,3 km/h (2 Bft) 100,00 %
10.09.2018 21:44 18,6 C 22,2 C 17,2 C 67 % 1022,1 hPa 0,0 l/m 4,0 km/h (1 Bft) S-SW 210 0 min 0,000 mm 0,0 UV-I 0 W/m 12,3 C 18,6 C 11,3 km/h (2 Bft) 100,00 %
10.09.2018 21:46 18,6 C 22,2 C 17,2 C 67 % 1022,0 hPa 0,0 l/m 5,0 km/h (1 Bft) S-SW 210 0 min 0,000 mm 0,0 UV-I 0 W/m 12,3 C 18,6 C 11,3 km/h (2 Bft) 100,00 %
10.09.2018 21:48 18,5 C 22,2 C 17,2 C 67 % 1022,0 hPa 0,0 l/m 3,6 km/h (1 Bft) S 175 0 min 0,000 mm 0,0 UV-I 0 W/m 12,3 C 18,5 C 8,0 km/h (2 Bft) 100,00 %
10.09.2018 21:50 18,5 C 22,2 C 17,2 C 68 % 1022,1 hPa 0,0 l/m 3,7 km/h (1 Bft) S-SW 207 0 min 0,000 mm 0,0 UV-I 0 W/m 12,5 C 18,5 C 9,7 km/h (2 Bft) 97,87 %
10.09.2018 21:52 18,5 C 22,2 C 17,2 C 68 % 1022,1 hPa 0,0 l/m 4,0 km/h (1 Bft) S-SW 211 0 min 0,000 mm 0,0 UV-I 0 W/m 12,5 C 18,5 C 9,7 km/h (2 Bft) 97,92 %
10.09.2018 21:54 18,4 C 22,2 C 16,7 C 68 % 1022,1 hPa 0,0 l/m 3,4 km/h (1 Bft) S-SW 208 0 min 0,000 mm 0,0 UV-I 0 W/m 12,4 C 18,4 C 8,0 km/h (2 Bft) 100,00 %
10.09.2018 21:56 18,3 C 21,7 C 16,7 C 68 % 1022,2 hPa 0,0 l/m 2,2 km/h (1 Bft) SW 223 0 min 0,000 mm 0,0 UV-I 0 W/m 12,3 C 18,3 C 11,3 km/h (2 Bft) 100,00 %
10.09.2018 21:59 18,2 C 21,7 C 16,7 C 69 % 1022,2 hPa 0,0 l/m 2,9 km/h (1 Bft) S-SW 209 0 min 0,000 mm 0,0 UV-I 0 W/m 12,4 C 18,2 C 8,0 km/h (2 Bft) 98,57 %
10.09.2018 22:00 18,2 C 21,7 C 16,7 C 69 % 1022,2 hPa 0,0 l/m 1,3 km/h (1 Bft) S-SW 194 0 min 0,000 mm 0,0 UV-I 0 W/m 12,4 C 18,2 C 3,2 km/h (1 Bft) 100,00 %
10.09.2018 22:02 18,1 C 21,7 C 16,7 C 69 % 1022,2 hPa 0,0 l/m 1,1 km/h (1 Bft) S-SW 207 0 min 0,025 mm 0,0 UV-I 0 W/m 12,3 C 18,1 C 6,4 km/h (2 Bft) 100,00 %
10.09.2018 22:04 18,0 C 21,7 C 16,7 C 70 % 1022,2 hPa 0,0 l/m 0,5 km/h (0 Bft) SW 221 0 min 0,000 mm 0,0 UV-I 0 W/m 12,4 C 18,0 C 3,2 km/h (1 Bft) 98,00 %
10.09.2018 22:06 17,9 C 21,7 C 16,7 C 70 % 1022,3 hPa 0,0 l/m 2,6 km/h (1 Bft) S-SW 213 0 min 0,000 mm 0,0 UV-I 0 W/m 12,3 C 17,9 C 6,4 km/h (2 Bft) 100,00 %
10.09.2018 22:08 17,8 C 21,7 C 16,7 C 71 % 1022,2 hPa 0,0 l/m 2,8 km/h (1 Bft) SW 214 0 min 0,000 mm 0,0 UV-I 0 W/m 12,5 C 17,8 C 6,4 km/h (2 Bft) 100,00 %
10.09.2018 22:10 17,7 C 21,7 C 16,1 C 71 % 1022,2 hPa 0,0 l/m 2,3 km/h (1 Bft) SW 219 0 min 0,000 mm 0,0 UV-I 0 W/m 12,4 C 17,7 C 6,4 km/h (2 Bft) 100,00 %
10.09.2018 22:12 17,6 C 21,7 C 16,1 C 72 % 1022,2 hPa 0,0 l/m 3,2 km/h (1 Bft) SW 225 0 min 0,000 mm 0,0 UV-I 0 W/m 12,5 C 17,6 C 8,0 km/h (2 Bft) 97,87 %
10.09.2018 22:14 17,6 C 21,7 C 16,1 C 72 % 1022,1 hPa 0,0 l/m 2,0 km/h (1 Bft) SW 214 0 min 0,000 mm 0,0 UV-I 0 W/m 12,5 C 17,6 C 8,0 km/h (2 Bft) 93,62 %
10.09.2018 22:16 17,6 C 21,7 C 16,1 C 72 % 1022,2 hPa 0,0 l/m 1,8 km/h (1 Bft) SW 215 0 min 0,000 mm 0,0 UV-I 0 W/m 12,5 C 17,6 C 4,8 km/h (1 Bft) 96,00 %
10.09.2018 22:18 17,4 C 21,7 C 16,1 C 72 % 1022,1 hPa 0,0 l/m 1,0 km/h (0 Bft) SW 222 0 min 0,000 mm 0,0 UV-I 0 W/m 12,3 C 17,4 C 4,8 km/h (1 Bft) 100,00 %
10.09.2018 22:20 17,4 C 21,7 C 15,6 C 73 % 1022,1 hPa 0,0 l/m 1,0 km/h (0 Bft) S-SW 211 0 min 0,000 mm 0,0 UV-I 0 W/m 12,5 C 17,4 C 3,2 km/h (1 Bft) 97,87 %
10.09.2018 22:22 17,3 C 21,7 C 15,6 C 73 % 1022,1 hPa 0,0 l/m 3,6 km/h (1 Bft) SW 225 0 min 0,000 mm 0,0 UV-I 0 W/m 12,4 C 17,3 C 6,4 km/h (2 Bft) 97,87 %
10.09.2018 22:24 17,3 C 21,7 C 15,6 C 73 % 1022,1 hPa 0,0 l/m 3,1 km/h (1 Bft) S-SW 192 0 min 0,000 mm 0,0 UV-I 0 W/m 12,4 C 17,3 C 6,4 km/h (2 Bft) 93,75 %
10.09.2018 22:26 17,3 C 21,7 C 15,6 C 73 % 1022,1 hPa 0,0 l/m 3,7 km/h (1 Bft) W-SW 238 0 min 0,000 mm 0,0 UV-I 0 W/m 12,4 C 17,3 C 9,7 km/h (2 Bft) 93,62 %
10.09.2018 22:28 17,4 C 21,7 C 15,6 C 73 % 1022,1 hPa 0,0 l/m 4,2 km/h (1 Bft) SW 219 0 min 0,000 mm 0,0 UV-I 0 W/m 12,5 C 17,4 C 11,3 km/h (2 Bft) 93,62 %
10.09.2018 22:30 17,5 C 21,7 C 16,1 C 73 % 1022,1 hPa 0,0 l/m 4,2 km/h (1 Bft) S-SW 200 0 min 0,000 mm 0,0 UV-I 0 W/m 12,6 C 17,5 C 9,7 km/h (2 Bft) 94,00 %
10.09.2018 22:32 17,6 C 21,7 C 16,1 C 72 % 1022,1 hPa 0,0 l/m 4,3 km/h (1 Bft) S-SW 203 0 min 0,000 mm 0,0 UV-I 0 W/m 12,5 C 17,6 C 8,0 km/h (2 Bft) 95,74 %
10.09.2018 22:34 17,4 C 21,7 C 15,6 C 73 % 1022,1 hPa 0,0 l/m 3,4 km/h (1 Bft) W-SW 237 0 min 0,000 mm 0,0 UV-I 0 W/m 12,5 C 17,4 C 8,0 km/h (2 Bft) 92,11 %
10.09.2018 22:36 17,4 C 21,7 C 15,6 C 73 % 1022,1 hPa 0,0 l/m 2,4 km/h (1 Bft) SW 221 0 min 0,000 mm 0,0 UV-I 0 W/m 12,5 C 17,4 C 9,7 km/h (2 Bft) 94,00 %
10.09.2018 22:38 17,4 C 21,7 C 15,6 C 73 % 1022,1 hPa 0,0 l/m 1,0 km/h (0 Bft) SW 222 0 min 0,000 mm 0,0 UV-I 0 W/m 12,5 C 17,4 C 8,0 km/h (2 Bft) 93,62 %
10.09.2018 22:40 17,3 C 21,7 C 15,6 C 73 % 1022,1 hPa 0,0 l/m 2,2 km/h (1 Bft) SW 219 0 min 0,000 mm 0,0 UV-I 0 W/m 12,4 C 17,3 C 6,4 km/h (2 Bft) 93,62 %
10.09.2018 22:42 17,2 C 21,7 C 15,6 C 74 % 1022,2 hPa 0,0 l/m 4,5 km/h (1 Bft) SW 232 0 min 0,000 mm 0,0 UV-I 0 W/m 12,5 C 17,2 C 8,0 km/h (2 Bft) 92,11 %
10.09.2018 22:44 17,2 C 21,7 C 15,6 C 74 % 1022,2 hPa 0,0 l/m 3,8 km/h (1 Bft) S-SW 213 0 min 0,000 mm 0,0 UV-I 0 W/m 12,5 C 17,2 C 9,7 km/h (2 Bft) 95,16 %
10.09.2018 22:46 17,1 C 21,7 C 15,6 C 74 % 1022,2 hPa 0,0 l/m 3,0 km/h (1 Bft) S-SW 205 0 min 0,000 mm 0,0 UV-I 0 W/m 12,4 C 17,1 C 6,4 km/h (2 Bft) 93,62 %
10.09.2018 22:48 17,1 C 21,7 C 15,6 C 74 % 1022,2 hPa 0,0 l/m 3,1 km/h (1 Bft) W-SW 244 0 min 0,000 mm 0,0 UV-I 0 W/m 12,4 C 17,1 C 8,0 km/h (2 Bft) 97,14 %
10.09.2018 22:50 17,1 C 21,7 C 15,6 C 74 % 1022,2 hPa 0,0 l/m 1,3 km/h (1 Bft) SW 219 0 min 0,000 mm 0,0 UV-I 0 W/m 12,4 C 17,1 C 4,8 km/h (1 Bft) 92,45 %
10.09.2018 22:52 17,1 C 21,7 C 15,6 C 74 % 1022,2 hPa 0,0 l/m 4,7 km/h (1 Bft) SW 219 0 min 0,000 mm 0,0 UV-I 0 W/m 12,4 C 17,1 C 9,7 km/h (2 Bft) 95,74 %
10.09.2018 22:54 17,0 C 21,7 C 15,6 C 74 % 1022,3 hPa 0,0 l/m 3,7 km/h (1 Bft) SW 232 0 min 0,000 mm 0,0 UV-I 0 W/m 12,3 C 17,0 C 6,4 km/h (2 Bft) 91,49 %
10.09.2018 22:56 17,0 C 21,7 C 15,6 C 75 % 1022,4 hPa 0,0 l/m 3,9 km/h (1 Bft) SW 231 0 min 0,000 mm 0,0 UV-I 0 W/m 12,5 C 17,0 C 8,0 km/h (2 Bft) 93,62 %
10.09.2018 22:58 16,9 C 21,7 C 15,6 C 75 % 1022,4 hPa 0,0 l/m 4,2 km/h (1 Bft) S-SW 200 0 min 0,000 mm 0,0 UV-I 0 W/m 12,4 C 16,9 C 8,0 km/h (2 Bft) 91,49 %
10.09.2018 23:00 16,9 C 21,7 C 15,6 C 75 % 1022,4 hPa 0,0 l/m 5,8 km/h (2 Bft) SW 222 0 min 0,000 mm 0,0 UV-I 0 W/m 12,4 C 16,9 C 9,7 km/h (2 Bft) 94,00 %
10.09.2018 23:02 16,9 C 21,7 C 15,6 C 75 % 1022,4 hPa 0,0 l/m 5,9 km/h (2 Bft) S-SW 212 0 min 0,026 mm 0,0 UV-I 0 W/m 12,4 C 16,9 C 9,7 km/h (2 Bft) 95,74 %
10.09.2018 23:04 16,9 C 21,7 C 15,6 C 75 % 1022,3 hPa 0,0 l/m 4,2 km/h (1 Bft) S-SW 200 0 min 0,000 mm 0,0 UV-I 0 W/m 12,4 C 16,9 C 9,7 km/h (2 Bft) 95,74 %
10.09.2018 23:06 16,8 C 21,7 C 15,6 C 75 % 1022,4 hPa 0,0 l/m 4,6 km/h (1 Bft) SW 217 0 min 0,000 mm 0,0 UV-I 0 W/m 12,3 C 16,8 C 8,0 km/h (2 Bft) 93,75 %
10.09.2018 23:08 16,8 C 21,7 C 15,0 C 75 % 1022,3 hPa 0,0 l/m 3,1 km/h (1 Bft) S-SW 211 0 min 0,000 mm 0,0 UV-I 0 W/m 12,3 C 16,8 C 6,4 km/h (2 Bft) 100,00 %
10.09.2018 23:10 16,8 C 21,7 C 15,0 C 75 % 1022,4 hPa 0,0 l/m 4,5 km/h (1 Bft) S-SW 205 0 min 0,000 mm 0,0 UV-I 0 W/m 12,3 C 16,8 C 8,0 km/h (2 Bft) 94,00 %
10.09.2018 23:12 16,8 C 21,7 C 15,0 C 75 % 1022,4 hPa 0,0 l/m 3,7 km/h (1 Bft) S-SW 207 0 min 0,000 mm 0,0 UV-I 0 W/m 12,3 C 16,8 C 8,0 km/h (2 Bft) 95,74 %
10.09.2018 23:14 16,8 C 21,7 C 15,0 C 75 % 1022,3 hPa 0,0 l/m 4,6 km/h (1 Bft) S-SW 200 0 min 0,000 mm 0,0 UV-I 0 W/m 12,3 C 16,8 C 9,7 km/h (2 Bft) 97,87 %
10.09.2018 23:16 16,8 C 21,7 C 15,6 C 75 % 1022,4 hPa 0,0 l/m 4,4 km/h (1 Bft) S-SW 211 0 min 0,000 mm 0,0 UV-I 0 W/m 12,3 C 16,8 C 8,0 km/h (2 Bft) 93,62 %
10.09.2018 23:18 16,8 C 21,7 C 15,0 C 75 % 1022,4 hPa 0,0 l/m 3,6 km/h (1 Bft) S-SW 213 0 min 0,000 mm 0,0 UV-I 0 W/m 12,3 C 16,8 C 6,4 km/h (2 Bft) 98,00 %
10.09.2018 23:20 16,8 C 21,7 C 15,0 C 75 % 1022,4 hPa 0,0 l/m 4,6 km/h (1 Bft) S-SW 207 0 min 0,000 mm 0,0 UV-I 0 W/m 12,3 C 16,8 C 8,0 km/h (2 Bft) 98,00 %
10.09.2018 23:22 16,7 C 21,7 C 15,0 C 75 % 1022,4 hPa 0,0 l/m 4,2 km/h (1 Bft) S-SW 210 0 min 0,000 mm 0,0 UV-I 0 W/m 12,2 C 16,7 C 8,0 km/h (2 Bft) 97,87 %
10.09.2018 23:24 16,7 C 21,7 C 15,0 C 76 % 1022,4 hPa 0,0 l/m 4,0 km/h (1 Bft) S-SW 209 0 min 0,000 mm 0,0 UV-I 0 W/m 12,4 C 16,7 C 8,0 km/h (2 Bft) 94,29 %
10.09.2018 23:26 16,7 C 21,7 C 15,0 C 76 % 1022,5 hPa 0,0 l/m 3,1 km/h (1 Bft) S-SW 207 0 min 0,000 mm 0,0 UV-I 0 W/m 12,4 C 16,7 C 8,0 km/h (2 Bft) 94,00 %
10.09.2018 23:28 16,6 C 21,7 C 15,0 C 76 % 1022,4 hPa 0,0 l/m 4,1 km/h (1 Bft) SW 215 0 min 0,000 mm 0,0 UV-I 0 W/m 12,3 C 16,6 C 8,0 km/h (2 Bft) 97,87 %
10.09.2018 23:30 16,6 C 21,7 C 15,0 C 76 % 1022,4 hPa 0,0 l/m 4,5 km/h (1 Bft) S-SW 213 0 min 0,000 mm 0,0 UV-I 0 W/m 12,3 C 16,6 C 8,0 km/h (2 Bft) 100,00 %
10.09.2018 23:32 16,6 C 21,7 C 15,0 C 76 % 1022,4 hPa 0,0 l/m 3,4 km/h (1 Bft) S-SW 209 0 min 0,000 mm 0,0 UV-I 0 W/m 12,3 C 16,6 C 8,0 km/h (2 Bft) 100,00 %
10.09.2018 23:34 16,5 C 21,7 C 15,0 C 76 % 1022,5 hPa 0,0 l/m 4,0 km/h (1 Bft) S-SW 213 0 min 0,000 mm 0,0 UV-I 0 W/m 12,3 C 16,5 C 4,8 km/h (1 Bft) 97,87 %
10.09.2018 23:36 16,4 C 21,7 C 15,0 C 76 % 1022,5 hPa 0,0 l/m 2,3 km/h (1 Bft) S-SW 213 0 min 0,000 mm 0,0 UV-I 0 W/m 12,2 C 16,4 C 6,4 km/h (2 Bft) 97,87 %
10.09.2018 23:38 16,4 C 21,7 C 15,0 C 76 % 1022,5 hPa 0,0 l/m 3,4 km/h (1 Bft) SW 217 0 min 0,000 mm 0,0 UV-I 0 W/m 12,2 C 16,4 C 8,0 km/h (2 Bft) 95,74 %
10.09.2018 23:40 16,4 C 21,7 C 15,0 C 77 % 1022,5 hPa 0,0 l/m 2,4 km/h (1 Bft) SW 228 0 min 0,000 mm 0,0 UV-I 0 W/m 12,4 C 16,4 C 8,0 km/h (2 Bft) 100,00 %
10.09.2018 23:42 16,4 C 21,7 C 15,0 C 77 % 1022,5 hPa 0,0 l/m 3,0 km/h (1 Bft) S-SW 207 0 min 0,000 mm 0,0 UV-I 0 W/m 12,4 C 16,4 C 6,4 km/h (2 Bft) 100,00 %
10.09.2018 23:44 16,3 C 21,7 C 15,0 C 77 % 1022,5 hPa 0,0 l/m 4,6 km/h (1 Bft) S-SW 211 0 min 0,000 mm 0,0 UV-I 0 W/m 12,3 C 16,3 C 8,0 km/h (2 Bft) 100,00 %
10.09.2018 23:46 16,2 C 21,7 C 15,0 C 77 % 1022,5 hPa 0,0 l/m 3,8 km/h (1 Bft) S-SW 206 0 min 0,000 mm 0,0 UV-I 0 W/m 12,2 C 16,2 C 8,0 km/h (2 Bft) 98,00 %
10.09.2018 23:48 16,2 C 21,7 C 15,0 C 78 % 1022,5 hPa 0,0 l/m 4,9 km/h (1 Bft) S-SW 205 0 min 0,000 mm 0,0 UV-I 0 W/m 12,4 C 16,2 C 8,0 km/h (2 Bft) 95,74 %
10.09.2018 23:50 16,1 C 21,7 C 15,0 C 78 % 1022,5 hPa 0,0 l/m 5,4 km/h (1 Bft) S-SW 209 0 min 0,000 mm 0,0 UV-I 0 W/m 12,3 C 16,1 C 8,0 km/h (2 Bft) 97,14 %
10.09.2018 23:52 16,1 C 21,7 C 15,0 C 78 % 1022,4 hPa 0,0 l/m 4,0 km/h (1 Bft) S-SW 210 0 min 0,000 mm 0,0 UV-I 0 W/m 12,3 C 16,1 C 8,0 km/h (2 Bft) 97,87 %
10.09.2018 23:54 16,1 C 21,7 C 15,0 C 78 % 1022,5 hPa 0,0 l/m 2,6 km/h (1 Bft) SW 220 0 min 0,000 mm 0,0 UV-I 0 W/m 12,3 C 16,1 C 6,4 km/h (2 Bft) 98,11 %
10.09.2018 23:56 16,1 C 21,7 C 14,4 C 78 % 1022,5 hPa 0,0 l/m 4,0 km/h (1 Bft) S-SW 202 0 min 0,000 mm 0,0 UV-I 0 W/m 12,3 C 16,1 C 8,0 km/h (2 Bft) 98,00 %
10.09.2018 23:58 16,2 C 21,7 C 14,4 C 78 % 1022,4 hPa 0,0 l/m 4,1 km/h (1 Bft) S-SW 203 0 min 0,000 mm 0,0 UV-I 0 W/m 12,4 C 16,2 C 9,7 km/h (2 Bft) 95,74 %
_ Min-Zeit 05:48 03:48 06:00 17:00 17:42 - 00:02 - - - - - - 06:28 05:48 00:28 07:30
Minimum _ 9,6 C 20,6 C 7,2 C 38 % 1020,8 hPa - 0,0 km/h (0 Bft) - - - - - - 8,7 C 9,6 C 0,0 km/h (0 Bft) 89,36 %
_ Max-Zeit 16:08 14:48 12:56 04:50 10:10 00:00 15:18 - - 06:44 14:00 12:46 13:04 10:50 16:00 13:32 00:22
Maximum _ 25,9 C 22,2 C 36,7 C 95 % 1022,9 hPa 0,0 l/m 11,6 km/h
W (2 Bft)
- - 2 min 0,457 mm 3,9 UV-I 720 W/m 14,7 C 25,8 C 22,5 km/h
W-SW (4 Bft)
100,00 %
Durchschnitt _ 17,7 C 21,4 C 19,3 C 72 % 1021,8 hPa #0,0 l/m 1,3 km/h (1 Bft) S-SW - #11:20 h #3,226 mm 2,2 UV-I 381 W/m 11,8 C 17,7 C 3,5 km/h (1 Bft) 97,09 %